[[{"header":{"parameterUnit":"m.s-1","parameterCategory":1,"la1":30.6,"la2":29.2853,"lo1":-89.7004,"lo2":-87.6739,"dy":0.0162,"dx":0.0183,"nx":112,"ny":82,"refTime":"2025-08-14T12:00:00:Z","depth":0,"parameterNumber":2,"parameterNumberName":"U-component_of_WINDS"},"data":[0.0,0.0,0.0,0.0,0.0,0.0,0.0,0.0,0.0,0.0,0.0,0.0,0.0,0.0,0.0,0.0,0.0,0.0,0.0,0.0,0.0,0.0,0.0,0.0,0.0,0.0,0.0,0.0,0.0,0.0,0.0,0.0,0.0,0.0,0.0,0.0,0.0,0.0,0.0,0.0,0.0,0.0,0.0,0.0,0.0,0.0,0.0,0.0,0.0,0.0,0.0,0.0,0.0,0.0,0.0,0.0,0.0,0.0,0.0,0.0,0.0,0.0,0.0,0.0,0.0,0.0,0.0,0.0,0.0,0.0,0.0,0.0,0.0,0.0,0.0,0.0,0.0,0.0,0.0,0.0,0.0,0.0,0.0,0.0,0.0,0.0,0.0,0.0,0.0,0.0,0.0,-2.271,-2.1965,-2.1248,-2.0858,-1.9907,-1.8326,-1.5955,0.0,0.0,0.0,0.0,0.0,0.0,0.0,0.0,0.0,0.0,0.0,0.0,0.0,0.0,0.0,0.0,0.0,0.0,0.0,0.0,0.0,0.0,0.0,0.0,0.0,0.0,0.0,0.0,0.0,0.0,0.0,0.0,0.0,0.0,0.0,0.0,0.0,0.0,0.0,0.0,0.0,0.0,0.0,0.0,0.0,0.0,0.0,0.0,0.0,0.0,0.0,0.0,0.0,0.0,0.0,0.0,0.0,0.0,0.0,0.0,0.0,0.0,0.0,0.0,0.0,0.0,0.0,0.0,0.0,0.0,0.0,0.0,0.0,0.0,0.0,0.0,0.0,0.0,0.0,0.0,0.0,0.0,0.0,0.0,0.0,0.0,0.0,0.0,0.0,0.0,0.0,0.0,0.0,0.0,0.0,0.0,0.0,0.0,0.0,0.0,0.0,0.0,0.0,0.0,-2.0847,-2.0606,-2.053,-2.0115,-1.9165,-1.9927,-1.8895,-1.5209,0.0,0.0,0.0,0.0,0.0,0.0,0.0,0.0,0.0,0.0,0.0,0.0,0.0,0.0,0.0,0.0,0.0,0.0,0.0,0.0,0.0,0.0,0.0,0.0,0.0,0.0,0.0,0.0,0.0,0.0,0.0,0.0,0.0,0.0,0.0,0.0,0.0,0.0,0.0,0.0,0.0,0.0,0.0,0.0,0.0,0.0,0.0,0.0,0.0,0.0,0.0,0.0,0.0,0.0,0.0,0.0,0.0,0.0,0.0,0.0,0.0,0.0,0.0,0.0,0.0,0.0,0.0,0.0,0.0,0.0,0.0,0.0,0.0,0.0,0.0,0.0,0.0,0.0,0.0,0.0,0.0,0.0,0.0,0.0,0.0,0.0,0.0,0.0,0.0,0.0,0.0,0.0,0.0,0.0,0.0,0.0,0.0,0.0,0.0,0.0,0.0,0.0,0.0,-2.1263,-2.1397,-2.0363,-2.0316,-2.0106,-1.9456,-2.0211,-1.9117,-1.5402,-1.3994,0.0,0.0,0.0,0.0,0.0,0.0,0.0,0.0,0.0,0.0,0.0,0.0,0.0,0.0,0.0,0.0,0.0,0.0,0.0,0.0,0.0,0.0,0.0,0.0,0.0,0.0,0.0,0.0,0.0,0.0,0.0,0.0,0.0,0.0,0.0,0.0,0.0,0.0,0.0,0.0,0.0,0.0,0.0,0.0,0.0,0.0,0.0,0.0,0.0,0.0,0.0,0.0,0.0,0.0,0.0,0.0,0.0,0.0,0.0,0.0,0.0,0.0,0.0,0.0,0.0,0.0,0.0,0.0,0.0,0.0,0.0,0.0,0.0,0.0,0.0,0.0,0.0,0.0,0.0,0.0,0.0,0.0,0.0,0.0,0.0,0.0,0.0,0.0,0.0,0.0,0.0,0.0,0.0,0.0,0.0,0.0,0.0,0.0,0.0,0.0,0.0,0.0,-2.1568,-2.1957,-2.0277,-2.0281,-2.0211,-1.9726,-2.0304,-1.926,-1.591,-1.462,0.0,0.0,0.0,0.0,0.0,0.0,0.0,0.0,0.0,0.0,0.0,0.0,0.0,0.0,0.0,0.0,0.0,0.0,0.0,0.0,0.0,0.0,0.0,0.0,0.0,0.0,0.0,0.0,0.0,0.0,0.0,0.0,0.0,0.0,0.0,0.0,0.0,0.0,0.0,0.0,0.0,0.0,0.0,0.0,0.0,0.0,0.0,0.0,0.0,0.0,0.0,0.0,0.0,0.0,0.0,0.0,0.0,0.0,0.0,0.0,0.0,0.0,0.0,0.0,0.0,0.0,0.0,0.0,0.0,0.0,0.0,0.0,0.0,0.0,0.0,0.0,0.0,0.0,0.0,0.0,0.0,0.0,0.0,0.0,0.0,0.0,0.0,0.0,0.0,0.0,0.0,0.0,0.0,0.0,0.0,0.0,0.0,0.0,0.0,0.0,0.0,0.0,-2.1901,-2.1718,-1.9433,-1.9928,-1.9957,-1.8876,-1.9959,-1.9447,-1.653,-1.4863,0.0,0.0,0.0,0.0,0.0,0.0,0.0,0.0,0.0,0.0,0.0,0.0,0.0,0.0,0.0,0.0,0.0,0.0,0.0,0.0,0.0,0.0,0.0,0.0,0.0,0.0,0.0,0.0,0.0,0.0,0.0,0.0,0.0,0.0,0.0,0.0,0.0,0.0,0.0,0.0,0.0,0.0,0.0,0.0,0.0,0.0,0.0,0.0,0.0,0.0,0.0,0.0,0.0,0.0,0.0,0.0,0.0,0.0,0.0,0.0,0.0,0.0,0.0,0.0,0.0,0.0,0.0,0.0,0.0,0.0,0.0,0.0,0.0,0.0,0.0,0.0,0.0,0.0,0.0,0.0,0.0,0.0,0.0,0.0,0.0,0.0,0.0,0.0,0.0,0.0,0.0,0.0,0.0,0.0,0.0,0.0,0.0,0.0,0.0,0.0,0.0,0.0,-2.1767,-2.2084,0.0,-2.0175,-2.0141,-1.9501,-2.0447,-1.9714,-1.6553,0.0,0.0,0.0,0.0,0.0,0.0,0.0,0.0,0.0,0.0,0.0,0.0,0.0,0.0,0.0,0.0,0.0,0.0,0.0,0.0,0.0,0.0,0.0,0.0,0.0,0.0,0.0,0.0,0.0,0.0,0.0,0.0,0.0,0.0,0.0,0.0,0.0,0.0,0.0,0.0,0.0,0.0,0.0,0.0,0.0,0.0,0.0,0.0,0.0,0.0,0.0,0.0,0.0,0.0,0.0,0.0,0.0,0.0,0.0,0.0,0.0,0.0,0.0,0.0,0.0,0.0,0.0,0.0,0.0,0.0,0.0,0.0,0.0,0.0,0.0,0.0,0.0,0.0,0.0,0.0,0.0,0.0,0.0,0.0,0.0,0.0,0.0,0.0,0.0,0.0,0.0,0.0,0.0,0.0,0.0,0.0,0.0,0.0,0.0,0.0,0.0,0.0,-2.0407,-2.1845,-2.231,0.0,-2.0373,-2.0258,-1.9926,-2.0615,-1.9762,-1.6763,0.0,0.0,0.0,0.0,0.0,0.0,0.0,0.0,0.0,0.0,0.0,0.0,0.0,0.0,0.0,0.0,0.0,0.0,0.0,0.0,0.0,0.0,0.0,0.0,0.0,0.0,0.0,0.0,0.0,0.0,0.0,0.0,0.0,0.0,0.0,0.0,0.0,0.0,0.0,0.0,0.0,0.0,0.0,0.0,0.0,0.0,0.0,0.0,0.0,0.0,0.0,0.0,0.0,0.0,0.0,0.0,0.0,0.0,0.0,0.0,0.0,0.0,0.0,0.0,0.0,0.0,0.0,0.0,0.0,0.0,0.0,0.0,0.0,0.0,0.0,0.0,0.0,0.0,0.0,0.0,0.0,0.0,0.0,0.0,0.0,0.0,0.0,0.0,0.0,0.0,0.0,0.0,0.0,0.0,0.0,0.0,0.0,0.0,0.0,0.0,0.0,0.0,-2.1208,-2.2214,-2.2344,-2.0605,-2.0402,-2.0258,-1.9917,-2.0331,-1.9591,0.0,0.0,0.0,0.0,0.0,0.0,0.0,0.0,0.0,0.0,0.0,0.0,0.0,0.0,0.0,0.0,0.0,0.0,0.0,0.0,0.0,0.0,0.0,0.0,0.0,0.0,0.0,0.0,0.0,0.0,0.0,0.0,0.0,0.0,0.0,0.0,0.0,0.0,0.0,0.0,0.0,0.0,0.0,0.0,0.0,0.0,0.0,0.0,0.0,0.0,0.0,0.0,0.0,0.0,0.0,0.0,0.0,0.0,0.0,0.0,0.0,0.0,0.0,0.0,0.0,0.0,0.0,0.0,0.0,0.0,0.0,0.0,0.0,0.0,0.0,0.0,0.0,0.0,0.0,0.0,0.0,0.0,0.0,0.0,0.0,0.0,0.0,0.0,0.0,0.0,0.0,0.0,0.0,0.0,0.0,0.0,0.0,0.0,0.0,0.0,0.0,0.0,0.0,-2.1395,-2.2294,-2.2549,-2.1363,-2.074,-2.0255,-1.9863,-2.0126,-1.9237,-1.6699,0.0,0.0,0.0,0.0,0.0,0.0,0.0,0.0,0.0,0.0,0.0,0.0,0.0,0.0,0.0,0.0,0.0,0.0,0.0,0.0,0.0,0.0,0.0,0.0,0.0,0.0,0.0,0.0,0.0,0.0,0.0,0.0,0.0,0.0,0.0,0.0,0.0,0.0,0.0,0.0,0.0,0.0,0.0,0.0,0.0,0.0,0.0,0.0,0.0,0.0,0.0,0.0,0.0,0.0,0.0,0.0,0.0,0.0,0.0,0.0,0.0,0.0,0.0,0.0,0.0,0.0,0.0,0.0,0.0,0.0,0.0,0.0,0.0,0.0,0.0,0.0,0.0,0.0,0.0,0.0,0.0,0.0,0.0,0.0,0.0,0.0,0.0,0.0,0.0,0.0,0.0,0.0,0.0,0.0,0.0,0.0,0.0,0.0,0.0,0.0,0.0,0.0,-2.196,-2.2552,-2.2644,-2.1733,-2.0881,-2.0205,-1.9836,-2.0059,-1.9143,-1.6702,0.0,0.0,0.0,0.0,0.0,0.0,0.0,0.0,0.0,0.0,0.0,0.0,0.0,0.0,0.0,0.0,0.0,0.0,0.0,0.0,0.0,0.0,0.0,0.0,0.0,0.0,0.0,0.0,0.0,0.0,0.0,0.0,0.0,0.0,0.0,0.0,0.0,0.0,0.0,0.0,0.0,0.0,0.0,0.0,0.0,0.0,0.0,0.0,0.0,0.0,0.0,0.0,0.0,0.0,0.0,0.0,0.0,0.0,0.0,0.0,0.0,0.0,0.0,0.0,0.0,0.0,0.0,0.0,0.0,0.0,0.0,0.0,0.0,0.0,0.0,0.0,0.0,0.0,0.0,0.0,0.0,0.0,0.0,0.0,0.0,0.0,0.0,0.0,0.0,0.0,0.0,0.0,0.0,0.0,0.0,0.0,0.0,0.0,0.0,0.0,0.0,0.0,-2.2848,-2.2998,-2.2769,-2.1901,-2.0972,-2.0231,-1.9824,-1.997,-1.9163,-1.702,0.0,0.0,0.0,0.0,0.0,0.0,0.0,0.0,0.0,0.0,0.0,0.0,0.0,0.0,0.0,0.0,0.0,0.0,0.0,0.0,0.0,0.0,0.0,0.0,0.0,0.0,0.0,0.0,0.0,0.0,0.0,0.0,0.0,0.0,0.0,0.0,0.0,0.0,0.0,0.0,0.0,0.0,0.0,0.0,0.0,0.0,0.0,0.0,0.0,0.0,0.0,0.0,0.0,0.0,0.0,0.0,0.0,0.0,0.0,0.0,-2.4907,0.0,0.0,0.0,0.0,0.0,0.0,0.0,0.0,0.0,0.0,0.0,0.0,0.0,0.0,0.0,0.0,0.0,0.0,0.0,0.0,0.0,0.0,0.0,0.0,0.0,0.0,0.0,0.0,0.0,0.0,0.0,0.0,0.0,0.0,0.0,0.0,0.0,0.0,0.0,0.0,0.0,-2.3937,-2.3904,-2.3559,-2.273,-2.1758,-2.0783,-1.9881,-1.9365,-1.848,-1.6987,0.0,0.0,0.0,0.0,0.0,0.0,0.0,0.0,0.0,0.0,0.0,0.0,0.0,0.0,0.0,0.0,0.0,0.0,0.0,0.0,0.0,0.0,0.0,0.0,0.0,0.0,0.0,0.0,0.0,0.0,0.0,0.0,0.0,0.0,0.0,0.0,0.0,0.0,0.0,0.0,0.0,0.0,0.0,0.0,0.0,0.0,0.0,0.0,0.0,0.0,0.0,0.0,0.0,0.0,0.0,0.0,0.0,0.0,0.0,0.0,0.0,-2.4186,0.0,0.0,0.0,0.0,0.0,0.0,0.0,0.0,0.0,0.0,0.0,0.0,0.0,0.0,0.0,0.0,0.0,0.0,0.0,0.0,0.0,0.0,0.0,0.0,0.0,0.0,0.0,0.0,0.0,0.0,0.0,0.0,0.0,0.0,0.0,0.0,0.0,0.0,0.0,0.0,-2.476,-2.4004,-2.3267,-2.2854,-2.15,-2.0389,-1.9751,-1.9146,-1.8356,-1.73,-1.6323,0.0,0.0,0.0,0.0,0.0,0.0,0.0,0.0,0.0,0.0,0.0,0.0,0.0,0.0,0.0,0.0,0.0,0.0,0.0,0.0,0.0,0.0,0.0,0.0,0.0,0.0,0.0,0.0,0.0,0.0,0.0,0.0,0.0,0.0,0.0,0.0,0.0,0.0,0.0,0.0,0.0,0.0,0.0,0.0,0.0,0.0,0.0,0.0,0.0,0.0,0.0,0.0,0.0,-2.7362,-2.7638,-2.7669,-2.7219,-2.6682,-2.6057,-2.5226,-2.4605,-2.4208,0.0,0.0,0.0,0.0,0.0,0.0,0.0,0.0,0.0,0.0,0.0,0.0,0.0,0.0,0.0,0.0,0.0,0.0,0.0,0.0,0.0,0.0,0.0,0.0,0.0,-2.3305,-2.2687,0.0,0.0,0.0,0.0,0.0,0.0,0.0,0.0,0.0,0.0,0.0,0.0,-2.5204,-2.3997,-2.2949,-2.2661,-2.1149,-2.0001,-1.9574,-1.9073,-1.8408,-1.7574,-1.6772,-1.5876,0.0,0.0,0.0,0.0,0.0,0.0,0.0,0.0,0.0,0.0,0.0,0.0,0.0,0.0,0.0,0.0,0.0,0.0,0.0,0.0,0.0,0.0,0.0,0.0,0.0,0.0,0.0,0.0,0.0,0.0,0.0,0.0,-2.0152,-2.1443,0.0,0.0,0.0,0.0,0.0,0.0,0.0,0.0,0.0,0.0,0.0,0.0,0.0,0.0,-2.7849,-2.7835,-2.7869,-2.8001,-2.8802,-2.9045,-2.8796,-2.8714,-2.8173,-2.7284,-2.7362,0.0,-2.4211,-2.4203,0.0,0.0,0.0,0.0,0.0,0.0,0.0,0.0,0.0,0.0,0.0,0.0,0.0,0.0,0.0,0.0,0.0,0.0,0.0,0.0,0.0,0.0,-2.4428,-2.313,-2.2797,-2.2635,0.0,-2.2192,-2.228,-2.2044,0.0,0.0,0.0,0.0,0.0,0.0,0.0,0.0,-2.4864,-2.4664,-2.3966,-2.2496,-2.1961,-2.1034,-1.9387,-1.8876,-1.8223,-1.7306,-1.6928,-1.6452,-1.5905,-1.4995,0.0,0.0,0.0,0.0,0.0,0.0,0.0,0.0,0.0,0.0,0.0,0.0,0.0,0.0,0.0,0.0,0.0,0.0,0.0,0.0,0.0,0.0,0.0,0.0,0.0,0.0,0.0,0.0,0.0,-2.1823,-2.3159,-2.2691,-2.3289,-2.3527,0.0,0.0,0.0,0.0,0.0,0.0,0.0,0.0,0.0,-2.6613,-2.8169,-2.9102,-2.9313,-2.9127,-2.9044,-2.9038,-2.9167,-2.8666,-2.7643,-2.7645,-2.7452,-2.7074,-2.6588,-2.5847,-2.5094,-2.6372,-2.5819,-2.4235,0.0,0.0,0.0,0.0,0.0,-2.3498,-2.3188,-2.2992,0.0,0.0,0.0,0.0,0.0,0.0,0.0,0.0,0.0,0.0,0.0,0.0,0.0,-2.2841,-2.2573,-2.2436,-2.2338,-2.2388,-2.2436,0.0,-2.231,-2.2426,-2.2865,0.0,0.0,0.0,0.0,0.0,-2.4769,-2.3889,-2.2947,-2.2201,-2.1041,-1.9994,-1.9152,-1.8661,-1.8035,-1.7252,-1.6944,-1.646,-1.5675,-1.5527,-1.5011,0.0,0.0,0.0,0.0,0.0,0.0,0.0,0.0,0.0,0.0,0.0,0.0,0.0,0.0,0.0,0.0,0.0,0.0,0.0,0.0,0.0,0.0,0.0,0.0,0.0,0.0,0.0,0.0,-2.3672,-2.5072,-2.3681,-2.4101,-2.4317,0.0,0.0,0.0,0.0,0.0,0.0,-2.4636,-2.5621,-2.6453,-2.7028,-2.8589,-2.9612,-2.9992,-2.9412,-2.9137,-2.9231,-2.8873,-2.7889,-2.641,-2.6447,-2.6462,-2.6427,-2.5622,-2.5235,-2.5244,-2.6796,-2.6031,-2.3916,-2.4392,-2.4149,-2.3522,-2.3111,-2.3014,-2.3021,-2.2712,-2.2599,-2.2546,-2.236,0.0,-2.231,-2.231,0.0,0.0,0.0,0.0,-2.3386,-2.3288,-2.3136,-2.2955,-2.2677,-2.2453,-2.231,-2.231,-2.231,-2.231,0.0,-2.231,-2.2388,-2.266,0.0,0.0,0.0,0.0,-2.4118,-2.4366,-2.3004,-2.1959,-2.1738,-2.0207,-1.9076,-1.8825,-1.8353,-1.7798,-1.7142,-1.6725,-1.6123,-1.5338,-1.5583,-1.5227,-1.411,0.0,0.0,0.0,0.0,0.0,0.0,0.0,0.0,0.0,0.0,0.0,0.0,0.0,0.0,0.0,0.0,0.0,0.0,0.0,0.0,0.0,0.0,0.0,0.0,0.0,0.0,0.0,0.0,0.0,-2.5449,-2.533,0.0,0.0,0.0,0.0,-2.4847,-2.4936,-2.4967,-2.4967,-2.575,-2.6246,-2.6339,-2.6635,-2.7449,-2.8883,-2.7973,-2.768,-2.7997,-2.7901,-2.7138,-2.5847,-2.605,-2.5931,-2.5561,-2.5577,-2.4945,-2.3846,-2.3379,-2.3109,-2.2954,-2.2857,-2.2982,-2.3159,-2.2544,-2.2517,-2.2686,-2.2398,-2.2321,-2.2338,-2.231,-2.231,-2.231,-2.231,-2.231,0.0,0.0,-2.368,-2.3856,-2.3499,-2.3652,-2.3655,-2.2575,-2.231,-2.231,-2.231,-2.231,-2.231,0.0,-2.231,-2.2388,-2.266,0.0,-2.283,-2.3189,-2.3259,-2.3264,-2.3264,-2.2594,-2.1789,-2.1043,-2.0243,-1.9361,-1.8339,-1.7924,-1.7482,-1.685,-1.6083,-1.5564,-1.5304,-1.4962,-1.4521,-1.4026,-1.3477,0.0,0.0,0.0,0.0,0.0,0.0,0.0,0.0,0.0,0.0,0.0,0.0,0.0,0.0,0.0,0.0,0.0,0.0,0.0,0.0,0.0,0.0,0.0,0.0,0.0,0.0,0.0,0.0,-2.5657,-2.544,0.0,-2.5015,-2.4682,-2.4592,-2.485,-2.4752,-2.4678,-2.4678,-2.533,-2.576,-2.5916,-2.6495,-2.7125,-2.7835,-2.7339,-2.7345,-2.7905,-2.7313,-2.624,-2.4785,-2.5157,-2.4849,-2.4021,-2.3821,-2.3405,-2.2824,-2.261,-2.266,-2.2923,-2.3371,-2.3267,-2.2822,-2.2426,-2.236,-2.2426,-2.2321,-2.231,-2.231,-2.231,-2.231,-2.231,-2.231,-2.231,-2.2361,-2.2632,-2.2813,-2.288,-2.2728,-2.2796,-2.2811,-2.2406,-2.231,-2.231,-2.231,-2.231,-2.231,-2.231,-2.231,-2.2321,-2.2426,-2.2436,-2.2554,-2.2822,-2.2873,-2.2972,-2.3165,-2.2114,-2.121,-2.0926,-1.9612,-1.8627,-1.8225,-1.7743,-1.7256,-1.6841,-1.6028,-1.5344,-1.4805,-1.4454,-1.4175,-1.3986,-1.2741,-1.1743,0.0,0.0,0.0,0.0,0.0,0.0,0.0,0.0,0.0,0.0,0.0,0.0,0.0,0.0,0.0,0.0,0.0,0.0,0.0,0.0,0.0,0.0,0.0,0.0,0.0,0.0,-2.5572,-2.5683,-2.5547,-2.5362,-2.5213,-2.5061,-2.4936,-2.4864,-2.4697,-2.4559,-2.4512,-2.4801,-2.5079,-2.5293,-2.5742,-2.6241,-2.6766,-2.6506,-2.6618,-2.7046,-2.6479,-2.5491,-2.4202,-2.4288,-2.3914,-2.3165,-2.2738,-2.2463,-2.231,-2.231,-2.248,-2.2738,-2.3229,-2.3055,-2.2537,-2.2377,-2.231,-2.231,-2.231,-2.231,-2.2265,-2.2106,-2.2061,-2.2061,-2.2061,-2.2061,-2.2106,-2.2254,-2.231,-2.231,-2.231,-2.231,-2.231,-2.231,-2.231,-2.231,-2.231,-2.231,-2.231,-2.231,-2.231,-2.231,-2.231,-2.231,-2.236,-2.2537,-2.2563,-2.2565,-2.2534,-2.1406,-2.0498,-2.0258,-1.8931,-1.8018,-1.7915,-1.7422,-1.691,-1.6427,-1.583,-1.5224,-1.4577,-1.4034,-1.3847,-1.3935,-1.2202,-1.1066,-1.0673,0.0,0.0,0.0,0.0,0.0,0.0,0.0,0.0,0.0,0.0,0.0,0.0,0.0,0.0,0.0,0.0,0.0,0.0,0.0,0.0,0.0,0.0,0.0,-2.5685,-2.5642,-2.5633,-2.5683,-2.569,-2.5624,-2.5413,-2.5339,-2.5214,-2.5022,-2.4883,-2.4716,-2.4528,-2.4327,-2.4292,-2.4476,-2.4292,-2.4666,-2.5651,-2.5446,-2.5366,-2.5366,-2.5366,-2.4942,-2.417,-2.3522,-2.3189,-2.3183,-2.2544,-2.231,-2.231,-2.231,-2.231,-2.231,-2.231,-2.231,-2.231,-2.231,-2.231,-2.231,-2.231,-2.231,-2.2225,-2.1764,-2.1612,-2.1582,-2.1582,-2.1582,-2.1688,-2.2135,-2.2282,-2.2282,-2.2282,-2.2282,-2.231,-2.231,-2.231,-2.231,-2.231,-2.231,-2.2282,-2.2282,-2.2265,-2.2248,-2.2265,-2.2282,-2.2254,-2.2254,-2.2254,0.0,-2.1252,-2.0475,-1.9672,-1.8954,-1.8228,-1.7635,-1.732,-1.6977,-1.647,-1.5664,-1.5414,-1.5141,-1.4752,-1.3816,-1.3465,-1.3817,-1.1822,-1.0348,-0.9377,0.0,0.0,0.0,0.0,0.0,0.0,0.0,0.0,0.0,0.0,0.0,0.0,0.0,0.0,0.0,0.0,0.0,0.0,0.0,0.0,0.0,0.0,-2.552,-2.5625,-2.5643,-2.5683,-2.5703,-2.5709,-2.5648,-2.5488,-2.5379,-2.5224,-2.5022,-2.4883,-2.4775,-2.4716,-2.4538,-2.4439,-2.4495,-2.4301,-2.4321,-2.4598,-2.4559,-2.452,-2.452,-2.452,-2.441,-2.417,-2.3522,-2.3189,-2.3183,-2.2544,-2.231,-2.231,-2.231,-2.231,-2.231,-2.231,-2.231,-2.231,-2.231,-2.231,-2.231,-2.231,-2.231,-2.2282,-2.2135,-2.1899,-2.1582,-2.1582,-2.1399,-2.1181,-2.1323,-2.1584,-2.1794,-2.1794,-2.2032,-2.231,-2.231,-2.231,-2.231,-2.231,-2.231,-2.2209,-2.1869,-2.1392,-2.1209,-2.1711,-2.1554,-2.137,-2.137,-2.137,0.0,-2.0407,-1.9674,-1.8958,-1.8251,-1.7516,-1.7043,-1.6942,-1.6633,-1.6373,-1.6263,-1.5669,-1.5283,-1.526,-1.3961,-1.2838,-1.1955,-1.1216,-1.0348,0.0,0.0,0.0,0.0,0.0,0.0,0.0,0.0,0.0,0.0,0.0,0.0,0.0,0.0,0.0,0.0,0.0,0.0,0.0,0.0,0.0,0.0,-2.4706,-2.4801,-2.532,-2.5533,-2.5662,-2.5703,-2.5694,-2.5645,-2.5517,-2.5432,-2.5284,-2.5022,-2.4883,-2.4804,-2.4804,-2.4607,-2.4545,-2.4623,-2.4426,-2.4339,-2.4339,-2.4247,-2.419,-2.419,-2.419,-2.4132,-2.3976,-2.3437,-2.3117,0.0,-2.2508,-2.231,-2.231,-2.231,-2.231,0.0,0.0,0.0,0.0,0.0,-2.2135,-2.2254,-2.1886,-2.1886,-2.1945,-2.1568,-2.1275,-2.107,-2.107,-2.0878,-2.0764,-2.0926,-2.115,-2.1337,-2.1337,-2.1554,-2.1751,-2.1751,-2.1549,-2.1416,-2.1685,-2.133,-2.0908,-2.0923,0.0,0.0,-2.0199,-2.0203,-2.0156,-2.0156,-2.0156,-1.9915,-1.9209,-1.876,-1.8203,-1.7514,-1.7055,-1.6738,-1.6607,-1.6462,0.0,0.0,0.0,-1.5583,-1.531,-1.4357,0.0,0.0,0.0,0.0,0.0,0.0,0.0,0.0,-0.953,-1.0274,0.0,0.0,0.0,0.0,0.0,0.0,0.0,0.0,0.0,0.0,0.0,0.0,0.0,0.0,0.0,0.0,-2.3597,-2.3692,-2.4776,-2.5148,-2.5356,-2.5488,-2.5502,-2.5437,-2.5254,-2.5272,-2.5181,-2.4916,-2.4847,-2.4814,-2.4814,0.0,0.0,0.0,0.0,-2.4461,-2.4461,-2.4284,-2.419,-2.419,-2.419,-2.4016,-2.3692,-2.3346,-2.3021,-2.2695,-2.2426,-2.231,-2.231,-2.231,-2.2282,-2.2209,-2.2209,-2.2209,-2.218,-2.1688,-2.1794,0.0,0.0,0.0,0.0,-2.0634,-2.0348,-2.0314,-2.0314,-2.028,-2.0314,-2.0731,-2.0894,-2.091,-2.0847,-2.0847,-2.0863,-2.0798,-2.0302,-2.006,-2.0654,-1.9849,-1.9171,-1.9711,-1.898,-1.8283,-1.8222,-1.8584,-1.8863,-1.8863,-1.8863,-1.8578,-1.788,-1.7757,-1.7502,-1.6749,0.0,0.0,-1.6203,-1.6263,-1.6065,-1.536,-1.5951,-1.5906,-1.4995,-1.4776,-1.3928,-1.2207,-1.1323,-1.0568,-0.9909,-0.9263,-0.8857,-0.8857,-1.0167,-1.0813,0.0,0.0,0.0,0.0,0.0,0.0,0.0,0.0,0.0,0.0,0.0,0.0,0.0,0.0,0.0,-2.1854,-2.2426,-2.3069,-2.3712,-2.3636,-2.3712,-2.4257,-2.4336,-2.4135,-2.362,-2.3863,-2.4115,-2.4265,-2.47,-2.4962,-2.4962,-2.4682,0.0,-2.4561,-2.4357,-2.4266,-2.4266,-2.4209,-2.419,-2.419,0.0,0.0,-2.3692,-2.3346,-2.3021,-2.2695,-2.2426,-2.231,-2.231,-2.231,-2.2077,-2.1735,-2.1735,-2.1735,-2.1705,-2.1275,-2.115,-2.1229,-2.1071,-2.1055,-2.1086,-2.0926,-2.0616,-2.0314,-2.0314,-2.0054,0.0,-1.9909,-2.0208,-2.0325,-1.9842,-1.9941,-2.006,-1.9525,-1.9283,-1.9219,-1.9364,-1.9171,-1.894,-1.8746,-1.8124,-1.7465,-1.7106,-1.7545,-1.7941,-1.7941,-1.7941,-1.7713,-1.7015,-1.6924,-1.6682,-1.6059,-1.5983,-1.5797,-1.5359,-1.5356,-1.5407,-1.5468,-1.6096,-1.5948,-1.4789,-1.4699,-1.4064,-1.2782,-1.1984,-1.1266,-1.0618,-0.9909,-0.9316,-0.8857,-1.0167,-1.0813,0.0,0.0,0.0,0.0,0.0,0.0,0.0,0.0,0.0,0.0,0.0,-2.1022,-1.9776,0.0,-2.0009,-2.0487,-2.0886,-2.1552,-2.2684,-2.2194,-2.2062,-2.3027,-2.3652,-2.3767,-2.3161,-2.3003,-2.3095,-2.3475,-2.3649,-2.3782,-2.3887,-2.4056,-2.4148,-2.4148,-2.4385,-2.4444,-2.4339,-2.4266,-2.419,-2.419,-2.4016,-2.3774,-2.3437,-2.3093,-2.2789,-2.25,-2.2377,-2.231,-2.2282,-2.2049,-2.1794,-2.1552,-2.1134,-2.1102,-2.1244,-2.0813,-2.0797,-2.0942,-2.0499,-2.0465,-2.0632,-2.0398,-2.0208,-2.0,-2.0,-1.9874,-1.9615,-1.9286,-1.934,-1.9345,-1.869,-1.8715,-1.8749,-1.8439,-1.8081,-1.7926,-1.8268,-1.7846,-1.7415,-1.7517,-1.7043,-1.6527,-1.6278,-1.6335,-1.648,-1.6712,-1.6742,-1.6531,-1.5962,-1.5902,-1.5709,-1.5193,-1.5165,-1.5043,-1.4814,-1.4874,-1.4876,-1.479,-1.5101,-1.5018,-1.4417,-1.4059,-1.3722,-1.3372,-1.2021,-1.1116,-1.0813,-0.9814,-0.9113,-0.8804,-0.9814,-1.0312,0.0,0.0,0.0,0.0,0.0,0.0,0.0,0.0,-1.9894,-2.0618,-1.9777,-1.8654,-1.7688,-1.7524,-1.7891,-1.8972,-1.9363,-2.006,-2.1579,-2.1003,-2.0815,-2.1855,-2.2773,-2.3143,-2.266,-2.2153,-2.2095,-2.2636,-2.2546,-2.2571,-2.2728,-2.3187,-2.3455,-2.3455,-2.4096,-2.4382,-2.4221,-2.4211,-2.419,-2.4208,-2.3876,-2.3522,-2.3189,-2.2848,-2.2563,-2.2282,-2.2209,-2.2163,-2.2135,-2.1658,-2.143,-2.129,-2.0442,-2.0295,-2.0509,-2.0268,-2.0338,-2.0428,-1.9763,-1.9622,-1.9725,-1.9426,-1.9301,-1.9301,-1.9301,-1.9301,-1.9196,-1.8672,-1.8508,-1.8358,-1.7667,-1.7503,-1.7473,-1.7339,-1.6906,-1.6667,-1.7204,-1.6518,-1.5919,-1.6322,-1.5995,-1.5639,-1.5551,-1.5225,-1.5134,-1.561,-1.561,-1.5418,-1.5043,-1.4968,-1.4845,-1.4533,-1.4501,-1.447,-1.4406,-1.4498,-1.4407,-1.397,-1.4038,-1.4017,-1.3781,-1.316,-1.2969,-1.3293,-1.159,-1.0697,-1.0618,-0.951,-0.891,-0.8804,-0.9297,-0.96,-1.3635,-1.6708,-1.9056,-1.9636,-2.1282,-2.1755,0.0,0.0,-1.1152,-1.778,-1.4748,-1.1838,-1.4852,-1.5099,-1.5244,-1.6567,-1.8223,-1.9575,-2.0248,-2.0427,-2.0561,-2.0761,-2.0898,-2.0957,-2.0898,-2.0762,-2.1016,-2.1774,-2.2246,-2.2509,-2.252,-2.2322,-2.2197,-2.2197,-2.2841,-2.3198,-2.3162,-2.386,-2.419,-2.4208,-2.3876,-2.3522,-2.3189,-2.2848,-2.2563,-2.2282,-2.1869,-2.1688,-2.1658,-2.1244,-2.0813,-2.0387,-1.9745,-1.9265,-1.9004,-1.9572,-1.9406,-1.8944,-1.8841,-1.8452,-1.7972,-1.7939,-1.7906,-1.7906,-1.7906,-1.7906,-1.7891,-1.7817,-1.7802,-1.7652,-1.6995,-1.6816,-1.6682,-1.6129,-1.5963,-1.5933,-1.6008,-1.5903,-1.5698,-1.5356,-1.5208,-1.5074,-1.4721,-1.4596,-1.4721,-1.5134,-1.4876,-1.4627,-1.4564,-1.4564,-1.4564,-1.4501,-1.4501,-1.4374,-1.4,-1.4098,-1.3951,-1.344,-1.3847,-1.368,-1.2733,-1.2146,-1.1733,-1.148,-1.0824,-1.0253,-0.9909,-0.9762,-0.9361,-0.8798,-0.8639,-0.9003,-1.3775,-1.6395,0.0,0.0,-1.7946,-1.6722,-0.9361,-0.7163,-0.6737,-0.6977,-0.7876,-0.9114,-1.0733,-1.2824,-1.476,0.0,-1.7809,-1.9095,-1.9822,-2.0219,-2.0477,-2.0598,-2.0605,-2.0605,-2.0605,-2.0531,-2.063,-2.0912,-2.1114,-2.1218,-2.1225,-2.1537,-2.1606,-2.1432,-2.2185,-2.272,-2.3015,-2.3327,-2.3511,-2.3511,-2.2986,-2.246,-2.1843,-2.1347,-2.1071,-2.0948,-2.0545,-2.0388,-2.0332,-1.9714,-1.9358,-1.9137,-1.8617,-1.8152,-1.7831,-1.8331,-1.8223,-1.7768,-1.7768,-1.7442,-1.704,-1.7257,-1.7338,-1.7405,-1.7617,-1.7552,-1.725,-1.6884,-1.6605,-1.625,-1.5587,-1.543,-1.5358,-1.51,-1.5043,-1.5043,-1.5043,-1.5043,-1.4982,-1.4783,-1.4752,-1.469,-1.4533,-1.431,-1.4214,-1.4374,-1.447,-1.4406,-1.4181,-1.4149,-1.4052,-1.3769,-1.3488,-1.3272,-1.3113,-1.2878,-1.2524,-1.199,-1.2168,-1.193,-1.1143,-1.0889,-1.0655,-1.0464,-0.9831,-0.9438,-0.9294,-0.8869,-0.8627,-0.855,-0.843,-0.8677,-1.398,0.0,0.0,-1.5869,-1.5145,-1.2385,-0.3802,-0.3031,-0.3013,0.0884,-0.2016,-0.5788,-0.7613,-1.0897,-1.4046,-1.6158,-1.779,-1.9064,-1.98,-2.0216,-2.0471,-2.0568,-2.0561,-2.0585,-2.0605,-2.054,-2.048,-2.0432,-2.0342,-2.0302,-2.0299,-2.077,-2.0918,-2.0677,-2.1403,-2.1965,-2.2318,-2.2556,-2.2666,-2.2648,-2.2055,-2.1458,-2.0888,-2.0288,-1.9934,-1.984,-1.9481,-1.9274,-1.9135,-1.8361,-1.8036,-1.7989,-1.7329,-1.6928,-1.6666,-1.6772,-1.675,-1.6646,-1.6646,-1.6363,-1.6005,-1.6289,-1.6389,-1.6422,-1.6731,-1.6601,-1.6288,-1.5813,-1.5445,-1.5119,-1.4612,-1.4501,-1.4501,-1.4501,-1.4501,-1.4501,-1.4501,-1.4501,-1.447,-1.4374,-1.4342,-1.4278,-1.4149,-1.3901,-1.3669,-1.3522,-1.3776,-1.3875,-1.3735,-1.3702,-1.3547,-1.3047,-1.2685,-1.2437,-1.2318,-1.1993,-1.1579,-1.1019,-1.0857,-1.0537,-0.9967,-0.9644,-0.9486,-0.9457,-0.883,-0.856,-0.8609,-0.816,-0.8043,-0.825,-0.825,-0.841,0.0,0.0,-1.601,-1.6381,-1.457,-1.0945,-0.4187,-0.0972,0.089,0.1963,0.178,-0.0422,-0.6408,-0.9532,-1.2367,-1.5918,-1.8224,-1.9715,-2.0134,-2.0371,-2.0506,-2.0504,-2.0508,-2.0537,0.0,-2.054,-2.0508,-2.0506,-2.037,-2.0307,-2.0307,-2.0003,-1.9858,-1.9847,-2.0311,-2.0556,-2.0576,-2.14,-2.1839,-2.1822,-2.1229,-2.0926,-2.0888,-2.0288,-1.9814,-1.9491,-1.9079,-1.872,-1.8361,-1.7507,-1.7142,-1.7016,-1.5999,-1.5561,-1.5458,-1.4828,-1.4994,-1.5561,-1.5561,-1.5105,-1.4556,-1.4588,-1.4588,-1.4588,-1.4588,-1.4588,-1.4588,-1.456,-1.4529,-1.4529,-1.4501,-1.4501,-1.4501,-1.4501,-1.4501,-1.4501,-1.4501,-1.4501,-1.4374,-1.4,-1.3934,-1.3769,-1.3323,-1.3232,-1.3082,-1.2615,-1.2532,-1.272,-1.3163,-1.3232,-1.3047,-1.2579,-1.2508,-1.2318,-1.1847,-1.1811,-1.1579,-1.1019,-1.0494,-1.0001,-0.9536,-0.8537,-0.8085,-0.8364,-0.7839,-0.7674,-0.7929,-0.7929,-0.7888,-0.7895,-0.7895,-0.8103,-1.3799,0.0,-1.4562,-1.4002,-1.2618,-1.0137,-0.5323,-0.2477,-0.0428,0.1097,0.2528,0.127,-0.6029,-1.0645,-1.4323,-1.7217,-1.8951,-2.003,-2.0288,-2.0433,-2.0479,-2.0435,-2.1029,0.0,0.0,0.0,0.0,-2.051,-2.0467,-2.0383,-2.0294,-2.019,-2.003,-1.9802,-1.9945,-2.0187,-2.0484,-2.0794,-2.0874,-2.0734,-1.9686,-1.9052,-1.8839,-1.832,-1.8054,-1.8021,-1.7422,-1.6936,-1.6486,-1.5988,-1.5609,-1.5342,-1.4985,-1.4675,-1.4432,-1.4197,-1.4053,-1.4036,-1.4326,-1.4093,-1.3682,-1.4,-1.4084,-1.4149,-1.4406,-1.431,-1.4084,-1.4084,-1.3868,-1.3648,-1.3648,-1.3648,-1.3648,-1.3648,-1.3648,-1.3648,-1.3648,-1.335,-1.3097,-1.2982,-1.2691,-1.2387,-1.2295,-1.2282,-1.221,-1.2066,-1.2029,-1.2102,-1.2246,-1.2282,-1.221,-1.2066,-1.1726,-1.1431,-1.1282,-1.0992,-1.0572,-1.006,-0.9815,-0.9341,-0.848,-0.8077,-0.7756,-0.7425,-0.6916,-0.6662,-0.676,-0.647,-0.6401,-0.6665,-0.7229,-0.7658,-1.3445,-1.3644,-1.3377,-1.2586,-1.1734,-0.9976,-0.5782,-0.3788,-0.2086,0.0583,0.1793,0.0309,-0.6447,-1.096,-1.4772,-1.8046,-1.9502,-2.0293,-2.0508,-2.0467,-2.0389,-2.0371,-2.123,-2.1598,0.0,0.0,0.0,-2.0996,-2.0934,-2.0876,-2.0768,-2.0416,-2.0111,-1.988,-1.9786,-1.9873,-2.0172,-2.011,-1.9913,-1.9632,-1.8693,-1.8104,-1.7776,-1.7358,-1.7101,-1.6942,-1.632,-1.5807,-1.5374,-1.4892,-1.4533,-1.4278,-1.4084,-1.3789,-1.3387,-1.3387,-1.3091,-1.2791,-1.3446,-1.3459,-1.3267,-1.3547,-1.3535,-1.3488,-1.3921,-1.3722,-1.3421,-1.3602,-1.3425,-1.3198,-1.3198,-1.3198,-1.3198,-1.3198,-1.3082,-1.2943,-1.2943,-1.2558,-1.2207,-1.2259,-1.1978,-1.1757,-1.1791,-1.1627,-1.1468,-1.1271,-1.1244,-1.1404,-1.1737,-1.1811,-1.1737,-1.1542,-1.1046,-1.0657,-1.0475,-1.0021,-0.9597,-0.9239,-0.9039,-0.8635,-0.7919,-0.7704,-0.7321,-0.6725,-0.6392,-0.6093,-0.5873,-0.5625,-0.5624,-0.5816,-0.6568,-0.7006,-1.3287,-1.3134,-1.2467,-1.2174,-1.1795,-1.0333,-0.5786,-0.4883,-0.3846,0.0245,-0.0236,-0.2808,0.0,0.0,-1.3582,-1.8146,-1.9656,-2.0339,-2.0639,-2.0395,-2.0202,0.0,0.0,0.0,0.0,0.0,0.0,-2.1837,0.0,-2.168,-2.1612,-2.0662,-2.0068,-2.0003,-1.975,-1.9614,-1.9614,-1.938,-1.9031,-1.8566,-1.8273,-1.8012,-1.7771,-1.7403,-1.6901,-1.6332,-1.5792,-1.536,-1.4968,-1.4214,-1.3901,-1.3835,-1.3357,-1.2908,-1.2508,-1.2473,-1.2174,-1.192,-1.2838,-1.3129,-1.3129,-1.3129,-1.2838,-1.2544,-1.2978,-1.2838,-1.2544,-1.3012,-1.3104,-1.3079,-1.3079,-1.3079,-1.3079,-1.3079,-1.2743,-1.2425,-1.2425,-1.2043,-1.1656,-1.1689,-1.1653,-1.1653,-1.1653,-1.1207,-1.0695,-1.0215,-1.0176,-1.0582,-1.1553,-1.17,-1.1468,-1.0933,-1.0417,-0.9953,-0.9518,-0.8999,-0.8675,-0.8635,-0.8152,-0.7829,-0.7787,-0.7231,-0.6683,-0.6179,-0.6136,-0.583,-0.526,-0.5365,-0.5431,-0.5441,-0.5957,-0.6154,-1.2122,-1.1934,-1.1601,-1.0838,-1.0488,-0.9941,-0.8486,-0.7364,-0.5907,-0.3445,-0.2754,-0.354,0.0,0.0,0.0,-1.5384,-1.7152,0.0,-1.8785,-1.9557,0.0,-1.9948,0.0,-2.1062,-2.043,-2.1822,0.0,0.0,-2.1671,-2.1749,-2.168,-2.0812,-2.0249,-2.0076,-1.9852,-1.9707,-1.9596,-1.9064,-1.8605,-1.829,-1.7676,-1.7389,-1.7403,-1.6578,-1.6045,-1.5792,-1.5389,-1.4847,-1.4181,-1.4,-1.3682,-1.3323,-1.2861,-1.2615,-1.2473,-1.2102,-1.1884,-1.1811,-1.2066,-1.2138,-1.2138,-1.2138,-1.2066,-1.1993,-1.2102,-1.2066,-1.1993,-1.2102,-1.1896,-1.1641,-1.1641,-1.1641,-1.1641,-1.1641,-1.146,-1.1291,-1.1291,-1.0599,-0.9943,-1.0012,-0.9709,-0.9491,-0.9491,-0.9381,-0.9222,-0.9102,-0.911,-0.935,-1.0011,-1.0089,-0.9894,-0.9341,-0.9182,-0.903,-0.8918,-0.8797,-0.8341,-0.7495,-0.7287,-0.6833,-0.5984,-0.5819,-0.5653,-0.5524,-0.5087,-0.4778,-0.4652,-0.4439,-0.4398,-0.4405,-0.5301,-0.5685,-1.1551,-1.1205,-1.0803,-1.0232,-0.9752,-0.9456,-0.9593,-0.7485,-0.4918,-0.2929,-0.1175,0.0,0.0,0.0,0.0,0.0,0.0,0.0,-1.744,-1.8228,-1.8836,0.0,-2.0074,0.0,-2.012,-2.1476,-2.2193,0.0,-2.1694,-2.1705,-2.165,-2.0829,-2.0297,-2.0192,-1.9993,-1.9809,-1.9596,-1.8947,-1.8528,-1.8371,-1.758,-1.7101,-1.6872,-1.5827,-1.5179,-1.476,0.0,-1.3341,-1.2901,-1.2738,-1.2516,-1.2291,-1.2236,-1.1898,-1.1472,-1.1185,-1.0799,-1.0456,-1.0456,-1.0456,-1.057,-1.1505,-1.1627,-1.1431,-1.1398,-1.142,-1.1383,-1.1127,-1.0931,-1.0783,-1.0554,-1.0392,-1.0284,-1.0134,-0.9896,-0.963,-0.9503,-0.8791,-0.8156,-0.8187,-0.8016,-0.7767,-0.7575,-0.7762,-0.7844,-0.7597,-0.7762,-0.7919,-0.8,-0.8456,-0.8634,-0.8358,-0.7859,-0.7563,-0.7563,-0.7363,-0.6945,-0.6277,-0.6277,-0.5979,-0.5346,-0.5303,-0.5173,-0.4913,-0.4661,-0.436,-0.4052,-0.3972,-0.3976,-0.4086,-0.4748,-0.5054,-1.1103,-1.0664,-1.0133,-1.0005,-0.9444,-0.8984,-0.9158,-0.5955,-0.2276,0.0066,0.0,0.3584,-0.0401,-0.2033,-0.4638,-1.0336,0.0,-1.4481,-1.5894,-1.6533,-1.7153,-1.796,-1.8913,-1.9571,-1.984,-2.0834,-2.147,-2.1518,-2.1213,-2.1191,-2.1549,-2.0664,-2.0127,-2.0102,-1.9912,-1.9703,-1.9509,-1.8894,-1.8494,-1.8274,-1.744,-1.6686,-1.6019,-1.4988,-1.4158,-1.3459,0.0,0.0,-1.1495,-1.1166,-1.0978,-1.1034,-1.1344,-1.0912,-1.0099,-1.0021,-0.9415,-0.8641,-0.8561,-0.8552,-0.8833,-1.074,-1.1084,-1.0695,-1.0616,-1.0634,-1.0527,-0.9925,-0.9873,-0.9856,-0.9316,-0.8999,-0.8781,-0.8593,-0.8222,-0.7843,-0.7645,-0.6816,-0.6117,-0.6065,-0.6071,-0.6012,-0.5803,-0.6127,-0.6331,-0.5987,-0.6307,-0.6475,-0.6126,-0.6961,-0.7541,-0.7459,-0.6626,-0.6089,-0.6089,-0.5599,-0.5313,-0.5318,-0.5318,-0.5231,-0.5096,-0.5091,-0.4831,-0.4308,-0.446,-0.4156,-0.3357,-0.3525,-0.3817,-0.42,-0.4421,-0.4505,-0.9704,-0.9925,-0.9863,-0.9458,-0.9494,-0.8919,-0.6226,-0.3254,0.0,0.0,0.662,0.7882,0.4079,0.096,-0.2215,-0.5807,0.0,0.0,0.0,0.0,-1.5583,0.0,0.0,0.0,0.0,0.0,0.0,0.0,0.0,0.0,-2.1328,-2.0087,-1.9224,-1.9076,-1.8869,-1.8815,-1.8937,-1.8699,-1.7962,-1.6701,-1.5983,-1.5155,-1.4227,-1.3496,-1.2733,-1.2063,0.0,0.0,-1.068,-1.0507,-1.0449,-1.0386,-0.9991,-0.969,-0.9503,-0.9093,-0.8675,-0.8221,-0.7911,-0.771,-0.7804,-0.887,-0.9182,-0.911,-0.9102,-0.8876,-0.8587,-0.8155,-0.7632,-0.7081,-0.6594,-0.6439,-0.654,-0.7085,-0.7095,-0.6952,-0.704,-0.4931,-0.302,-0.2851,-0.2829,-0.3042,-0.382,-0.4022,-0.4289,-0.4847,-0.5019,-0.5293,-0.5869,-0.6198,-0.6204,-0.576,-0.5847,-0.5918,-0.5918,-0.5566,-0.5315,-0.5296,-0.5301,-0.4891,-0.3943,-0.3899,-0.3854,-0.3721,-0.3769,-0.3226,-0.2097,-0.2156,-0.2786,-0.4056,-0.433,-0.448,-0.7372,-0.8279,-0.9007,-0.9154,-0.8268,-0.6654,-0.3993,0.0,0.0,0.0,0.8963,0.9183,0.6539,0.0,0.0,0.0,0.0,0.0,0.0,0.0,0.0,0.0,0.0,0.0,0.0,0.0,0.0,0.0,0.0,0.0,-1.9772,-1.8994,-1.8397,-1.8239,-1.8026,-1.7952,-1.8014,-1.7908,-1.7269,-1.6078,-1.4812,-1.4301,-1.4427,-1.2602,-1.161,-1.1327,-1.0346,0.0,-0.9043,-0.9013,-0.8784,-0.8406,-0.8371,-0.8071,-0.7669,-0.7335,-0.6946,-0.6586,-0.6567,-0.6494,-0.6527,-0.6841,-0.7266,-0.7598,-0.7238,-0.7228,-0.7212,-0.6687,-0.6442,-0.5949,-0.4393,-0.3626,-0.3295,-0.3372,-0.3057,-0.2816,-0.306,-0.1869,-0.0728,-0.0547,-0.0683,-0.0913,-0.1168,-0.1489,-0.1804,-0.2203,-0.2247,-0.2381,-0.278,-0.2895,-0.3554,-0.5125,-0.4176,-0.3548,-0.3737,-0.3419,-0.3246,-0.3442,-0.349,-0.322,-0.2684,-0.264,-0.264,-0.264,-0.328,-0.3331,-0.2737,-0.1492,-0.1212,-0.1917,-0.2873,-0.3302,-0.4843,-0.5984,-0.6991,-0.7612,-0.5955,-0.3637,-0.1575,0.1843,0.0,0.0,0.9888,0.889,0.7936,0.0,0.3337,0.0,0.0,0.0,0.0,0.0,0.0,0.0,0.0,0.0,0.0,0.0,0.0,0.0,0.0,0.0,-1.788,-1.7665,-1.7461,-1.7413,-1.7247,-1.7157,-1.7165,-1.6959,-1.6412,-1.5531,-1.369,-1.3134,-1.3705,-1.1322,-1.018,-1.0,-0.8528,0.0,0.0,-0.7358,-0.7087,-0.6687,-0.6883,-0.6514,-0.5867,-0.5363,-0.4906,-0.4528,-0.4587,-0.4596,-0.4552,-0.4274,-0.5152,-0.6155,-0.5254,-0.5274,-0.548,-0.4819,-0.4719,-0.4322,-0.2221,-0.1,-0.0162,0.0441,0.135,0.2042,0.1848,0.1863,0.1966,0.1965,0.168,0.1542,0.1904,0.1447,0.1014,0.0967,0.0967,0.0923,0.0747,0.0745,-0.0131,-0.2454,-0.1632,-0.1021,-0.1157,-0.0799,-0.071,-0.1025,-0.1025,-0.1025,-0.1025,-0.1025,-0.1025,-0.1025,-0.1969,-0.2424,-0.2424,-0.0786,-0.0,-0.0,-0.0517,-0.075,-0.2548,-0.2919,-0.2796,-0.3061,-0.2143,-0.0558,0.187,0.0,0.0,1.0456,0.8744,0.7172,0.8365,0.5495,0.0,0.0,0.0,-0.2768,0.0,0.0,0.0,0.0,0.0,0.0,0.0,0.0,0.0,0.0,0.0,0.0,0.0,-1.615,-1.6285,-1.6502,-1.6389,-1.6437,-1.6753,-1.6074,-1.532,-1.4406,-1.2444,-1.0794,-0.9546,-0.8778,-0.7858,-0.6819,0.0,0.0,0.0,-0.6027,-0.6186,-0.6447,-0.5745,-0.5433,-0.5165,-0.3505,-0.2756,-0.2442,-0.1759,-0.144,-0.1255,-0.0688,-0.2569,-0.4773,-0.3093,-0.2652,-0.2522,-0.1746,-0.1061,-0.0425,0.0164,0.0975,0.1888,0.2849,0.4561,0.6032,0.6241,0.6321,0.6131,0.5576,0.5397,0.5359,0.5334,0.4746,0.4262,0.417,0.4162,0.3894,0.3187,0.3068,0.378,0.5576,0.2266,0.0177,0.0887,0.129,0.1515,0.1471,0.1471,0.1471,0.1471,0.1471,0.1471,0.1471,0.1337,0.1293,0.1293,0.0448,-0.0,0.005,0.2647,0.3875,0.0991,0.0133,-0.0065,0.1308,0.1815,0.2862,0.6337,0.0,0.8559,1.0584,0.8504,0.6613,0.7619,0.4697,0.1678,0.0,0.0,0.0,0.0,0.0,0.0,0.0,0.0,0.0,0.0,0.0,0.0,0.0,0.0,0.0,0.0,-1.4478,-1.522,-1.5613,-1.5489,-1.5408,-1.5442,-1.4071,-1.3195,-1.2816,-0.9955,-0.8905,-0.9422,-0.8004,-0.5875,-0.3368,0.0,0.0,0.0,-0.3477,-0.3331,-0.3106,-0.2776,-0.2515,-0.2266,-0.1451,-0.094,-0.0531,0.0356,0.0676,0.092,0.2029,0.1835,0.0961,-0.0211,-0.034,0.0033,0.0899,0.1336,0.1975,0.3862,0.4618,0.5137,0.6011,0.6698,0.7224,0.7408,0.749,0.7611,0.7735,0.7338,0.7197,0.7797,0.712,0.6572,0.6834,0.6909,0.6667,0.5997,0.6196,0.6653,0.7243,0.5867,0.4539,0.3727,0.3594,0.3651,0.3873,0.3917,0.3917,0.3917,0.3917,0.3917,0.3917,0.3917,0.3561,0.2896,0.2404,0.1861,0.1359,0.2576,0.3101,0.4406,0.3487,0.3197,0.5092,0.5494,0.6207,0.0,0.9366,0.9343,1.0979,0.8594,0.6366,0.69,0.3862,0.089,0.0,0.0,-0.1599,0.0,0.0,0.0,0.0,0.0,0.0,0.0,0.0,0.0,0.0,0.0,0.0,0.0,-1.2622,-1.38,-1.4684,-1.482,-1.4582,-1.3969,-1.2907,-1.2069,-1.1446,-0.7929,-0.6353,-0.6481,-0.5575,-0.353,-0.0745,0.0,0.0,0.0,-0.0802,-0.0132,0.0899,0.0899,0.0886,0.095,0.1443,0.1698,0.1905,0.2571,0.2809,0.2973,0.402,0.4796,0.4967,0.2938,0.2599,0.3011,0.3393,0.376,0.4599,0.7125,0.7812,0.807,0.8962,0.8855,0.8645,0.9056,0.9085,0.9184,0.9808,0.9469,0.9276,1.0038,0.9232,0.8677,0.9142,0.9078,0.8794,0.8406,0.8913,0.9143,0.8757,0.9,0.835,0.6199,0.5466,0.5242,0.5539,0.5545,0.5545,0.5545,0.5545,0.5545,0.5545,0.5376,0.4893,0.4085,0.3997,0.3527,0.2711,0.3266,0.3422,0.735,0.7255,0.748,0.811,0.8755,0.9349,0.0,1.0155,1.0772,1.1881,0.8954,0.6271,0.6472,0.2956,-0.0334,-0.1427,0.0,0.0,0.0,0.0,0.0,0.0,0.0,0.0,0.0,0.0,0.0,0.0,0.0,0.0,0.0,-1.0599,-1.1897,-1.3755,-1.4461,-1.4061,-1.2549,-1.3165,-1.2487,-1.0455,-0.6781,-0.285,0.114,-0.0593,-0.0601,0.0,0.0,0.0,0.0,0.1763,0.3086,0.5139,0.5139,0.464,0.4114,0.546,0.5614,0.5164,0.5168,0.5173,0.5173,0.5179,0.5425,0.5763,0.6201,0.6532,0.6598,0.5876,0.6474,0.7756,0.9583,1.0057,1.0342,1.1398,1.1199,1.1066,1.2119,1.1837,1.1505,1.2077,1.2164,1.2164,1.2164,1.116,1.0553,1.1077,1.0619,1.0162,1.0162,1.0858,1.1384,1.135,1.1615,1.0641,0.791,0.67,0.6072,0.6077,0.6077,0.6077,0.6077,0.6077,0.6077,0.6077,0.5551,0.5303,0.526,0.4865,0.4389,0.39,0.5731,0.6257,0.8678,0.8896,0.9428,1.0777,1.1224,1.1487,1.2007,1.1645,1.1455,1.2505,0.8725,0.5339,0.5699,0.1984,-0.1583,-0.2987,0.0,0.0,0.0,0.0,0.0,0.0,0.0,0.0,0.0,0.0,0.0,0.0,0.0,0.0,0.0,-0.7457,-0.9157,-1.2742,-1.0425,-0.927,-0.9564,-0.5956,-0.4326,-0.4647,-0.2127,-0.0446,0.0435,0.1076,0.0,0.0,0.0,0.0,0.0,0.463,0.4921,0.5538,0.5538,0.5394,0.5219,0.5647,0.6036,0.6359,0.6402,0.6627,0.6881,0.7099,0.7434,0.782,0.8197,0.7997,0.7738,0.8334,0.9427,1.0547,1.1096,1.1969,1.2758,1.3084,1.302,1.3055,1.3516,1.3458,1.3381,1.3707,1.3123,1.2705,1.3017,1.2139,1.1534,1.201,1.2294,1.2324,1.1961,1.2626,1.296,1.2532,1.2358,1.1487,0.9557,0.9094,0.8593,0.79,0.7859,0.7859,0.7859,0.7859,0.8006,0.8268,0.7483,0.7179,0.7428,0.6275,0.558,0.5336,0.6042,0.6172,0.9827,1.0252,1.0793,1.2497,1.2826,1.2863,1.3419,1.2939,1.2174,1.1459,0.785,0.4508,0.3375,-0.0037,-0.307,-0.4369,-0.4108,0.0,0.0,0.0,0.0,0.0,0.0,0.0,0.0,0.0,0.0,0.0,0.0,0.0,0.0,0.0,-0.6038,-0.8701,-0.6822,-0.5729,-0.5629,-0.1685,0.0113,-0.023,0.2002,0.288,0.252,0.3341,0.0,0.0,0.0,0.0,0.0,0.6798,0.6919,0.6996,0.6879,0.6908,0.7025,0.7053,0.7367,0.7789,0.7994,0.8301,0.8621,0.8828,0.9221,0.9704,1.0238,0.9739,0.9286,1.0563,1.1627,1.2485,1.3144,1.3953,1.4669,1.4875,1.4785,1.472,1.5103,1.4896,1.4735,1.5125,1.4294,1.3637,1.3955,1.2983,1.2291,1.2585,1.2753,1.2782,1.2535,1.3,1.3192,1.2696,1.2709,1.2234,1.0912,1.0446,0.9943,0.9293,0.911,0.8999,0.8999,0.8999,0.917,0.9581,0.882,0.8621,0.8956,0.7548,0.6754,0.656,0.6557,0.669,0.0,1.1235,1.1686,1.3405,1.3655,1.3607,1.4036,1.3853,0.0,0.9211,0.6431,0.3572,0.0065,-0.2692,-0.4706,-0.5475,0.0,0.0,0.0,0.0,0.0,0.0,0.0,0.0,0.0,0.0,0.0,0.0,0.0,0.0,0.0,0.0,-0.2544,-0.2328,-0.3294,-0.2927,-0.1099,0.044,0.1797,0.3014,0.5437,0.6603,0.6586,0.598,0.0,0.0,0.0,0.0,0.0,0.8294,0.8902,0.9245,0.8939,0.9007,0.9283,0.9341,0.9357,0.94,0.9793,1.0079,1.0307,1.0331,1.0741,1.138,1.2191,1.1676,1.1093,1.2449,1.3087,1.3731,1.5326,1.5846,1.6088,1.6706,1.6329,1.604,1.6616,1.5965,1.5412,1.5995,1.5327,1.4621,1.4594,1.3521,1.2656,1.2679,1.2179,1.1925,1.2248,1.2414,1.2468,1.2259,1.2814,1.2826,1.192,1.0912,1.0292,1.0253,0.9815,0.9558,0.9558,0.9558,0.9758,1.0218,0.9718,0.9613,0.9835,0.8629,0.79,0.7674,0.7468,0.775,0.9465,0.0,1.2323,1.3816,1.4294,1.4414,0.0,1.3056,1.1113,0.8948,0.0,0.1389,-0.0859,-0.3263,-0.5319,0.0,0.0,0.0,0.0,0.0,0.0,0.0,0.0,0.0,0.0,0.0,0.0,0.0,0.0,0.0,0.0,0.0,0.1203,0.2224,0.3318,0.3318,0.2134,0.6079,0.7652,0.6813,0.727,0.7244,0.676,0.6645,0.0,0.0,0.0,0.0,0.9263,0.9182,0.95,1.0032,0.9944,0.997,1.0032,1.007,1.039,1.0815,1.0912,1.109,1.1315,1.1583,1.204,1.2504,1.2722,1.2412,1.2164,1.2904,1.3999,1.4981,1.5152,1.626,1.7309,1.7215,1.6828,1.6475,1.6347,1.5549,1.4735,1.4384,1.3534,1.2831,1.2616,1.1901,1.1414,1.1618,1.178,1.2124,1.2868,1.2939,1.3046,1.3448,1.3302,1.2978,1.2389,1.1799,1.1234,1.0857,1.038,1.0118,1.0118,1.0118,1.0474,1.1214,1.1137,1.0547,0.9466,0.945,0.9322,0.9164,0.9156,0.939,0.8145,1.0474,1.2673,1.4222,1.4821,1.4967,1.4774,1.2609,0.9712,0.0,0.0,-0.0387,-0.3548,-0.5275,0.0,0.0,0.0,0.0,0.0,0.0,0.0,0.0,0.0,0.0,0.0,0.0,0.0,0.0,0.0,0.0,0.0,0.0,0.3387,0.476,0.6299,0.6608,0.5597,0.8549,0.9547,0.8568,0.8425,0.8048,0.7475,0.7459,0.0,0.0,0.0,0.0,0.9423,0.9586,1.0073,1.0706,1.0662,1.0921,1.1344,1.1173,1.1454,1.1906,1.1984,1.2191,1.2425,1.2704,1.2971,1.3261,1.3438,1.3308,1.3194,1.3735,1.4503,1.5202,1.537,1.6113,1.6737,1.6569,1.6268,1.6046,1.6159,1.519,1.434,1.4532,1.3098,1.1873,1.1979,1.1105,1.0503,1.0804,1.102,1.1433,1.2181,1.2436,1.2646,1.2875,1.3069,1.3012,1.2544,1.2258,1.1799,1.1057,1.0764,1.0505,1.0322,1.0283,1.0626,1.1292,1.1498,1.0941,0.9674,0.9887,0.9734,0.9253,0.9682,1.0002,0.6686,0.9333,1.2016,1.4069,1.4635,1.4691,1.4665,0.0,0.0,0.0,0.0,0.0,0.0,-0.7376,0.0,0.0,0.0,0.0,0.0,0.0,0.0,0.0,0.0,0.0,0.0,0.0,0.0,0.0,0.0,0.0,0.0,0.0,0.0,0.606,0.72,0.8033,0.8493,0.9228,0.9477,0.9222,0.9109,0.8832,0.842,0.8252,0.8098,0.0,0.0,0.0,0.8954,0.968,1.0492,1.1231,1.1122,1.1693,1.2572,1.2273,1.2388,1.2706,1.2932,1.316,1.3378,1.3586,1.3678,1.3736,1.4051,1.4083,1.4066,1.4476,1.469,1.4934,1.5574,1.5714,1.5704,1.5704,1.54,1.5288,1.5886,1.4758,1.389,1.4794,1.2981,1.1402,1.1702,1.0689,0.9919,1.0258,1.0258,1.0545,1.1335,1.1725,1.1946,1.2037,1.2741,1.3012,1.2544,1.2579,1.2162,1.1084,1.1019,1.0791,1.0322,1.0342,1.0547,1.0898,1.127,1.1056,1.0224,1.0169,0.9775,0.9178,0.9897,1.0297,0.506,0.6512,0.8311,1.1779,1.2015,1.1793,1.3237,0.0,0.0,0.0,0.0,0.0,0.0,0.0,0.0,0.0,0.0,0.0,0.0,0.0,0.0,0.0,0.0,0.0,0.0,0.0,0.0,0.0,0.0,0.0,0.0,0.0,0.0,0.6561,0.7373,0.8184,0.8975,0.939,0.966,0.9765,0.9416,0.9153,0.8972,0.8716,0.8563,0.0,0.0,0.8785,0.9324,0.9449,1.0271,1.146,1.1426,1.191,1.2591,1.2537,1.2706,1.298,1.3361,1.3522,1.3601,1.378,1.3969,1.4096,1.3983,1.4162,1.4356,1.4097,1.4405,1.483,1.4951,1.5542,1.6099,1.6099,1.5424,1.484,1.5133,1.3922,1.2658,1.2279,1.1682,1.1004,1.0365,1.0045,0.9995,1.0322,1.0135,1.056,1.2239,1.2,1.2137,1.3422,1.3327,1.3012,1.2544,1.2873,1.2496,1.1094,1.1019,1.0791,1.0322,1.0625,1.084,1.0908,1.0977,1.0935,1.0784,1.0427,1.0591,1.1133,1.0878,1.118,0.3606,0.4562,0.5478,0.6662,0.7365,0.8042,0.9283,0.5631,0.0,0.0,0.0,0.0,0.0,0.0,0.0,0.0,0.0,0.0,0.0,0.0,0.0,0.0,0.0,0.0,0.0,0.0,0.0,0.0,0.0,0.0,0.0,0.0,0.0,0.0,0.787,0.853,0.9251,0.9557,0.9779,0.9891,0.9686,0.9519,0.9422,0.918,0.9064,0.9019,0.0,0.8796,0.9084,0.9039,0.9632,1.0621,1.1089,1.1761,1.2487,1.2884,1.3158,1.3345,1.3445,1.3619,1.3751,1.3736,1.3867,1.4024,1.3927,1.3955,1.3983,1.378,1.4016,1.4267,1.4058,1.4232,1.4398,1.4063,1.3769,1.3705,1.4187,1.3432,1.2818,1.3375,1.2553,1.1774,1.1659,1.1219,1.1012,1.1375,1.1309,1.1561,1.2623,1.274,1.2921,1.3377,1.3703,1.3635,1.2943,1.331,1.2963,1.1505,1.0905,1.0505,1.0322,1.0724,1.0943,1.0943,1.1217,1.1383,1.1372,1.0905,1.0901,1.1257,1.1012,1.1123,0.2329,0.2756,0.2716,0.1526,0.0,0.4098,0.3903,0.0496,0.0,0.0,0.0,0.0,0.0,0.0,0.0,0.0,0.0,0.0,0.0,0.0,0.0,0.0,0.0,0.0,0.0,0.0,0.0,0.0,0.0,0.0,0.0,0.0,0.0,0.0,0.8195,0.8712,0.9314,0.9585,0.9774,0.9904,0.9872,0.9822,0.9737,0.9587,0.9495,0.9426,0.9089,0.8921,0.8874,0.8824,0.9322,1.0161,1.0835,1.1688,1.2618,1.3193,1.3477,1.3601,1.3543,1.3728,1.3955,1.3856,1.3867,1.3969,1.3896,1.378,1.3646,1.3588,1.3693,1.3754,1.3328,1.3132,1.2925,1.2463,1.2621,1.3055,1.3668,1.3394,1.3375,1.4539,1.3624,1.2699,1.2982,1.2428,1.2051,1.2359,1.2429,1.2581,1.3108,1.3473,1.3645,1.3513,1.4024,1.4019,1.3267,1.3535,1.3191,1.2029,1.1142,1.0659,1.0659,1.0992,1.1207,1.1207,1.1579,1.1811,1.1811,1.1394,1.1223,1.1329,1.1044,1.1055,0.124,0.0758,-0.0345,-0.2159,-0.0791,0.0,-0.2914,-0.4952,0.0,-0.8717,0.0,0.0,0.0,0.0,0.0,0.0,0.0,0.0,0.0,0.0,0.0,0.0,0.0,0.0,0.0,0.0,0.0,0.0,0.0,0.0,0.0,0.0,0.0,0.0,0.0,0.8448,0.9119,0.9323,0.9597,0.9894,1.0025,1.0018,0.9893,0.9873,0.9757,0.9576,0.9418,0.9259,0.9078,0.9068,0.9846,1.1014,1.1079,1.2024,1.3328,1.3379,1.3477,1.3632,1.3813,1.3997,1.4201,1.4375,1.4307,1.4149,1.3955,1.3899,1.3813,1.3494,1.3509,1.3539,1.3123,1.3087,1.3177,1.3133,1.3418,1.3797,1.4037,1.4041,1.397,1.3822,1.3678,1.3442,1.2914,1.2761,1.2719,1.276,1.276,1.3108,1.4068,1.3898,1.402,1.487,1.4347,1.3735,1.3232,1.3179,1.2948,1.2496,1.1957,1.17,1.17,1.1737,1.1737,1.1737,1.1774,1.1811,1.1811,1.1774,1.1923,1.2268,1.1393,1.1446,0.0057,-0.0821,-0.2123,-0.3604,-0.3673,0.0,0.0,-0.9142,-1.0298,-1.0999,-1.0079,0.0,0.0,0.0,0.0,0.0,0.0,0.0,0.0,0.0,0.0,0.0,0.0,0.0,0.0,0.0,0.0,0.0,0.0,0.0,0.0,0.0,0.0,0.0,0.0,0.8457,0.8906,0.9193,0.9417,0.9592,0.9902,1.0047,1.0097,1.0034,0.9955,0.9839,0.9613,0.9478,0.9403,0.9189,0.9668,1.0621,1.1497,1.2466,1.3413,1.3493,1.3556,1.3615,1.3824,1.4024,1.4188,1.4149,1.4083,1.3983,1.3766,1.3665,1.3559,1.3446,1.3329,1.3192,1.3033,1.3027,1.2931,1.2387,1.2773,1.3353,1.3812,1.4307,1.4845,1.5518,1.5637,1.5545,1.5338,1.5121,1.4974,1.4974,1.4796,1.4802,1.5181,1.5095,1.5023,1.5075,1.4596,1.431,1.4374,1.4122,1.3782,1.3387,1.2378,1.1811,1.1811,1.2066,1.2246,1.2246,1.2508,1.2685,1.2685,1.2401,1.2303,1.2452,1.1815,1.1678,-0.0968,-0.1946,-0.3199,0.0,0.0,0.0,-0.9269,-1.0401,-1.0976,-1.1732,-1.0364,0.0,0.0,0.0,0.0,0.0,0.0,0.0,0.0,0.0,0.0,0.0,0.0,0.0,0.0,0.0,0.0,0.0,0.0,0.0,0.0,0.0,0.0,0.0,0.0,0.8473,0.8767,0.9071,0.9285,0.9376,0.9662,0.9917,1.0132,1.0117,1.0073,1.0022,0.9805,0.9681,0.9599,0.9323,0.9743,1.0712,1.1943,1.289,1.3575,1.3663,1.3721,1.3795,1.3955,1.4136,1.427,1.4136,1.3997,1.3867,1.3754,1.3557,1.3396,1.3396,1.3277,1.3121,1.3121,1.2997,1.2789,1.2432,1.291,1.3636,1.4285,1.5024,1.5816,1.6626,1.6789,1.6789,1.6789,1.6607,1.6421,1.6328,1.6108,1.5926,1.5799,1.5799,1.561,1.5165,1.4982,1.4907,1.4907,1.4783,1.4533,1.4117,1.3191,1.2543,1.2246,1.2544,1.2791,1.2941,1.3242,1.3493,1.3615,1.316,1.2941,1.2941,1.2318,1.2102,-0.1713,-0.2549,0.0,0.0,0.0,0.0,-0.8298,-0.8383,-0.8542,-1.1455,0.0,0.0,0.0,0.0,0.0,0.0,0.0,0.0,0.0,0.0,0.0,0.0,0.0,0.0,0.0,0.0,0.0,0.0,0.0,0.0,0.0,0.0,0.0,0.0,0.0,0.0,0.8693,0.8968,0.9159,0.9285,0.9367,0.9618,0.9995,1.0073,1.0108,1.0096,1.0028,0.9897,0.9682,0.949,1.0184,1.1481,1.2341,1.3182,1.3881,1.3878,1.4006,1.4201,1.4183,1.4332,1.4499,1.4499,1.4245,1.3913,1.3913,1.3682,1.3396,1.3396,1.3396,1.3396,1.3396,1.2998,1.2787,1.3512,1.4213,1.4902,1.5638,1.6312,1.6799,1.6815,1.6815,1.6815,1.6815,1.6815,1.6686,1.6355,1.6285,1.6163,1.5856,1.5799,1.561,1.5165,1.5551,1.5448,1.4596,1.4876,1.4937,1.4533,1.4501,1.4117,1.3232,1.3198,1.3425,1.3901,1.3901,1.4084,1.4501,1.4084,1.3901,1.3888,1.2941,1.2768,-0.2325,0.0,0.0,-0.4614,0.0,0.0,0.0,-0.8331,0.0,0.0,0.0,0.0,0.0,0.0,0.0,0.0,0.0,0.0,0.0,0.0,0.0,0.0,0.0,0.0,0.0,0.0,0.0,0.0,0.0,0.0,0.0,0.0,0.0,0.0,0.0,0.0,0.8277,0.8721,0.897,0.9024,0.924,0.956,1.0001,0.9978,1.004,1.0175,1.0094,1.0035,0.9992,1.0212,1.047,1.0767,1.1563,1.1998,1.2229,1.2418,1.2916,1.352,1.3706,1.4154,1.4645,1.4645,1.4398,1.4078,1.3941,1.3739,1.3476,1.3192,1.3243,1.3363,1.3173,1.3138,1.317,1.3186,1.3906,1.4712,1.5277,1.5692,1.6265,1.7296,1.7086,1.6886,1.7419,1.7313,1.7126,1.701,1.6591,1.6163,1.5856,1.5799,1.5841,1.5924,1.608,1.6037,1.5781,1.5881,1.5652,1.4968,1.4907,1.4564,1.3735,1.3682,1.3769,1.3901,1.3901,1.4084,1.4501,1.4374,1.431,1.431,1.4038,1.3822,-0.3309,0.0,0.0,-0.5554,-0.6689,0.0,0.0,0.0,0.0,0.0,0.0,0.0,0.0,0.0,0.0,0.0,0.0,0.0,0.0,0.0,0.0,0.0,0.0,0.0,0.0,0.0,0.0,0.0,0.0,0.0,0.0,0.0,0.0,0.0,0.0,0.0,0.8345,0.8715,0.8901,0.8898,0.9059,0.9385,0.9835,0.9879,1.0002,1.0166,1.0153,1.0088,1.004,1.032,1.048,1.0614,1.1111,1.1499,1.179,1.1955,1.2373,1.2919,1.3426,1.3884,1.4307,1.4605,1.4512,1.4216,1.3983,1.3751,1.3539,1.3244,1.3277,1.3363,1.3191,1.3277,1.3447,1.3648,1.4431,1.5272,1.5933,1.6379,1.6809,1.7407,1.7305,1.7185,1.7337,1.753,1.7562,1.7344,1.685,1.6421,1.6219,1.6191,1.6274,1.6474,1.6501,1.6501,1.6501,1.6382,1.6093,1.5594,1.5433,1.5074,1.4406,1.4214,1.4214,1.4374,1.4374,1.4596,1.5013,1.4814,1.4752,1.4721,1.4564,1.4374,-0.4289,0.0,0.0,-0.6884,0.0,0.0,0.0,0.0,0.0,0.0,0.0,0.0,0.0,0.0,0.0,0.0,0.0,0.0,0.0,0.0,0.0,0.0,0.0,0.0,0.0,0.0,0.0,0.0,0.0,0.0,0.0,0.0,0.0,0.0,0.0,0.0,0.87,0.8858,0.8908,0.0,0.8923,0.9167,0.958,0.9766,0.9946,1.009,1.0175,1.0086,0.9933,0.9986,1.0289,1.0732,1.0848,1.1355,1.199,1.1998,1.2101,1.2328,1.3115,1.3492,1.3739,1.441,1.4534,1.4366,1.4029,1.381,1.3617,1.3446,1.3413,1.3413,1.3379,1.3379,1.3616,1.4469,1.528,1.6097,1.6958,1.7547,1.774,1.7188,1.7401,1.7487,1.6944,1.7597,1.8023,1.7422,1.7076,1.685,1.6815,1.6789,1.6815,1.6841,1.6841,1.6841,1.6841,1.6528,1.6313,1.6301,1.5983,1.561,1.5165,1.4783,1.4721,1.5104,1.5104,1.5329,1.5799,1.5359,1.5165,1.5165,1.4783,1.4596,-0.356,-0.4053,0.0,0.0,0.0,0.0,0.0,0.0,0.0,0.0,0.0,0.0,0.0,0.0,0.0,0.0,0.0,0.0,0.0,0.0,0.0,0.0,0.0,0.0,0.0,0.0,0.0,0.0,0.0,0.0,0.0,0.0,0.0,0.0,0.0,0.8739,0.8773,0.9061,0.9024,0.0,0.9133,0.9394,0.9446,0.9492,0.9731,1.0106,1.0167,1.0148,1.0056,1.0063,1.0073,1.0106,1.0138,1.0239,1.0389,1.0444,1.0926,1.1544,1.1779,1.2693,1.3776,1.3932,1.4268,1.4598,1.4354,1.419,1.3969,1.346,1.3428,1.3492,1.3174,1.3226,1.348,1.3779,1.435,1.4913,1.528,1.5453,1.5833,1.6835,1.6812,1.6884,1.7731,1.8246,1.8296,1.7693,1.7535,1.7342,1.685,1.6789,1.6917,1.7175,1.7199,1.7199,1.7199,1.6892,1.6581,1.6328,1.5983,1.5741,1.5639,1.5195,1.5013,1.5104,1.5104,1.5329,1.5799,1.5712,1.5639,1.5639,1.5551,1.5329,0.0,0.0,0.0,-0.3643,0.0,0.0,0.0,0.0,0.0,0.0,0.0,0.0,0.0,0.0,0.0,0.0,0.0,0.0,0.0,0.0,0.0,0.0,0.0,0.0,0.0,0.0,0.0,0.0,0.0,0.0,0.0,0.0,0.0,0.0,0.8688,0.8846,0.8938,0.9189,0.9167,0.893,0.9225,0.9433,0.9591,0.9621,0.983,1.0144,1.0182,1.0175,1.015,1.0158,1.0098,0.9992,0.9987,0.9998,1.0005,1.0033,1.035,1.0832,1.1243,1.1959,1.2703,1.3062,1.3664,1.4202,1.3885,1.4027,1.4203,1.3721,1.3661,1.3709,1.3491,1.354,1.3619,1.3601,1.4158,1.4762,1.5021,1.5306,1.5782,1.6624,1.6817,1.7047,1.7729,1.8281,1.8547,1.8358,1.8097,1.7881,1.7704,1.7446,1.7392,1.7715,1.7602,1.7549,1.7549,1.7076,1.6738,1.6554,1.6067,1.5885,1.6039,1.5811,1.5681,1.5681,1.5681,1.5782,1.6039,1.6191,1.6191,1.6039,1.6039,1.5981,-0.2818,0.0,-0.3693,-0.2823,0.0,0.0,0.0,0.0,0.0,0.0,0.0,0.0,0.0,0.0,0.0,0.0,0.0,0.0,0.0,0.0,0.0,0.0,0.0,0.0,0.0,0.0,0.0,0.0,0.0,0.0,0.0,0.0,0.8198,0.8748,0.8846,0.8981,0.9159,0.9312,0.9358,0.934,0.9269,0.9453,0.9818,0.9894,1.0012,1.0179,1.0194,1.0214,1.0215,1.0201,1.0161,1.0125,1.0128,1.0127,1.0119,1.0116,1.0157,1.029,1.0964,1.1295,1.1536,1.2295,1.3138,1.3766,1.3523,1.3932,1.4419,1.4108,1.4002,1.3979,1.3952,1.391,1.387,1.3691,1.4183,1.4748,1.5031,1.5478,1.5983,1.6453,1.7163,1.7702,1.7788,1.8324,1.8771,1.8914,1.8585,1.8391,1.8508,1.8146,1.7971,1.8249,1.7992,1.7833,1.7878,1.7288,1.6892,1.6892,1.6313,1.608,1.6367,1.6382,1.6394,1.6474,1.6421,1.6382,1.6382,1.6659,1.6659,1.6382,1.6382,1.6528,0.0,0.0,-0.2088,0.0,0.0,0.0,0.0,0.0,0.0,0.0,0.0,0.0,0.0,0.0,0.0,0.0,0.0,0.0,0.0,0.0,0.0,0.0,0.0,0.0,0.0,0.0,0.0,0.0,0.0,0.0,0.0,0.8456,0.8719,0.9043,0.9169,0.9294,0.9439,0.9585,0.9593,0.9483,0.9455,0.9617,0.99,0.9962,1.0033,1.0113,1.0167,1.0222,1.0273,1.0214,1.0194,1.0191,1.0182,1.0198,1.019,1.0193,1.0199,1.0214,1.0329,1.0845,1.1632,1.249,1.3272,1.4013,1.4641,1.4839,1.4793,1.4565,1.443,1.4289,1.4124,1.3984,1.3881,1.387,1.3809,1.3788,1.3833,1.3905,1.4422,1.6036,1.7662,1.8837,1.9031,1.9139,1.9081,1.8698,1.8789,1.8734,1.831,1.8187,1.8249,1.8508,1.8082,1.7883,1.8125,1.7602,1.7224,1.7224,1.6876,1.6686,1.6738,1.6738,1.6876,1.7158,1.6876,1.6738,1.6738,1.6789,1.6789,1.6738,1.6738,1.6763,-0.0675,-0.0734,-0.0562,0.0,0.0,0.0,0.0,0.0,0.0,0.0,0.0,0.0,0.0,0.0,0.0,0.0,0.0,0.0,0.0,0.0,0.0,0.0,0.0,0.0,0.0,0.0,0.0,0.0,0.0,0.0,0.8493,0.864,0.8783,0.899,0.9109,0.9247,0.9385,0.9525,0.9601,0.9617,0.9654,0.9745,0.9912,1.0012,1.0097,1.0155,1.023,1.0262,1.0293,1.0273,1.0254,1.0254,1.0269,1.0265,1.0246,1.0207,1.02,1.0199,1.0205,1.0446,1.092,1.1785,1.262,1.3432,1.4201,1.4709,1.4986,1.4809,1.4727,1.4663,1.4573,1.4453,1.4314,1.421,1.406,1.3913,1.378,1.3766,1.4344,1.6265,1.7648,1.8669,1.9201,1.9305,1.9227,1.9014,1.9,1.8966,1.8824,1.8586,1.8528,1.8789,1.8469,1.829,1.841,1.8013,1.7693,1.7528,1.7206,1.7028,1.7076,1.7076,1.732,1.7788,1.7327,1.7158,1.7294,1.7344,1.7344,1.7294,1.7158,1.7175,0.0,0.0,0.0743,0.0,0.0,0.0,0.0,0.0,0.0,0.0,0.0,0.0,0.0,0.0,0.0,0.0,0.0,0.0,0.0,0.0,0.0,0.0,0.0,0.0,0.0,0.0,0.0,0.0,0.0,0.0,0.8724,0.8748,0.8794,0.8891,0.9033,0.9159,0.9303,0.9474,0.9617,0.9717,0.9782,0.985,0.9927,1.0042,1.0148,1.0195,1.0257,1.0289,1.0293,1.0273,1.0273,1.0293,1.0293,1.0293,1.0293,1.0234,1.0234,1.0234,1.0221,1.0368,1.0701,1.1562,1.2423,1.3265,1.4046,1.4705,1.5168,1.5062,1.4986,1.4942,1.4946,1.4847,1.469,1.4518,1.4349,1.4183,1.3955,1.4097,1.4723,1.6233,1.7211,1.806,1.8849,1.8996,1.9054,1.9209,1.9134,1.9101,1.9214,1.8913,1.8807,1.9052,1.8789,1.8641,1.8697,1.8417,1.8142,1.7933,1.7681,1.7586,1.7636,1.7631,1.7854,1.829,1.7854,1.7726,1.7928,1.7844,1.7822,1.782,1.7562,1.7549,0.0,0.158,0.0,0.0,0.0,0.0,0.0,0.0,0.0,0.0,0.0,0.0,0.0,0.0,0.0,0.0,0.0,0.0,0.0,0.0,0.0,0.0,0.0,0.0,0.0,0.0,0.0,0.0,0.0,0.0,0.8869,0.888,0.8891,0.8891,0.9033,0.9159,0.9303,0.955,0.9717,0.9791,0.9791,0.9869,1.0006,1.0071,1.0148,1.0191,1.0206,1.0239,1.0293,1.0234,1.0234,1.0293,1.0293,1.0293,1.0293,1.0293,1.0293,1.0293,1.0293,1.084,1.168,1.2539,1.3379,1.4199,1.5059,1.5351,1.5371,1.537,1.5245,1.5081,1.5081,1.4985,1.485,1.4709,1.4537,1.4307,1.3965,1.4655,1.5352,1.547,1.6283,1.722,1.8023,1.817,1.8352,1.8927,1.9166,1.923,1.9035,1.8984,1.9069,1.9259,1.886,1.8715,1.8949,1.8734,1.8566,1.8547,1.8547,1.8528,1.8528,1.8528,1.8547,1.8566,1.8547,1.8547,1.8547,1.8057,1.7927,1.8166,1.7905,1.7789,0.0,0.0,0.0,0.0,0.0,0.0,0.0,0.0,0.0,0.0,0.0,0.0,0.0,0.0,0.0,0.0,0.0,0.0,0.0,0.0,0.0,0.0,0.0,0.0,0.0,0.0,0.0,0.0,0.0,0.0,0.9005,0.8946,0.8891,0.8891,0.8946,0.9068,0.9303,0.9559,0.9713,0.9732,0.9825,0.9887,0.9944,1.0087,1.0183,1.0195,1.0205,1.0244,1.0292,1.023,1.0234,1.0293,1.0293,1.0293,1.0293,1.0293,1.0293,1.0371,1.0937,1.1348,1.1836,1.3223,1.3867,1.4258,1.5137,1.5391,1.5391,1.5391,1.5346,1.5284,1.5245,1.5124,1.4964,1.4748,1.4629,1.4545,1.4332,1.4568,1.4983,1.5488,1.5874,1.639,1.7183,1.7766,1.8177,1.8395,1.8913,1.9274,1.9214,1.9198,1.923,1.9289,1.9146,1.9099,1.9164,1.9115,1.8999,1.8861,1.8861,1.877,1.8622,1.8585,1.8678,1.8843,1.8697,1.8679,1.8861,1.831,1.829,1.8715,1.827,1.8146,0.1315,0.0,0.0,0.0,0.0,0.0,0.0,0.0,0.0,0.0,0.0,0.0,0.0,0.0,0.0,0.0,0.0,0.0,0.0,0.0,0.0,0.0,0.0,0.0,0.0,0.0,0.0,0.0,0.0,0.0,0.9033,0.8946,0.8891,0.8891,0.899,0.9109,0.9303,0.9559,0.9713,0.9732,0.985,0.991,0.9938,1.0114,1.0192,1.0202,1.0202,1.0231,1.0267,1.0229,1.0233,1.0293,1.0293,1.029,1.0275,1.0275,1.0263,1.0387,1.1269,1.1758,1.2227,1.3633,1.4297,1.4648,1.5215,1.5391,1.5391,1.5391,1.5405,1.5385,1.5346,1.523,1.505,1.4887,1.4794,1.4727,1.4611,1.4533,1.4664,1.5197,1.5252,1.5464,1.6358,1.6908,1.7362,1.7642,1.8453,1.8998,1.8901,1.9184,1.9365,1.9305,1.9305,1.9305,1.9305,1.9305,1.9227,1.9101,1.9084,1.9017,1.8842,1.8825,1.8913,1.9102,1.893,1.893,1.9084,1.8567,1.8566,1.8984,1.8547,1.843,0.0,0.0,0.0,0.0,0.0,0.0,0.0,0.0,0.0,0.0,0.0,0.0,0.0,0.0,0.0,0.0,0.0,0.0,0.0,0.0,0.0,0.0,0.0,0.0,0.0,0.0,0.0,0.0,0.0,0.8902,0.8902,0.8902,0.8891,0.8891,0.9149,0.9275,0.9275,0.9542,0.971,0.9777,0.985,0.9933,0.9997,1.0131,1.0208,1.02,1.0201,1.0194,1.0202,1.021,1.024,1.0293,1.0293,1.0265,1.0194,1.0194,1.0193,1.0337,1.1227,1.209,1.2949,1.3848,1.4707,1.5391,1.539,1.5391,1.5391,1.5391,1.5391,1.5391,1.5391,1.5254,1.5099,1.5093,1.4999,1.4877,1.4737,1.4592,1.4499,1.4499,1.4332,1.4518,1.5502,1.5637,1.59,1.6793,1.782,1.8409,1.8172,1.8999,1.9527,1.9335,1.9305,1.9305,1.9305,1.9305,1.9305,1.9305,1.9305,1.9305,1.9305,1.9305,1.9305,1.9305,1.9305,1.9305,1.9289,1.8843,1.8752,1.9001,1.8752,1.8623,-0.0517,0.0,0.0,0.0,0.0,0.0,0.0,0.0,0.0,0.0,0.0,0.0,0.0,0.0,0.0,0.0,0.0,0.0,0.0,0.0,0.0,0.0,0.0,0.0,0.0,0.0,0.0,0.0,0.8936,0.8946,0.9043,0.8957,0.8891,0.8891,0.8934,0.8872,0.8723,0.8947,0.9082,0.9153,0.9466,0.9731,0.9933,1.011,1.0164,1.0121,1.0183,1.0194,1.0202,1.021,1.0201,1.0234,1.0228,1.0222,1.0194,1.0194,1.0194,1.0412,1.1928,1.2606,1.3047,1.4551,1.5195,1.5408,1.5391,1.5394,1.5391,1.5391,1.5391,1.5391,1.5391,1.5329,1.5218,1.5122,1.5037,1.4957,1.4859,1.4823,1.4727,1.4533,1.4453,1.4514,1.4781,1.5307,1.5999,1.6966,1.7851,1.864,1.9245,1.9563,1.9726,1.967,1.9559,1.9513,1.9513,1.938,1.9305,1.9305,1.9305,1.9383,1.9513,1.9365,1.9365,1.9513,1.9365,1.9305,1.9289,1.9034,1.9,1.923,1.9148,1.9115,0.0,0.0,0.0,0.0,0.0,0.0,0.0,0.0,0.0,0.0,0.0,0.0,0.0,0.0,0.0,0.0,0.0,0.0,0.0,0.0,0.0,0.0,0.0,0.0,0.0,0.0,0.0,0.0,0.8946,0.8936,0.9022,0.8946,0.8869,0.8818,0.8648,0.8391,0.8074,0.8286,0.8469,0.866,0.9144,0.9599,0.999,1.0129,1.0156,1.0094,1.0133,1.0175,1.0202,1.021,1.022,1.0234,1.0243,1.0221,1.0194,1.0194,1.0175,1.0367,1.177,1.2504,1.3021,1.4413,1.5108,1.5393,1.5405,1.5384,1.5355,1.5358,1.5388,1.5391,1.5391,1.5367,1.5314,1.5206,1.5159,1.508,1.4957,1.4933,1.4883,1.4697,1.4541,1.4596,1.5021,1.5398,1.6024,1.7037,1.7986,1.8749,1.9265,1.9692,1.9896,1.9858,1.9713,1.9604,1.9596,1.9427,1.9305,1.9305,1.9305,1.935,1.9471,1.9438,1.9485,1.9601,1.955,1.9476,1.9409,1.923,1.9182,1.9305,1.9305,1.9305,0.0,0.0,0.0,0.0,0.0,0.0,0.6456,0.6867,0.0,0.0,0.0,0.0,0.0,0.0,0.0,0.0,0.0,0.0,0.0,0.0,0.0,0.0,0.0,0.0,0.0,0.0,0.8931,0.8886,0.8869,0.888,0.8891,0.888,0.8789,0.8624,0.8293,0.7882,0.7383,0.7635,0.7932,0.8274,0.8905,0.9521,1.0101,1.0159,1.0164,1.0113,1.0094,1.0133,1.0202,1.0207,1.0233,1.0291,1.0293,1.025,1.021,1.0198,1.0156,1.0233,1.1162,1.2005,1.2822,1.3791,1.4623,1.5272,1.5349,1.5349,1.5301,1.5319,1.5353,1.5391,1.5391,1.5391,1.5384,1.5318,1.5303,1.5254,1.5061,1.5028,1.4999,1.4944,1.4671,1.4748,1.5625,1.5702,1.6011,1.7083,1.8134,1.8802,1.8866,1.961,2.0098,1.9974,1.9779,1.9657,1.9628,1.9456,1.932,1.9305,1.9305,1.9305,1.9335,1.9513,1.9614,1.9623,1.9738,1.9726,1.9614,1.9394,1.9305,1.9305,1.9305,1.9305,0.0,0.0,0.0,0.0,0.0,0.0,0.0,0.5456,0.0,0.0,0.0,0.0,0.0,0.0,0.0,0.0,0.0,0.0,0.0,0.0,0.0,0.0,0.0,0.0,0.0,0.0,0.9143,0.8762,0.8741,0.8783,0.8891,0.8794,0.8555,0.8143,0.7804,0.7342,0.6694,0.7268,0.7695,0.7996,0.8862,0.9559,1.0096,1.0108,1.0147,1.0175,1.0113,1.0133,1.0198,1.0208,1.0216,1.0224,1.0227,1.0205,1.019,1.0143,1.0156,1.031,1.1132,1.1573,1.2018,1.3585,1.4211,1.4474,1.5112,1.5349,1.5374,1.5389,1.5399,1.5391,1.5391,1.5391,1.5388,1.5315,1.5299,1.5266,1.5171,1.5152,1.5165,1.5146,1.495,1.486,1.5066,1.5511,1.6212,1.7349,1.8201,1.9035,1.9886,2.0186,2.0332,2.0313,2.013,1.9954,1.9863,1.967,1.9471,1.9305,1.9305,1.9365,1.9527,1.9569,1.9662,1.9762,1.9797,1.9726,1.9614,1.9394,1.9305,1.9305,1.9305,1.9305,0.0,0.0,0.0,-0.4225,0.0,0.0,0.0,0.0,0.0,0.0,0.0,0.0,0.0,0.0,0.0,0.0,0.0,0.0,0.0,0.0,0.0,0.0,0.0,0.0,0.0,0.0,0.9045,0.8803,0.8813,0.8805,0.88,0.864,0.8409,0.8069,0.746,0.6905,0.6355,0.6875,0.7333,0.7707,0.878,0.9578,1.0096,1.012,1.0171,1.0194,1.0133,1.0133,1.0198,1.0189,1.0205,1.0206,1.0152,1.0157,1.016,1.0113,1.0133,1.0267,1.0654,1.1108,1.164,1.252,1.3367,1.4127,1.4523,1.4955,1.5311,1.533,1.5354,1.5362,1.539,1.5391,1.5389,1.5312,1.5298,1.5272,1.5209,1.5189,1.5189,1.5189,1.5127,1.5156,1.5491,1.612,1.6968,1.8041,1.8877,1.9629,2.0307,2.0437,2.0444,2.0443,2.0299,2.0127,1.9922,1.9729,1.9501,1.9305,1.9305,1.9335,1.9456,1.9617,1.9816,2.0031,1.9962,1.9869,1.9809,1.9559,1.9413,1.9305,1.9305,1.935,0.0,0.0,0.0,0.0,0.0,-0.325,0.0,0.0,0.0,0.0,0.0,0.0,0.0,0.0,0.0,0.0,0.0,0.0,0.0,0.0,0.0,0.0,0.0,0.0,0.0,0.0,0.8589,0.8815,0.8899,0.8958,0.9003,0.8842,0.8557,0.8189,0.7449,0.6798,0.6263,0.6783,0.7276,0.7723,0.886,0.9659,1.0123,1.0156,1.0189,1.0194,1.0133,1.0129,1.0159,1.0171,1.0175,1.0156,1.0133,1.0113,1.0094,1.0094,1.0133,1.0201,1.0206,1.0663,1.1284,1.1445,1.2636,1.4032,1.4195,1.4695,1.5234,1.5272,1.5299,1.5313,1.5388,1.539,1.5365,1.5309,1.5298,1.5272,1.5209,1.5189,1.5189,1.5189,1.5189,1.5376,1.5911,1.6752,1.7624,1.8478,1.9457,2.0184,2.0444,2.0487,2.0488,2.0488,2.0371,2.0221,1.9952,1.977,1.9579,1.9368,1.932,1.932,1.935,1.9676,2.001,2.0285,2.0152,2.0022,1.9954,1.9738,1.9536,1.935,1.932,1.9413,0.0,0.0,0.0,0.0,-0.9243,0.0,0.0,0.0,0.0,0.0,0.0,0.0,0.0,0.0,0.0,0.0,0.0,0.0,0.0,0.0,0.0,0.0,0.0,0.0,0.0,0.0,0.0,0.8564,0.8902,0.9383,1.0081,0.9983,0.946,0.8479,0.818,0.7536,0.6474,0.7462,0.8116,0.8482,0.9388,0.9959,1.0196,1.0136,1.0131,1.0194,1.0133,1.007,1.003,1.0097,1.0075,1.0037,1.0156,1.0156,1.0094,1.0094,1.0133,1.0201,1.0206,1.0269,1.0486,1.126,1.2639,1.4144,1.4912,1.5226,1.5291,1.5291,1.5303,1.5318,1.5384,1.536,1.5307,1.5299,1.5298,1.5272,1.5209,1.5189,1.5189,1.5189,1.5189,1.5228,1.5293,1.6525,1.7589,1.7874,1.9163,2.0172,2.0385,2.0403,2.0408,2.0409,2.0401,2.03,2.0108,1.9943,1.9785,1.9587,1.9394,1.938,1.9555,1.9884,2.0127,2.0304,2.0277,2.0116,1.9813,1.9778,1.9701,1.9555,1.938,1.9413,0.0,0.0,0.0,0.0,0.0,0.0,-0.5917,0.0,0.0217,0.0,0.0,0.0,0.0,0.0,0.0,0.0,0.0,0.0,0.0,0.0,0.0,0.0,0.0,0.0,0.0,0.0,0.0,0.0,0.0,0.9884,1.0118,1.0379,1.0018,0.8942,0.853,0.7964,0.7205,0.7977,0.8541,0.8852,0.9681,1.0098,1.0137,1.0144,1.0166,1.0194,1.0175,1.0104,0.9997,1.002,1.0001,0.9949,1.0044,1.0089,1.0094,1.0094,1.0133,1.0198,1.0191,1.0197,1.0429,1.1755,1.2703,1.3543,1.4895,1.525,1.5196,1.5235,1.5209,1.5204,1.5307,1.5312,1.5303,1.5302,1.524,1.5196,1.5197,1.514,1.5255,1.5843,1.5945,1.6099,1.6561,1.72,1.7845,1.8512,1.9566,2.0321,2.043,2.0471,2.0469,2.0469,2.0468,2.0387,2.0177,2.004,1.9851,1.9614,1.9527,1.9513,1.9601,1.9873,2.0079,2.0124,2.0241,2.018,1.9922,1.9836,1.9726,1.9601,1.938,1.9413,-1.884,0.0,0.0,0.0,0.0,0.0,0.0,0.0,0.0,0.0,0.0,0.0,0.0,0.0,0.0,0.0,0.0,0.0,0.0,0.0,0.0,0.0,0.0,0.0,0.0,0.0,0.0,0.0,0.0,0.0,1.0563,1.0975,1.0728,0.9684,0.9346,0.8842,0.8149,0.8792,0.9135,0.9208,0.9857,1.0131,1.0077,1.0117,1.0156,1.0169,1.0167,1.009,0.9982,0.9992,0.9957,0.9889,0.9972,1.002,1.0078,1.0109,1.0156,1.0194,1.0191,1.0207,1.0448,1.1909,1.2576,1.3066,1.4463,1.4994,1.5103,1.5133,1.5101,1.5108,1.5266,1.5286,1.5282,1.5298,1.5177,1.5083,1.5127,1.5266,1.557,1.6303,1.6644,1.708,1.7914,1.8068,1.8325,1.9084,1.9871,2.0401,2.0483,2.0475,2.0465,2.0465,2.0485,2.042,2.0248,2.0115,1.993,1.9675,1.9643,1.9643,1.9643,1.9889,2.0029,2.0012,2.0162,2.0162,1.9993,1.9869,1.9726,1.9601,1.938,1.9423,0.0,0.0,0.0,-1.5385,0.0,0.0,0.0,0.0,-0.374,0.0,0.0,0.0,0.0,0.0,0.0,0.0,0.0,0.0,0.0,0.0,0.0,0.0,0.0,0.0,0.0,0.0,0.0,0.0,0.0,0.0,1.1989,1.2099,1.1742,1.0875,1.102,1.0499,0.927,1.0049,1.0182,0.9682,0.9964,1.0078,1.0008,1.0014,1.0047,1.0097,1.0094,1.0029,0.9914,0.9963,0.9914,0.9818,0.9941,0.9997,1.0025,1.0155,1.0194,1.021,1.0195,1.0191,1.0352,1.1243,1.211,1.293,1.3637,1.4424,1.5089,1.503,1.4995,1.5054,1.5254,1.5254,1.5226,1.5279,1.5152,1.4995,1.5014,1.5663,1.6273,1.6292,1.7044,1.7933,1.8819,1.8953,1.8999,1.9181,1.9837,2.0352,2.0488,2.0434,2.0408,2.0408,2.0465,2.0441,2.0312,2.0226,2.0087,1.9802,1.9778,1.9778,1.9778,1.9989,2.0073,2.0003,2.0068,2.0068,1.9993,1.9869,1.9726,1.9601,1.938,1.9476,0.0,0.0,-1.4941,-1.4933,0.0,0.0,0.0,0.0,0.0,0.0,0.0,0.0,0.0,0.0,0.0,0.0,0.0,0.0,0.0,0.0,0.0,0.0,0.0,0.0,0.0,0.0,0.0,0.0,0.0,0.0,0.0,1.2874,1.2361,1.1067,1.0886,1.0558,1.0101,1.0284,1.0443,1.0626,1.0266,1.0089,1.0057,0.9981,0.9998,1.0109,1.0098,1.0014,0.9891,0.9827,0.9781,0.9739,0.9781,0.9855,0.9949,1.0119,1.0196,1.0198,1.0195,1.0209,1.0348,1.1169,1.2019,1.2873,1.3586,1.4409,1.5098,1.5018,1.5038,1.5109,1.5267,1.5271,1.5266,1.5279,1.5105,1.5093,1.5673,1.5912,1.6383,1.7538,1.8117,1.8682,1.9513,1.9764,1.9896,1.9981,2.021,2.0394,2.0488,2.0478,2.0465,2.0465,2.0485,2.0459,2.0369,2.0186,1.9993,1.9802,1.989,1.9901,1.979,1.9952,2.0009,2.0012,2.0012,2.0012,1.9993,1.9944,1.9813,1.9601,1.9527,1.9481,-1.6296,-1.5098,0.0,-1.3897,-1.1477,0.0,-0.8519,0.0,0.0,0.0,0.0,0.0,0.0,0.0,0.0,0.0,0.0,0.0,0.0,0.0,0.0,0.0,0.0,0.0,0.0,0.0,1.0245,1.2209,0.0,0.0,0.0,0.0,1.2524,1.1145,1.1113,1.0942,1.0543,1.0837,1.0981,1.0992,1.068,1.0348,1.0019,0.9888,0.9895,1.0025,0.9994,0.9968,0.9882,0.9756,0.9698,0.9706,0.9666,0.9755,0.9929,1.0133,1.0213,1.0225,1.0219,1.0399,1.0744,1.1233,1.2204,1.3241,1.3676,1.4415,1.5091,1.5049,1.5061,1.5131,1.5274,1.5307,1.5305,1.5299,1.5095,1.512,1.5986,1.6269,1.6769,1.8188,1.8842,1.9314,1.9838,2.0079,2.0244,2.0381,2.0402,2.0422,2.0527,2.0542,2.0531,2.0531,2.0534,2.0519,2.0449,2.0161,1.9993,1.9981,1.9983,1.9954,1.988,1.9944,1.9993,1.9993,1.9993,2.0031,2.0106,2.0031,1.9922,1.9738,1.963,1.9527]},{"header":{"parameterUnit":"m.s-1","parameterCategory":1,"la1":30.6,"la2":29.2853,"lo1":-89.7004,"lo2":-87.6739,"dy":0.0162,"dx":0.0183,"nx":112,"ny":82,"refTime":"2025-08-14T12:00:00:Z","depth":0,"parameterNumber":3,"parameterNumberName":"V-component_of_WINDS"},"data":[0.0,0.0,0.0,0.0,0.0,0.0,0.0,0.0,0.0,0.0,0.0,0.0,0.0,0.0,0.0,0.0,0.0,0.0,0.0,0.0,0.0,0.0,0.0,0.0,0.0,0.0,0.0,0.0,0.0,0.0,0.0,0.0,0.0,0.0,0.0,0.0,0.0,0.0,0.0,0.0,0.0,0.0,0.0,0.0,0.0,0.0,0.0,0.0,0.0,0.0,0.0,0.0,0.0,0.0,0.0,0.0,0.0,0.0,0.0,0.0,0.0,0.0,0.0,0.0,0.0,0.0,0.0,0.0,0.0,0.0,0.0,0.0,0.0,0.0,0.0,0.0,0.0,0.0,0.0,0.0,0.0,0.0,0.0,0.0,0.0,0.0,0.0,0.0,0.0,0.0,0.0,0.5873,0.2989,-0.0278,-0.3631,-0.6613,-0.9591,-1.2634,0.0,0.0,0.0,0.0,0.0,0.0,0.0,0.0,0.0,0.0,0.0,0.0,0.0,0.0,0.0,0.0,0.0,0.0,0.0,0.0,0.0,0.0,0.0,0.0,0.0,0.0,0.0,0.0,0.0,0.0,0.0,0.0,0.0,0.0,0.0,0.0,0.0,0.0,0.0,0.0,0.0,0.0,0.0,0.0,0.0,0.0,0.0,0.0,0.0,0.0,0.0,0.0,0.0,0.0,0.0,0.0,0.0,0.0,0.0,0.0,0.0,0.0,0.0,0.0,0.0,0.0,0.0,0.0,0.0,0.0,0.0,0.0,0.0,0.0,0.0,0.0,0.0,0.0,0.0,0.0,0.0,0.0,0.0,0.0,0.0,0.0,0.0,0.0,0.0,0.0,0.0,0.0,0.0,0.0,0.0,0.0,0.0,0.0,0.0,0.0,0.0,0.0,0.0,0.0,0.5733,0.3819,0.1977,-0.0307,-0.3336,-0.6427,-0.9421,-1.2316,0.0,0.0,0.0,0.0,0.0,0.0,0.0,0.0,0.0,0.0,0.0,0.0,0.0,0.0,0.0,0.0,0.0,0.0,0.0,0.0,0.0,0.0,0.0,0.0,0.0,0.0,0.0,0.0,0.0,0.0,0.0,0.0,0.0,0.0,0.0,0.0,0.0,0.0,0.0,0.0,0.0,0.0,0.0,0.0,0.0,0.0,0.0,0.0,0.0,0.0,0.0,0.0,0.0,0.0,0.0,0.0,0.0,0.0,0.0,0.0,0.0,0.0,0.0,0.0,0.0,0.0,0.0,0.0,0.0,0.0,0.0,0.0,0.0,0.0,0.0,0.0,0.0,0.0,0.0,0.0,0.0,0.0,0.0,0.0,0.0,0.0,0.0,0.0,0.0,0.0,0.0,0.0,0.0,0.0,0.0,0.0,0.0,0.0,0.0,0.0,0.0,0.0,0.0,0.5301,0.4548,0.2591,0.1198,-0.0658,-0.3256,-0.6372,-0.9324,-1.1979,-1.5205,0.0,0.0,0.0,0.0,0.0,0.0,0.0,0.0,0.0,0.0,0.0,0.0,0.0,0.0,0.0,0.0,0.0,0.0,0.0,0.0,0.0,0.0,0.0,0.0,0.0,0.0,0.0,0.0,0.0,0.0,0.0,0.0,0.0,0.0,0.0,0.0,0.0,0.0,0.0,0.0,0.0,0.0,0.0,0.0,0.0,0.0,0.0,0.0,0.0,0.0,0.0,0.0,0.0,0.0,0.0,0.0,0.0,0.0,0.0,0.0,0.0,0.0,0.0,0.0,0.0,0.0,0.0,0.0,0.0,0.0,0.0,0.0,0.0,0.0,0.0,0.0,0.0,0.0,0.0,0.0,0.0,0.0,0.0,0.0,0.0,0.0,0.0,0.0,0.0,0.0,0.0,0.0,0.0,0.0,0.0,0.0,0.0,0.0,0.0,0.0,0.0,0.0,0.4683,0.3576,0.1952,0.0708,-0.0971,-0.3301,-0.6402,-0.9342,-1.1989,-1.5205,0.0,0.0,0.0,0.0,0.0,0.0,0.0,0.0,0.0,0.0,0.0,0.0,0.0,0.0,0.0,0.0,0.0,0.0,0.0,0.0,0.0,0.0,0.0,0.0,0.0,0.0,0.0,0.0,0.0,0.0,0.0,0.0,0.0,0.0,0.0,0.0,0.0,0.0,0.0,0.0,0.0,0.0,0.0,0.0,0.0,0.0,0.0,0.0,0.0,0.0,0.0,0.0,0.0,0.0,0.0,0.0,0.0,0.0,0.0,0.0,0.0,0.0,0.0,0.0,0.0,0.0,0.0,0.0,0.0,0.0,0.0,0.0,0.0,0.0,0.0,0.0,0.0,0.0,0.0,0.0,0.0,0.0,0.0,0.0,0.0,0.0,0.0,0.0,0.0,0.0,0.0,0.0,0.0,0.0,0.0,0.0,0.0,0.0,0.0,0.0,0.0,0.0,0.4805,0.3586,0.1957,0.0739,-0.0959,-0.3286,-0.6389,-0.9538,-1.2627,-1.5459,0.0,0.0,0.0,0.0,0.0,0.0,0.0,0.0,0.0,0.0,0.0,0.0,0.0,0.0,0.0,0.0,0.0,0.0,0.0,0.0,0.0,0.0,0.0,0.0,0.0,0.0,0.0,0.0,0.0,0.0,0.0,0.0,0.0,0.0,0.0,0.0,0.0,0.0,0.0,0.0,0.0,0.0,0.0,0.0,0.0,0.0,0.0,0.0,0.0,0.0,0.0,0.0,0.0,0.0,0.0,0.0,0.0,0.0,0.0,0.0,0.0,0.0,0.0,0.0,0.0,0.0,0.0,0.0,0.0,0.0,0.0,0.0,0.0,0.0,0.0,0.0,0.0,0.0,0.0,0.0,0.0,0.0,0.0,0.0,0.0,0.0,0.0,0.0,0.0,0.0,0.0,0.0,0.0,0.0,0.0,0.0,0.0,0.0,0.0,0.0,0.0,0.0,0.3985,0.2516,0.0,-0.0176,-0.1939,-0.3879,-0.6594,-0.9298,-1.1807,0.0,0.0,0.0,0.0,0.0,0.0,0.0,0.0,0.0,0.0,0.0,0.0,0.0,0.0,0.0,0.0,0.0,0.0,0.0,0.0,0.0,0.0,0.0,0.0,0.0,0.0,0.0,0.0,0.0,0.0,0.0,0.0,0.0,0.0,0.0,0.0,0.0,0.0,0.0,0.0,0.0,0.0,0.0,0.0,0.0,0.0,0.0,0.0,0.0,0.0,0.0,0.0,0.0,0.0,0.0,0.0,0.0,0.0,0.0,0.0,0.0,0.0,0.0,0.0,0.0,0.0,0.0,0.0,0.0,0.0,0.0,0.0,0.0,0.0,0.0,0.0,0.0,0.0,0.0,0.0,0.0,0.0,0.0,0.0,0.0,0.0,0.0,0.0,0.0,0.0,0.0,0.0,0.0,0.0,0.0,0.0,0.0,0.0,0.0,0.0,0.0,0.0,0.5183,0.3411,0.1805,0.0,-0.0845,-0.2487,-0.4235,-0.6898,-0.9426,-1.1575,0.0,0.0,0.0,0.0,0.0,0.0,0.0,0.0,0.0,0.0,0.0,0.0,0.0,0.0,0.0,0.0,0.0,0.0,0.0,0.0,0.0,0.0,0.0,0.0,0.0,0.0,0.0,0.0,0.0,0.0,0.0,0.0,0.0,0.0,0.0,0.0,0.0,0.0,0.0,0.0,0.0,0.0,0.0,0.0,0.0,0.0,0.0,0.0,0.0,0.0,0.0,0.0,0.0,0.0,0.0,0.0,0.0,0.0,0.0,0.0,0.0,0.0,0.0,0.0,0.0,0.0,0.0,0.0,0.0,0.0,0.0,0.0,0.0,0.0,0.0,0.0,0.0,0.0,0.0,0.0,0.0,0.0,0.0,0.0,0.0,0.0,0.0,0.0,0.0,0.0,0.0,0.0,0.0,0.0,0.0,0.0,0.0,0.0,0.0,0.0,0.0,0.0,0.4945,0.332,0.1611,0.0135,-0.1069,-0.2487,-0.4279,-0.73,-1.0036,0.0,0.0,0.0,0.0,0.0,0.0,0.0,0.0,0.0,0.0,0.0,0.0,0.0,0.0,0.0,0.0,0.0,0.0,0.0,0.0,0.0,0.0,0.0,0.0,0.0,0.0,0.0,0.0,0.0,0.0,0.0,0.0,0.0,0.0,0.0,0.0,0.0,0.0,0.0,0.0,0.0,0.0,0.0,0.0,0.0,0.0,0.0,0.0,0.0,0.0,0.0,0.0,0.0,0.0,0.0,0.0,0.0,0.0,0.0,0.0,0.0,0.0,0.0,0.0,0.0,0.0,0.0,0.0,0.0,0.0,0.0,0.0,0.0,0.0,0.0,0.0,0.0,0.0,0.0,0.0,0.0,0.0,0.0,0.0,0.0,0.0,0.0,0.0,0.0,0.0,0.0,0.0,0.0,0.0,0.0,0.0,0.0,0.0,0.0,0.0,0.0,0.0,0.0,0.4062,0.2886,0.1478,-0.042,-0.1314,-0.2667,-0.486,-0.6881,-0.9073,-1.153,0.0,0.0,0.0,0.0,0.0,0.0,0.0,0.0,0.0,0.0,0.0,0.0,0.0,0.0,0.0,0.0,0.0,0.0,0.0,0.0,0.0,0.0,0.0,0.0,0.0,0.0,0.0,0.0,0.0,0.0,0.0,0.0,0.0,0.0,0.0,0.0,0.0,0.0,0.0,0.0,0.0,0.0,0.0,0.0,0.0,0.0,0.0,0.0,0.0,0.0,0.0,0.0,0.0,0.0,0.0,0.0,0.0,0.0,0.0,0.0,0.0,0.0,0.0,0.0,0.0,0.0,0.0,0.0,0.0,0.0,0.0,0.0,0.0,0.0,0.0,0.0,0.0,0.0,0.0,0.0,0.0,0.0,0.0,0.0,0.0,0.0,0.0,0.0,0.0,0.0,0.0,0.0,0.0,0.0,0.0,0.0,0.0,0.0,0.0,0.0,0.0,0.0,0.3429,0.2172,0.0741,-0.1044,-0.1781,-0.302,-0.513,-0.6712,-0.8623,-1.1002,0.0,0.0,0.0,0.0,0.0,0.0,0.0,0.0,0.0,0.0,0.0,0.0,0.0,0.0,0.0,0.0,0.0,0.0,0.0,0.0,0.0,0.0,0.0,0.0,0.0,0.0,0.0,0.0,0.0,0.0,0.0,0.0,0.0,0.0,0.0,0.0,0.0,0.0,0.0,0.0,0.0,0.0,0.0,0.0,0.0,0.0,0.0,0.0,0.0,0.0,0.0,0.0,0.0,0.0,0.0,0.0,0.0,0.0,0.0,0.0,0.0,0.0,0.0,0.0,0.0,0.0,0.0,0.0,0.0,0.0,0.0,0.0,0.0,0.0,0.0,0.0,0.0,0.0,0.0,0.0,0.0,0.0,0.0,0.0,0.0,0.0,0.0,0.0,0.0,0.0,0.0,0.0,0.0,0.0,0.0,0.0,0.0,0.0,0.0,0.0,0.0,0.0,0.2704,0.1155,-0.0447,-0.1772,-0.2436,-0.3476,-0.5173,-0.6731,-0.8532,-1.0687,0.0,0.0,0.0,0.0,0.0,0.0,0.0,0.0,0.0,0.0,0.0,0.0,0.0,0.0,0.0,0.0,0.0,0.0,0.0,0.0,0.0,0.0,0.0,0.0,0.0,0.0,0.0,0.0,0.0,0.0,0.0,0.0,0.0,0.0,0.0,0.0,0.0,0.0,0.0,0.0,0.0,0.0,0.0,0.0,0.0,0.0,0.0,0.0,0.0,0.0,0.0,0.0,0.0,0.0,0.0,0.0,0.0,0.0,0.0,0.0,-0.7973,0.0,0.0,0.0,0.0,0.0,0.0,0.0,0.0,0.0,0.0,0.0,0.0,0.0,0.0,0.0,0.0,0.0,0.0,0.0,0.0,0.0,0.0,0.0,0.0,0.0,0.0,0.0,0.0,0.0,0.0,0.0,0.0,0.0,0.0,0.0,0.0,0.0,0.0,0.0,0.0,0.0,0.0627,-0.0313,-0.1286,-0.2539,-0.3203,-0.404,-0.5188,-0.681,-0.8617,-1.0666,0.0,0.0,0.0,0.0,0.0,0.0,0.0,0.0,0.0,0.0,0.0,0.0,0.0,0.0,0.0,0.0,0.0,0.0,0.0,0.0,0.0,0.0,0.0,0.0,0.0,0.0,0.0,0.0,0.0,0.0,0.0,0.0,0.0,0.0,0.0,0.0,0.0,0.0,0.0,0.0,0.0,0.0,0.0,0.0,0.0,0.0,0.0,0.0,0.0,0.0,0.0,0.0,0.0,0.0,0.0,0.0,0.0,0.0,0.0,0.0,0.0,-0.8983,0.0,0.0,0.0,0.0,0.0,0.0,0.0,0.0,0.0,0.0,0.0,0.0,0.0,0.0,0.0,0.0,0.0,0.0,0.0,0.0,0.0,0.0,0.0,0.0,0.0,0.0,0.0,0.0,0.0,0.0,0.0,0.0,0.0,0.0,0.0,0.0,0.0,0.0,0.0,0.0,-0.054,-0.1679,-0.2651,-0.3263,-0.4033,-0.4848,-0.5663,-0.7016,-0.856,-1.0343,-1.1859,0.0,0.0,0.0,0.0,0.0,0.0,0.0,0.0,0.0,0.0,0.0,0.0,0.0,0.0,0.0,0.0,0.0,0.0,0.0,0.0,0.0,0.0,0.0,0.0,0.0,0.0,0.0,0.0,0.0,0.0,0.0,0.0,0.0,0.0,0.0,0.0,0.0,0.0,0.0,0.0,0.0,0.0,0.0,0.0,0.0,0.0,0.0,0.0,0.0,0.0,0.0,0.0,0.0,-0.83,-0.9114,-0.9866,-1.0516,-1.0916,-1.0994,-1.0192,-0.9692,-0.9475,0.0,0.0,0.0,0.0,0.0,0.0,0.0,0.0,0.0,0.0,0.0,0.0,0.0,0.0,0.0,0.0,0.0,0.0,0.0,0.0,0.0,0.0,0.0,0.0,0.0,-1.0559,-1.1004,0.0,0.0,0.0,0.0,0.0,0.0,0.0,0.0,0.0,0.0,0.0,0.0,-0.1873,-0.3266,-0.4253,-0.42,-0.5029,-0.5782,-0.6313,-0.7321,-0.8633,-1.0146,-1.1527,-1.344,0.0,0.0,0.0,0.0,0.0,0.0,0.0,0.0,0.0,0.0,0.0,0.0,0.0,0.0,0.0,0.0,0.0,0.0,0.0,0.0,0.0,0.0,0.0,0.0,0.0,0.0,0.0,0.0,0.0,0.0,0.0,0.0,-0.6743,-0.8447,0.0,0.0,0.0,0.0,0.0,0.0,0.0,0.0,0.0,0.0,0.0,0.0,0.0,0.0,-0.5036,-0.5917,-0.682,-0.7634,-0.8737,-0.9648,-1.0481,-1.0593,-1.1027,-1.1652,-1.0847,0.0,-1.059,-0.9595,0.0,0.0,0.0,0.0,0.0,0.0,0.0,0.0,0.0,0.0,0.0,0.0,0.0,0.0,0.0,0.0,0.0,0.0,0.0,0.0,0.0,0.0,-1.0432,-1.1344,-1.1616,-1.1846,0.0,-1.2175,-1.1972,-1.2599,0.0,0.0,0.0,0.0,0.0,0.0,0.0,0.0,-0.4946,-0.5694,-0.6087,-0.5765,-0.6245,-0.6683,-0.6865,-0.7915,-0.9235,-1.0709,-1.1472,-1.3263,-1.6327,-1.6221,0.0,0.0,0.0,0.0,0.0,0.0,0.0,0.0,0.0,0.0,0.0,0.0,0.0,0.0,0.0,0.0,0.0,0.0,0.0,0.0,0.0,0.0,0.0,0.0,0.0,0.0,0.0,0.0,0.0,-0.3019,-0.3049,-0.5031,-0.6788,-0.8101,0.0,0.0,0.0,0.0,0.0,0.0,0.0,0.0,0.0,-0.7007,-0.6828,-0.6252,-0.5169,-0.6591,-0.7511,-0.7917,-0.9336,-1.0151,-1.0335,-1.082,-1.1301,-1.1842,-1.1492,-1.1575,-1.1902,-1.0322,-0.9525,-0.9242,0.0,0.0,0.0,0.0,0.0,-0.9974,-1.0629,-1.109,0.0,0.0,0.0,0.0,0.0,0.0,0.0,0.0,0.0,0.0,0.0,0.0,0.0,-1.1701,-1.2129,-1.2501,-1.2832,-1.2666,-1.2501,0.0,-1.2881,-1.2559,-1.1525,0.0,0.0,0.0,0.0,0.0,-0.6176,-0.6457,-0.6634,-0.6471,-0.704,-0.7426,-0.7496,-0.8504,-0.964,-1.0833,-1.1483,-1.3034,-1.5813,-1.6149,-1.6892,0.0,0.0,0.0,0.0,0.0,0.0,0.0,0.0,0.0,0.0,0.0,0.0,0.0,0.0,0.0,0.0,0.0,0.0,0.0,0.0,0.0,0.0,0.0,0.0,0.0,0.0,0.0,0.0,-0.0103,-0.0547,-0.2646,-0.4576,-0.6289,0.0,0.0,0.0,0.0,0.0,0.0,-0.7122,-0.765,-0.7585,-0.6802,-0.6666,-0.6294,-0.5694,-0.7333,-0.8217,-0.8244,-0.9731,-1.0289,-1.0006,-1.082,-1.1437,-1.1904,-1.188,-1.224,-1.2793,-1.1099,-1.0123,-0.9784,-1.0417,-1.0438,-1.0167,-1.1023,-1.1225,-1.1166,-1.1823,-1.208,-1.2178,-1.2715,0.0,-1.2881,-1.2881,0.0,0.0,0.0,0.0,-1.1217,-1.1421,-1.1725,-1.195,-1.2058,-1.251,-1.2881,-1.2881,-1.2881,-1.2881,0.0,-1.2881,-1.2666,-1.1922,0.0,0.0,0.0,0.0,-0.8246,-0.7741,-0.7697,-0.7615,-0.7538,-0.796,-0.8245,-0.8283,-0.9151,-1.007,-1.1079,-1.1766,-1.3173,-1.5405,-1.6067,-1.6986,-1.8223,0.0,0.0,0.0,0.0,0.0,0.0,0.0,0.0,0.0,0.0,0.0,0.0,0.0,0.0,0.0,0.0,0.0,0.0,0.0,0.0,0.0,0.0,0.0,0.0,0.0,0.0,0.0,0.0,0.0,-0.2003,-0.4125,0.0,0.0,0.0,0.0,-0.5679,-0.5642,-0.5592,-0.5592,-0.6599,-0.6788,-0.59,-0.6764,-0.6971,-0.6337,-0.7955,-0.8727,-0.876,-0.9675,-1.0012,-0.9728,-1.0393,-1.1141,-1.1919,-1.1791,-1.2166,-1.2813,-1.172,-1.1209,-1.1258,-1.1584,-1.1334,-1.0922,-1.2304,-1.2353,-1.1873,-1.2608,-1.2822,-1.2832,-1.2881,-1.2881,-1.2881,-1.2881,-1.2881,0.0,0.0,-1.2791,-1.2418,-1.316,-1.2842,-1.238,-1.2772,-1.2881,-1.2881,-1.2881,-1.2881,-1.2881,0.0,-1.2881,-1.2666,-1.1922,0.0,-1.1507,-1.0813,-1.0661,-1.0602,-1.0602,-1.0237,-0.993,-0.959,-0.9225,-0.9131,-0.9395,-0.9884,-1.0608,-1.1689,-1.2566,-1.377,-1.5438,-1.5905,-1.6853,-1.8361,-1.872,0.0,0.0,0.0,0.0,0.0,0.0,0.0,0.0,0.0,0.0,0.0,0.0,0.0,0.0,0.0,0.0,0.0,0.0,0.0,0.0,0.0,0.0,0.0,0.0,0.0,0.0,0.0,0.0,-0.0616,-0.273,0.0,-0.5089,-0.604,-0.6474,-0.6253,-0.6632,-0.6902,-0.6902,-0.7865,-0.8061,-0.7187,-0.7723,-0.765,-0.6876,-0.7969,-0.8556,-0.8531,-0.9405,-0.968,-0.939,-1.01,-1.074,-1.1201,-1.1619,-1.2184,-1.2847,-1.2469,-1.1922,-1.1366,-1.1908,-1.1855,-1.1566,-1.2559,-1.2715,-1.2559,-1.2822,-1.2881,-1.2881,-1.2881,-1.2881,-1.2881,-1.2881,-1.2881,-1.291,-1.3066,-1.2907,-1.2748,-1.3056,-1.2897,-1.271,-1.2871,-1.2881,-1.2881,-1.2881,-1.2881,-1.2881,-1.2881,-1.2881,-1.2822,-1.2559,-1.2501,-1.2246,-1.1566,-1.1466,-1.1266,-1.0864,-1.0253,-0.9834,-0.9703,-0.9512,-0.9389,-0.9487,-1.0244,-1.1046,-1.1737,-1.2636,-1.3635,-1.4805,-1.5843,-1.7044,-1.8392,-1.9158,-2.0035,0.0,0.0,0.0,0.0,0.0,0.0,0.0,0.0,0.0,0.0,0.0,0.0,0.0,0.0,0.0,0.0,0.0,0.0,0.0,0.0,0.0,0.0,0.0,0.0,0.0,0.0,0.0837,0.0112,-0.173,-0.3226,-0.3993,-0.5156,-0.5987,-0.6199,-0.6907,-0.745,-0.767,-0.8359,-0.8452,-0.7854,-0.8055,-0.796,-0.7486,-0.8294,-0.8649,-0.8658,-0.9247,-0.9341,-0.9109,-1.006,-1.0585,-1.0864,-1.1774,-1.2452,-1.2881,-1.2881,-1.2461,-1.19,-1.2351,-1.2388,-1.2236,-1.2725,-1.2881,-1.2881,-1.2881,-1.2881,-1.292,-1.3152,-1.319,-1.319,-1.319,-1.319,-1.3152,-1.2978,-1.2881,-1.2881,-1.2881,-1.2881,-1.2881,-1.2881,-1.2881,-1.2881,-1.2881,-1.2881,-1.2881,-1.2881,-1.2881,-1.2881,-1.2881,-1.2881,-1.2715,-1.2236,-1.2187,-1.1935,-1.1358,-1.0731,-1.0276,-1.01,-0.9908,-0.9834,-0.9981,-1.0781,-1.1568,-1.2211,-1.3283,-1.4259,-1.5029,-1.6216,-1.7486,-1.8918,-2.0307,-2.1257,-2.1762,0.0,0.0,0.0,0.0,0.0,0.0,0.0,0.0,0.0,0.0,0.0,0.0,0.0,0.0,0.0,0.0,0.0,0.0,0.0,0.0,0.0,0.0,0.0,0.0953,0.1064,0.0783,0.0112,-0.129,-0.2467,-0.3289,-0.407,-0.4787,-0.5433,-0.6204,-0.6912,-0.7616,-0.767,-0.7717,-0.7717,-0.7717,-0.7895,-0.8211,-0.8886,-0.917,-0.917,-0.917,-0.9078,-0.8857,-1.0167,-1.0813,-1.0872,-1.2304,-1.2881,-1.2881,-1.2881,-1.2881,-1.2881,-1.2881,-1.2881,-1.2881,-1.2881,-1.2881,-1.2881,-1.2881,-1.2881,-1.3027,-1.36,-1.3768,-1.3815,-1.3815,-1.3815,-1.3684,-1.3104,-1.2929,-1.2929,-1.2929,-1.2929,-1.2881,-1.2881,-1.2881,-1.2881,-1.2881,-1.2881,-1.2929,-1.2929,-1.292,-1.291,-1.292,-1.2929,-1.2978,-1.2978,-1.2978,0.0,-1.2332,-1.1881,-1.1473,-1.0998,-1.0577,-1.0544,-1.0981,-1.1505,-1.2187,-1.3085,-1.4628,-1.5679,-1.6099,-1.691,-1.8197,-2.001,-2.2117,-2.2972,-2.2499,0.0,0.0,0.0,0.0,0.0,0.0,0.0,0.0,0.0,0.0,0.0,0.0,0.0,0.0,0.0,0.0,0.0,0.0,0.0,0.0,0.0,0.0,-0.117,0.0112,0.028,0.0224,0.0,-0.0842,-0.1681,-0.2454,-0.368,-0.4732,-0.5433,-0.6204,-0.6696,-0.6912,-0.7385,-0.7706,-0.7723,-0.819,-0.8553,-0.865,-0.8817,-0.8925,-0.8925,-0.8925,-0.8884,-0.8857,-1.0167,-1.0813,-1.0872,-1.2304,-1.2881,-1.2881,-1.2881,-1.2881,-1.2881,-1.2881,-1.2881,-1.2881,-1.2881,-1.2881,-1.2881,-1.2881,-1.2881,-1.2929,-1.3104,-1.342,-1.3815,-1.3815,-1.4097,-1.4422,-1.4247,-1.3884,-1.3552,-1.3552,-1.3238,-1.2881,-1.2881,-1.2881,-1.2881,-1.2881,-1.2881,-1.3017,-1.3467,-1.3238,-1.3124,-1.3501,-1.3931,-1.4212,-1.4212,-1.4212,0.0,-1.3507,-1.3022,-1.2548,-1.2023,-1.1648,-1.1442,-1.159,-1.2029,-1.2734,-1.3768,-1.4869,-1.5895,-1.6799,-1.7869,-1.9304,-2.113,-2.2496,-2.2972,0.0,0.0,0.0,0.0,0.0,0.0,0.0,0.0,0.0,0.0,0.0,0.0,0.0,0.0,0.0,0.0,0.0,0.0,0.0,0.0,0.0,0.0,-0.419,-0.299,-0.1604,-0.0836,-0.0336,-0.0056,-0.0673,-0.14,-0.212,-0.3292,-0.4401,-0.5433,-0.6204,-0.6588,-0.6588,-0.7289,-0.7563,-0.7235,-0.7937,-0.8321,-0.8321,-0.8646,-0.8804,-0.8804,-0.8804,-0.8962,-0.9263,-1.0312,-1.0965,0.0,-1.2412,-1.2881,-1.2881,-1.2881,-1.2881,0.0,0.0,0.0,0.0,0.0,-1.3104,-1.2978,-1.3478,-1.3478,-1.3382,-1.3873,-1.4283,-1.4549,-1.4549,-1.4824,-1.5017,-1.4789,-1.4468,-1.419,-1.419,-1.3931,-1.3658,-1.3658,-1.3465,-1.3382,-1.3616,-1.3264,-1.3128,-1.3718,0.0,0.0,-1.3817,-1.395,-1.3983,-1.3983,-1.3983,-1.3816,-1.3326,-1.3014,-1.2687,-1.2206,-1.1942,-1.1884,-1.2066,-1.2747,0.0,0.0,0.0,-1.7006,-1.7926,-1.9139,0.0,0.0,0.0,0.0,0.0,0.0,0.0,0.0,-2.3007,-2.2941,0.0,0.0,0.0,0.0,0.0,0.0,0.0,0.0,0.0,0.0,0.0,0.0,0.0,0.0,0.0,0.0,-0.6489,-0.4928,-0.3482,-0.209,-0.0885,-0.0111,-0.0556,-0.1277,-0.1988,-0.2824,-0.3819,-0.5183,-0.6023,-0.6475,-0.6475,0.0,0.0,0.0,0.0,-0.783,-0.783,-0.848,-0.8804,-0.8804,-0.8804,-0.9159,-0.9814,-1.0517,-1.1166,-1.1814,-1.2559,-1.2881,-1.2881,-1.2881,-1.2929,-1.3017,-1.3017,-1.3017,-1.3065,-1.3684,-1.3552,0.0,0.0,0.0,0.0,-1.5129,-1.5543,-1.5588,-1.5588,-1.5632,-1.5588,-1.5062,-1.4835,-1.4778,-1.4733,-1.4665,-1.4608,-1.4496,-1.4149,-1.3916,-1.4395,-1.3706,-1.3176,-1.3802,-1.3917,-1.3903,-1.3982,-1.3564,-1.3208,-1.3208,-1.3208,-1.3069,-1.2636,-1.2607,-1.2427,-1.2002,0.0,0.0,-1.2603,-1.3526,-1.4529,-1.563,-1.7332,-1.8624,-1.9366,-2.0431,-2.1043,-2.1143,-2.2464,-2.3323,-2.3631,-2.3976,-2.417,-2.417,-2.3522,-2.3189,0.0,0.0,0.0,0.0,0.0,0.0,0.0,0.0,0.0,0.0,0.0,0.0,0.0,0.0,0.0,-0.9787,-0.8052,-0.5966,-0.3333,-0.2328,-0.1346,-0.0159,-0.0106,-0.0527,-0.1238,-0.1983,-0.2801,-0.3735,-0.4969,-0.5706,-0.5706,-0.6961,0.0,-0.7509,-0.8209,-0.8593,-0.8593,-0.8752,-0.8804,-0.8804,0.0,0.0,-0.9814,-1.0517,-1.1166,-1.1814,-1.2559,-1.2881,-1.2881,-1.2881,-1.32,-1.3647,-1.3647,-1.3647,-1.3695,-1.4283,-1.4468,-1.4387,-1.4617,-1.4606,-1.456,-1.4789,-1.5186,-1.5588,-1.5588,-1.5952,0.0,-1.6194,-1.5788,-1.5316,-1.4885,-1.4422,-1.3916,-1.3419,-1.3253,-1.3209,-1.3308,-1.3176,-1.32,-1.3871,-1.3595,-1.3462,-1.3976,-1.4335,-1.4528,-1.4528,-1.4528,-1.4344,-1.384,-1.3766,-1.3569,-1.3004,-1.2943,-1.3138,-1.3589,-1.3827,-1.4749,-1.6661,-1.8435,-1.9782,-2.0639,-2.0895,-2.135,-2.2029,-2.2539,-2.2972,-2.33,-2.3631,-2.3955,-2.417,-2.3522,-2.3189,0.0,0.0,0.0,0.0,0.0,0.0,0.0,0.0,0.0,0.0,0.0,-1.1177,-1.3152,0.0,-1.3118,-1.0893,-0.9028,-0.6795,-0.3847,-0.2578,-0.1446,-0.0151,0.0,-0.0311,-0.1011,-0.1709,-0.2427,-0.3195,-0.4543,-0.5164,-0.4752,-0.5886,-0.647,-0.647,-0.7281,-0.7883,-0.8262,-0.8593,-0.8804,-0.8804,-0.9159,-0.9666,-1.0312,-1.1015,-1.1674,-1.2344,-1.2725,-1.2881,-1.2929,-1.3248,-1.3552,-1.3862,-1.4457,-1.4503,-1.4329,-1.4915,-1.4971,-1.4801,-1.5377,-1.5421,-1.5197,-1.5511,-1.5788,-1.6051,-1.6051,-1.6238,-1.6459,-1.6183,-1.5872,-1.5526,-1.5,-1.4622,-1.4322,-1.4021,-1.3749,-1.3631,-1.3891,-1.3509,-1.3302,-1.3934,-1.3557,-1.3264,-1.3599,-1.4075,-1.4326,-1.4085,-1.4048,-1.4056,-1.3998,-1.4007,-1.396,-1.3861,-1.3835,-1.3967,-1.4181,-1.468,-1.5744,-1.7548,-1.8483,-1.9397,-2.04,-2.0649,-2.1131,-2.1928,-2.2608,-2.3045,-2.3189,-2.3692,-2.4054,-2.419,-2.3692,-2.3437,0.0,0.0,0.0,0.0,0.0,0.0,0.0,0.0,0.0564,-0.244,-0.8293,-1.3367,-1.5107,-1.5504,-1.4683,-1.1913,-0.9707,-0.7301,-0.4341,-0.2672,-0.1364,-0.0143,0.0,-0.0252,-0.0841,-0.1549,-0.2225,-0.283,-0.4281,-0.4849,-0.4264,-0.514,-0.5631,-0.5631,-0.6513,-0.7222,-0.7811,-0.8455,-0.8804,-0.8811,-0.9465,-1.0167,-1.0813,-1.1516,-1.2187,-1.2929,-1.3017,-1.3055,-1.3104,-1.3732,-1.405,-1.4226,-1.5126,-1.5224,-1.4969,-1.5552,-1.5395,-1.5047,-1.6003,-1.596,-1.555,-1.6014,-1.6195,-1.6195,-1.6195,-1.6195,-1.6107,-1.5668,-1.553,-1.5404,-1.489,-1.4752,-1.4727,-1.4614,-1.4249,-1.4047,-1.45,-1.386,-1.3358,-1.394,-1.3661,-1.3357,-1.3459,-1.3769,-1.3868,-1.3391,-1.3391,-1.3581,-1.3967,-1.4019,-1.4149,-1.447,-1.4501,-1.4533,-1.4596,-1.5616,-1.672,-1.7961,-1.813,-1.8686,-1.9773,-2.0168,-2.0754,-2.1587,-2.2503,-2.307,-2.33,-2.3837,-2.4151,-2.419,-2.3753,-2.3611,-1.412,-0.6666,0.1793,0.7488,1.0094,1.1628,0.0,0.0,-0.0073,-0.1595,-0.9127,-1.5853,-1.7161,-1.6917,-1.5716,-1.3119,-1.031,-0.7319,-0.4028,-0.2553,-0.1348,-0.0136,0.0,-0.0046,-0.0137,-0.127,-0.2024,-0.2097,-0.3973,-0.5042,-0.4992,-0.619,-0.6892,-0.6892,-0.7753,-0.8215,-0.8316,-0.8625,-0.8804,-0.8811,-0.9465,-1.0167,-1.0813,-1.1516,-1.2187,-1.2929,-1.3467,-1.3684,-1.3732,-1.4329,-1.4915,-1.5363,-1.5014,-1.5187,-1.5666,-1.6206,-1.6069,-1.5616,-1.574,-1.5414,-1.5014,-1.5053,-1.5092,-1.5092,-1.5092,-1.5092,-1.5079,-1.5016,-1.5004,-1.4878,-1.4324,-1.4173,-1.406,-1.3534,-1.3336,-1.3311,-1.3373,-1.3286,-1.3348,-1.3827,-1.3874,-1.3934,-1.4278,-1.4406,-1.4278,-1.3868,-1.4117,-1.4374,-1.4438,-1.4438,-1.4438,-1.4501,-1.4501,-1.4627,-1.5013,-1.6005,-1.6849,-1.7358,-1.7883,-1.8572,-1.9421,-1.9724,-2.0425,-2.1591,-2.1949,-2.2629,-2.3631,-2.3714,-2.3917,-2.4171,-2.3418,-2.3302,-0.9916,-0.356,0.0,0.0,1.116,1.2889,1.4415,0.7715,0.053,-0.1804,-0.9857,-1.6787,-1.7863,-1.7018,-1.5151,0.0,-0.9271,-0.6575,-0.3763,-0.2483,-0.1432,-0.0539,-0.018,0.0,0.0,-0.0807,-0.1488,-0.1876,-0.3014,-0.3837,-0.4222,-0.4824,-0.5538,-0.6247,-0.673,-0.7437,-0.8377,-0.849,-0.8557,-0.8557,-0.958,-1.0059,-1.0186,-1.1231,-1.1861,-1.2155,-1.2713,-1.2926,-1.3015,-1.3933,-1.4456,-1.4684,-1.4809,-1.5164,-1.5569,-1.5587,-1.5564,-1.5582,-1.5582,-1.5568,-1.5546,-1.5335,-1.5272,-1.5197,-1.498,-1.5057,-1.5195,-1.4872,-1.4951,-1.5021,-1.4472,-1.4326,-1.4259,-1.402,-1.3967,-1.3967,-1.3967,-1.3967,-1.4032,-1.4214,-1.4246,-1.431,-1.447,-1.469,-1.4783,-1.4627,-1.4533,-1.4596,-1.4814,-1.4845,-1.4937,-1.5225,-1.5448,-1.5608,-1.5767,-1.6409,-1.6925,-1.7283,-1.754,-1.8196,-1.9299,-1.9444,-2.0039,-2.1103,-2.1448,-2.1837,-2.2301,-2.2515,-2.2922,-2.3492,-2.3162,-2.3363,-0.6482,0.0,0.0,0.8261,1.1054,1.2938,1.4571,0.7454,-0.029,-0.3058,-1.1147,-1.7814,-1.8156,-1.67,-1.4293,-1.0797,-0.8108,-0.5647,-0.3447,-0.2348,-0.1521,-0.0853,-0.0449,-0.018,0.0,-0.0538,-0.1073,-0.1518,-0.2273,-0.2898,-0.3306,-0.3896,-0.4637,-0.554,-0.6137,-0.6978,-0.8123,-0.821,-0.825,-0.8299,-0.9475,-0.9949,-0.974,-1.1016,-1.1683,-1.1804,-1.2351,-1.2636,-1.2846,-1.3962,-1.4411,-1.4438,-1.4866,-1.5175,-1.5406,-1.4969,-1.5082,-1.5455,-1.5455,-1.5528,-1.5591,-1.5323,-1.5216,-1.518,-1.4868,-1.5013,-1.5123,-1.4746,-1.485,-1.4988,-1.4612,-1.4501,-1.4501,-1.4501,-1.4501,-1.4501,-1.4501,-1.4501,-1.4533,-1.4627,-1.4658,-1.4721,-1.4845,-1.5104,-1.5315,-1.5419,-1.5166,-1.5075,-1.5255,-1.5285,-1.5448,-1.5898,-1.6163,-1.6355,-1.6421,-1.6659,-1.6926,-1.7296,-1.7375,-1.7889,-1.8944,-1.9133,-1.9668,-2.0631,-2.0928,-2.1188,-2.1442,-2.1679,-2.2097,-2.2666,-2.2666,-2.3107,0.0,0.0,0.3003,0.6743,0.9372,1.1585,1.3588,0.5183,-0.3603,-0.5583,-1.3299,-1.9351,-1.8222,-1.6101,-1.3437,-1.0092,-0.7133,-0.4642,-0.2964,-0.2186,-0.1569,-0.0985,-0.0895,-0.0627,0.0,-0.0538,-0.0895,-0.094,-0.2006,-0.2719,-0.2719,-0.4343,-0.5275,-0.5318,-0.6698,-0.7482,-0.754,-0.7789,-0.7895,-0.7943,-0.9121,-0.9703,-0.974,-1.1016,-1.1847,-1.2298,-1.2929,-1.3477,-1.4026,-1.5019,-1.5434,-1.5457,-1.5316,-1.5291,-1.5257,-1.4699,-1.4864,-1.5291,-1.5291,-1.4974,-1.4556,-1.4525,-1.4525,-1.4525,-1.4525,-1.4525,-1.4525,-1.4497,-1.4529,-1.4529,-1.4501,-1.4501,-1.4501,-1.4501,-1.4501,-1.4501,-1.4501,-1.4501,-1.4627,-1.5013,-1.5074,-1.5225,-1.5668,-1.577,-1.587,-1.6219,-1.6258,-1.6136,-1.5827,-1.577,-1.5898,-1.6246,-1.6301,-1.6421,-1.6763,-1.6789,-1.6926,-1.7296,-1.7551,-1.7859,-1.8222,-1.8732,-1.9398,-2.0192,-2.0422,-2.0943,-2.1785,-2.1785,-2.1821,-2.1839,-2.1839,-2.2263,-0.2807,0.0,0.3597,0.6529,0.8038,0.8851,0.8947,0.2576,-0.4158,-0.7024,-1.3476,-1.8159,-1.6678,-1.4452,-1.1547,-0.7621,-0.4725,-0.2726,-0.2043,-0.1205,-0.0626,-0.0758,-0.0505,0.0,0.0,0.0,0.0,-0.0851,-0.1297,-0.1873,-0.2672,-0.3243,-0.4121,-0.526,-0.5766,-0.651,-0.7506,-0.7569,-0.7804,-0.8168,-0.9128,-0.976,-1.0123,-1.0845,-1.1281,-1.1481,-1.237,-1.2996,-1.347,-1.4145,-1.462,-1.4816,-1.479,-1.4934,-1.5142,-1.4961,-1.5203,-1.5589,-1.5296,-1.5246,-1.5329,-1.5013,-1.4907,-1.4845,-1.4596,-1.469,-1.4907,-1.4907,-1.5134,-1.5359,-1.5359,-1.5359,-1.5359,-1.5359,-1.5359,-1.5359,-1.5359,-1.5023,-1.4934,-1.5749,-1.5533,-1.5503,-1.6316,-1.6448,-1.6501,-1.6607,-1.6633,-1.6581,-1.6474,-1.6448,-1.6501,-1.6607,-1.6825,-1.7027,-1.7126,-1.7337,-1.7595,-1.7871,-1.7984,-1.8235,-1.8715,-1.8914,-1.9196,-1.9598,-1.9804,-2.0055,-2.0352,-2.0998,-2.1611,-2.2144,-2.2582,-2.3223,-0.1176,0.1134,0.3181,0.4926,0.566,0.553,0.3791,-0.0779,-0.5974,-1.0687,-1.5148,-1.7712,-1.6059,-1.3062,-0.9456,-0.5303,-0.205,0.0,0.0089,0.0223,0.0222,-0.0089,0.0,0.0377,0.0,0.0,0.0,-0.0137,-0.0365,-0.0957,-0.1954,-0.2642,-0.3591,-0.4957,-0.5394,-0.6076,-0.7045,-0.722,-0.7694,-0.8435,-0.9168,-0.9881,-1.0575,-1.0847,-1.1212,-1.159,-1.2354,-1.2973,-1.3424,-1.4071,-1.447,-1.4721,-1.4907,-1.518,-1.5536,-1.5536,-1.5811,-1.608,-1.5536,-1.5551,-1.5741,-1.5448,-1.5433,-1.5448,-1.5059,-1.524,-1.5507,-1.5374,-1.558,-1.5799,-1.5799,-1.5799,-1.5799,-1.5799,-1.587,-1.5983,-1.5983,-1.5716,-1.5695,-1.6343,-1.6114,-1.6034,-1.6684,-1.6917,-1.7002,-1.7109,-1.715,-1.7068,-1.6841,-1.6789,-1.6841,-1.6952,-1.7256,-1.7476,-1.7608,-1.7893,-1.8146,-1.833,-1.843,-1.8623,-1.9002,-1.9069,-1.9198,-1.9394,-1.9527,-1.9623,-1.9669,-2.0634,-2.1362,-2.1897,-2.2905,-2.3652,-0.0609,0.089,0.1808,0.2037,0.2373,0.1799,-0.1496,-0.4756,-0.9061,-1.6014,-1.8065,-1.7985,0.0,0.0,-0.7071,-0.2793,0.1116,0.3541,0.3407,0.2144,0.1147,0.0,0.0,0.0,0.0,0.0,0.0,0.1288,0.0,0.0,-0.0613,-0.24,-0.3719,-0.4343,-0.5524,-0.6184,-0.6184,-0.6768,-0.7641,-0.8756,-0.931,-1.0087,-1.0997,-1.1033,-1.1616,-1.2532,-1.296,-1.347,-1.4019,-1.4783,-1.5104,-1.5165,-1.5639,-1.6011,-1.6301,-1.6328,-1.6528,-1.6712,-1.6067,-1.5856,-1.5856,-1.5856,-1.6067,-1.6274,-1.5955,-1.6067,-1.6274,-1.5926,-1.5826,-1.5796,-1.5796,-1.5796,-1.5796,-1.5796,-1.6093,-1.634,-1.634,-1.6575,-1.6802,-1.685,-1.6876,-1.6876,-1.6876,-1.7175,-1.7452,-1.7693,-1.7805,-1.7612,-1.6968,-1.6866,-1.7002,-1.7327,-1.7597,-1.7864,-1.8187,-1.845,-1.8604,-1.8623,-1.8861,-1.9018,-1.9035,-1.9212,-1.9409,-1.9596,-1.9609,-1.9682,-1.9802,-2.0743,-2.119,-2.1228,-2.2829,-2.3585,0.0397,0.0965,0.1168,0.0687,0.0023,-0.1397,-0.4753,-0.7659,-1.0994,-1.5701,-1.7895,-1.7019,0.0,0.0,0.0,0.511,0.7907,0.0,0.6514,0.57,0.0,0.3026,0.0,0.296,0.3694,0.3554,0.0,0.0,0.1706,0.0617,0.0,-0.141,-0.2711,-0.3676,-0.4904,-0.5744,-0.6179,-0.7558,-0.8626,-0.9319,-1.0205,-1.0761,-1.1033,-1.1771,-1.2424,-1.296,-1.3496,-1.409,-1.4814,-1.5013,-1.5329,-1.5668,-1.6024,-1.6219,-1.6328,-1.6581,-1.6738,-1.6789,-1.6607,-1.6554,-1.6554,-1.6554,-1.6607,-1.6659,-1.6581,-1.6607,-1.6659,-1.6581,-1.615,-1.5732,-1.5732,-1.5732,-1.5732,-1.5732,-1.6367,-1.6979,-1.6979,-1.6799,-1.6879,-1.7606,-1.7975,-1.8135,-1.8135,-1.8214,-1.8296,-1.8356,-1.8373,-1.8252,-1.7876,-1.7832,-1.7941,-1.8235,-1.8316,-1.8413,-1.8489,-1.8547,-1.8735,-1.9026,-1.9107,-1.9295,-1.9574,-1.9645,-1.9713,-1.975,-1.9847,-1.9903,-1.9953,-2.1579,-2.2365,-2.2403,-2.3912,-2.4626,0.1087,0.1005,0.0613,-0.0201,-0.1479,-0.3372,-0.6593,-0.9244,-1.2021,-1.5428,-1.5816,0.0,0.0,0.0,0.0,0.0,0.0,0.0,1.0376,0.9138,0.7706,0.0,0.5145,0.0,0.558,0.5255,0.5022,0.0,0.3097,0.1518,0.0661,-0.0682,-0.1954,-0.3108,-0.4295,-0.5308,-0.6179,-0.7848,-0.8837,-0.9159,-1.0407,-1.1106,-1.138,-1.2035,-1.2568,-1.3058,0.0,-1.3997,-1.4455,-1.5114,-1.5525,-1.5802,-1.6311,-1.668,-1.6928,-1.7142,-1.7365,-1.7574,-1.7574,-1.7574,-1.7505,-1.6977,-1.6917,-1.7027,-1.6978,-1.701,-1.7035,-1.7134,-1.6515,-1.5838,-1.5945,-1.57,-1.5538,-1.5984,-1.6634,-1.7283,-1.7687,-1.7441,-1.7294,-1.7861,-1.811,-1.8409,-1.8868,-1.8855,-1.8821,-1.8922,-1.8855,-1.8769,-1.8734,-1.8555,-1.8516,-1.8663,-1.8857,-1.8957,-1.8957,-1.9057,-1.9213,-1.9462,-1.9462,-1.9556,-1.9778,-1.979,-1.9824,-1.989,-1.9991,-2.0079,-2.0143,-2.1968,-2.284,-2.288,-2.4426,-2.5122,0.1684,0.1121,0.0265,-0.0831,-0.2486,-0.4652,-0.7651,-1.0161,-1.2589,-1.5117,0.0,-0.9586,-0.5924,0.1799,0.8815,1.2539,0.0,1.6732,1.4628,1.2686,1.077,0.8711,0.8028,0.7709,0.7666,0.7224,0.6924,0.6836,0.4751,0.2884,0.1507,0.0045,-0.1407,-0.278,-0.3916,-0.5096,-0.6386,-0.7923,-0.8772,-0.8913,-1.0376,-1.1308,-1.1745,-1.2029,-1.2471,-1.2998,0.0,0.0,-1.376,-1.5159,-1.5751,-1.5831,-1.6661,-1.7294,-1.7759,-1.7803,-1.8087,-1.8426,-1.8463,-1.8446,-1.8313,-1.7356,-1.7231,-1.7452,-1.7409,-1.7353,-1.7349,-1.7543,-1.6761,-1.5927,-1.6136,-1.5666,-1.5363,-1.6246,-1.6764,-1.731,-1.8121,-1.799,-1.7765,-1.7866,-1.7884,-1.8233,-1.9282,-1.9285,-1.9198,-1.9431,-1.9267,-1.9212,-1.9428,-1.9124,-1.8903,-1.8935,-1.9243,-1.946,-1.946,-1.9688,-1.9828,-1.9847,-1.9847,-1.987,-1.9885,-1.9866,-1.9931,-2.005,-2.0117,-2.0202,-2.033,-2.1945,-2.2808,-2.2939,-2.4447,-2.5226,0.2646,0.175,0.0625,-0.1583,-0.3716,-0.5987,-0.885,-1.1441,0.0,0.0,-1.1761,-0.7066,-0.0429,0.5978,1.2401,1.8995,0.0,0.0,0.0,0.0,1.538,0.0,0.0,0.0,0.0,0.0,0.0,0.0,0.0,0.0,0.3426,0.1097,-0.1134,-0.3278,-0.44,-0.5797,-0.7507,-0.8325,-0.9103,-0.9936,-1.0882,-1.1369,-1.1418,-1.2099,-1.2789,-1.3397,0.0,0.0,-1.4499,-1.5577,-1.6014,-1.6147,-1.7393,-1.7941,-1.8063,-1.8338,-1.8086,-1.763,-1.7665,-1.7732,-1.7841,-1.8186,-1.8316,-1.8373,-1.8356,-1.7901,-1.7412,-1.7489,-1.6461,-1.536,-1.5533,-1.545,-1.5408,-1.5638,-1.6317,-1.6992,-1.7209,-1.734,-1.7574,-1.8255,-1.8377,-1.868,-1.9652,-1.9771,-1.9755,-1.9806,-1.9763,-1.9752,-1.9813,-1.9508,-1.9383,-1.9601,-1.9738,-1.9819,-1.9819,-1.99,-2.0009,-2.0115,-2.0134,-2.0177,-2.0284,-2.0293,-2.0301,-2.0326,-2.0337,-2.0371,-2.0381,-2.1415,-2.2287,-2.3004,-2.3947,-2.4774,0.4023,0.2831,0.1306,-0.1246,-0.3944,-0.6742,-0.9699,0.0,0.0,0.0,-0.8963,-0.2961,0.2364,0.0,0.0,0.0,0.0,0.0,0.0,0.0,0.0,0.0,0.0,0.0,0.0,0.0,0.0,0.0,0.0,0.0,0.4113,0.137,-0.0884,-0.2563,-0.3873,-0.5063,-0.6115,-0.7648,-0.861,-0.9143,-1.0614,-1.1325,-1.1323,-1.217,-1.2726,-1.3031,-1.3183,0.0,-1.3992,-1.5,-1.5765,-1.641,-1.7452,-1.8235,-1.8746,-1.8501,-1.8213,-1.7972,-1.8041,-1.8088,-1.818,-1.8544,-1.8445,-1.812,-1.7804,-1.7343,-1.699,-1.7308,-1.646,-1.5499,-1.5706,-1.5399,-1.5174,-1.5696,-1.6496,-1.7054,-1.6714,-1.7066,-1.7563,-1.7902,-1.8405,-1.9001,-1.9809,-2.0042,-2.0115,-2.0114,-2.0109,-2.0113,-2.0102,-1.9967,-1.99,-1.9998,-2.0078,-2.0119,-2.0164,-2.0161,-2.021,-2.0296,-2.0308,-2.0332,-2.039,-2.0396,-2.0396,-2.0396,-2.0422,-2.0453,-2.0443,-2.1335,-2.2193,-2.3065,-2.3831,-2.4663,0.5547,0.419,0.2373,-0.0616,-0.3775,-0.7024,-1.0231,-1.2521,0.0,0.0,-0.603,0.0993,0.4043,0.0,1.968,0.0,0.0,0.0,0.0,0.0,0.0,0.0,0.0,0.0,0.0,0.0,0.0,0.0,0.0,0.0,0.4251,0.1779,-0.0114,-0.1294,-0.2847,-0.4,-0.476,-0.6981,-0.8228,-0.8521,-1.0457,-1.1417,-1.15,-1.2302,-1.2741,-1.2858,-1.3069,0.0,0.0,-1.4598,-1.5551,-1.6447,-1.7252,-1.8143,-1.8895,-1.8252,-1.7996,-1.7994,-1.8059,-1.8097,-1.8088,-1.7975,-1.7967,-1.7876,-1.7184,-1.6727,-1.6496,-1.6945,-1.6324,-1.5584,-1.5802,-1.526,-1.4843,-1.5541,-1.6253,-1.6633,-1.6223,-1.6674,-1.7252,-1.7586,-1.8282,-1.9059,-1.9772,-2.0065,-2.0189,-2.0133,-2.0133,-2.0135,-2.0123,-2.0084,-2.0039,-1.9987,-2.0168,-2.0326,-2.0377,-2.0336,-2.0339,-2.0404,-2.0404,-2.0404,-2.0404,-2.0404,-2.0404,-2.0404,-2.0452,-2.0482,-2.0482,-2.1177,-2.207,-2.3105,-2.3705,-2.4539,0.7096,0.5856,0.3956,-0.0187,-0.3497,-0.6715,-1.034,0.0,0.0,-1.1976,-0.3939,0.3383,0.5227,1.3515,0.0,0.0,0.0,2.2959,0.0,0.0,0.0,0.0,0.0,0.0,0.0,0.0,0.0,0.0,0.0,0.0,0.0,0.3103,0.182,0.0252,-0.1578,-0.3456,-0.5322,-0.7115,-0.8579,-0.9763,-1.1107,-1.1832,-1.1948,-1.2594,-1.3143,-1.3601,0.0,0.0,0.0,-1.5301,-1.5805,-1.6059,-1.7046,-1.7496,-1.7577,-1.7424,-1.6925,-1.6342,-1.639,-1.6461,-1.6397,-1.5747,-1.6935,-1.8455,-1.7542,-1.6744,-1.6152,-1.6274,-1.5667,-1.4994,-1.5077,-1.487,-1.4585,-1.4488,-1.4576,-1.4836,-1.5447,-1.5646,-1.6182,-1.782,-1.8221,-1.8538,-1.9397,-1.977,-1.984,-1.962,-1.9582,-1.9577,-1.9566,-1.9368,-1.9222,-1.9288,-1.9891,-2.0292,-2.0313,-2.0369,-2.0393,-2.0396,-2.0396,-2.0396,-2.0396,-2.0396,-2.0396,-2.0396,-2.0405,-2.0408,-2.0408,-2.0542,-2.1465,-2.3105,-2.3229,-2.4124,0.8536,0.6776,0.4257,0.0323,-0.3326,-0.6784,-1.0043,0.0,-1.2932,-1.1653,-0.3853,0.3973,0.8064,1.4245,1.9184,0.0,0.0,0.0,0.0,0.0,0.0,0.0,0.0,0.0,0.0,0.0,0.0,0.0,0.0,0.0,0.0,0.4739,0.265,0.0989,-0.1083,-0.2925,-0.4464,-0.7015,-0.8692,-0.944,-1.1351,-1.2313,-1.2391,-1.3191,-1.3674,-1.3895,0.0,0.0,0.0,-1.4912,-1.5506,-1.6169,-1.6586,-1.7081,-1.751,-1.7009,-1.6555,-1.6222,-1.6305,-1.6295,-1.6204,-1.5946,-1.6421,-1.6926,-1.6151,-1.5602,-1.5254,-1.5247,-1.4901,-1.4515,-1.4413,-1.4107,-1.3739,-1.3422,-1.3509,-1.3877,-1.4617,-1.5187,-1.5867,-1.6973,-1.7826,-1.8388,-1.8481,-1.8794,-1.8951,-1.865,-1.8602,-1.8441,-1.8053,-1.8254,-1.828,-1.7928,-1.8895,-1.9659,-1.9868,-1.9873,-1.9942,-2.0159,-2.015,-2.015,-2.015,-2.015,-2.015,-2.015,-2.015,-2.0196,-2.0283,-2.0307,-2.1266,-2.3046,-2.306,-2.396,0.9668,0.7833,0.5142,0.1211,-0.2403,-0.5916,0.0,-1.1212,-1.1959,-1.1172,-0.3648,0.4254,0.9033,1.4413,1.8533,0.0,0.0,2.0896,0.0,0.0,0.0,0.0,0.0,0.0,0.0,0.0,0.0,0.0,0.0,0.0,0.0,0.6961,0.4551,0.2655,0.0356,-0.1758,-0.371,-0.6719,-0.8809,-0.9994,-1.2037,-1.3025,-1.3071,-1.3799,-1.4156,-1.4219,0.0,0.0,0.0,-1.4685,-1.5136,-1.5834,-1.5834,-1.6226,-1.6731,-1.6088,-1.5827,-1.5803,-1.5788,-1.5728,-1.5658,-1.5684,-1.5567,-1.5287,-1.4769,-1.4555,-1.4475,-1.4411,-1.4158,-1.3846,-1.3686,-1.3396,-1.3105,-1.2918,-1.2945,-1.3249,-1.4147,-1.4682,-1.5285,-1.6163,-1.7082,-1.7631,-1.7299,-1.7455,-1.7498,-1.7193,-1.6984,-1.6714,-1.6234,-1.6762,-1.7016,-1.6557,-1.7663,-1.8645,-1.922,-1.9381,-1.9564,-1.9806,-1.9825,-1.9825,-1.9825,-1.9825,-1.9825,-1.9825,-1.9892,-1.9996,-2.0077,-2.0095,-2.1074,-2.2906,-2.2873,-2.3601,1.0399,0.9203,0.7099,0.2596,-0.0497,-0.3659,0.0,-0.998,-1.0494,-1.0328,-0.2845,0.4494,0.7156,1.3908,1.9118,1.9205,0.0,0.0,0.0,0.0,0.0,0.0,0.0,0.0,0.0,0.0,0.0,0.0,0.0,0.0,0.0,0.9798,0.8138,0.5733,0.3173,0.0184,-0.3274,-0.6104,-0.9031,-1.208,-1.338,-1.401,-1.4095,-1.4304,-1.4499,0.0,0.0,0.0,0.0,-1.4896,-1.4839,-1.4714,-1.4714,-1.4716,-1.4709,-1.4411,-1.4435,-1.4581,-1.4393,-1.4309,-1.4309,-1.4327,-1.4131,-1.3912,-1.3765,-1.3849,-1.3991,-1.3928,-1.3422,-1.2908,-1.2833,-1.2814,-1.2886,-1.3228,-1.2883,-1.2843,-1.4127,-1.3983,-1.4081,-1.5598,-1.5925,-1.5925,-1.5925,-1.5718,-1.5427,-1.5177,-1.4616,-1.4247,-1.4247,-1.4877,-1.5314,-1.5339,-1.6209,-1.7279,-1.8412,-1.9052,-1.9404,-1.9423,-1.9423,-1.9423,-1.9423,-1.9423,-1.9423,-1.9423,-1.9681,-1.979,-1.9802,-1.9882,-2.0872,-2.2695,-2.2565,-2.2951,1.0387,0.8781,0.6419,0.2712,-0.0367,-0.3375,-0.6898,-0.8855,-0.9193,-0.6475,-0.1343,0.4871,1.2083,1.5597,1.8095,2.0289,0.0,0.0,0.0,0.0,0.0,0.0,0.0,0.0,0.0,0.0,0.0,0.0,0.0,0.0,0.0,1.1483,0.9566,0.6739,0.3794,0.0933,-0.1773,-0.7036,-0.9832,-1.0138,-1.206,-1.2785,-1.2453,-1.261,0.0,0.0,0.0,0.0,0.0,-1.4144,-1.4191,-1.415,-1.415,-1.4143,-1.4146,-1.4065,-1.3881,-1.3715,-1.3651,-1.3587,-1.3504,-1.328,-1.3073,-1.2823,-1.2562,-1.2736,-1.2941,-1.2472,-1.2066,-1.1817,-1.1952,-1.1813,-1.1691,-1.1885,-1.1723,-1.1858,-1.3052,-1.3167,-1.3439,-1.4698,-1.4833,-1.468,-1.4456,-1.4213,-1.393,-1.3575,-1.3714,-1.3687,-1.3226,-1.4334,-1.4975,-1.4545,-1.5676,-1.6871,-1.788,-1.8141,-1.8427,-1.884,-1.8857,-1.8857,-1.8857,-1.8857,-1.9092,-1.9597,-1.9366,-1.946,-1.9868,-1.975,-2.0646,-2.2441,-2.2948,-2.3035,1.0492,0.8717,0.6421,0.3466,0.0392,-0.2705,-0.5627,-0.7433,-0.7497,-0.3974,0.0171,0.5822,1.4475,1.6777,1.8101,2.0337,2.0889,0.0,0.0,0.0,0.0,0.0,0.0,0.0,0.0,0.0,0.0,0.0,0.0,0.0,0.0,0.0,1.0406,0.8366,0.5354,0.2242,-0.0917,-0.5734,-0.8613,-0.9568,-1.107,-1.1661,-1.1485,-1.1558,0.0,0.0,0.0,0.0,0.0,-1.3129,-1.3221,-1.3158,-1.3286,-1.327,-1.3143,-1.3194,-1.3021,-1.2773,-1.2669,-1.2541,-1.237,-1.2151,-1.1856,-1.1463,-1.0883,-1.1253,-1.178,-1.1327,-1.0986,-1.0853,-1.1226,-1.1198,-1.1104,-1.1414,-1.1243,-1.1295,-1.223,-1.2389,-1.2641,-1.3559,-1.3623,-1.3459,-1.3243,-1.2759,-1.2291,-1.2047,-1.2155,-1.2237,-1.2211,-1.3403,-1.427,-1.435,-1.5417,-1.6459,-1.7294,-1.7557,-1.7847,-1.8238,-1.8373,-1.845,-1.845,-1.845,-1.8801,-1.9535,-1.9354,-1.9593,-2.0235,-2.0323,-2.0786,-2.1625,-2.2135,-2.2054,0.0,0.8936,0.7021,0.4681,0.1616,-0.152,-0.4325,-0.5492,0.0,-0.2211,0.2012,0.7406,1.4785,1.7489,1.8875,1.9743,0.0,0.0,0.0,0.0,0.0,0.0,0.0,0.0,0.0,0.0,0.0,0.0,0.0,0.0,0.0,0.0,1.0698,1.0287,0.7576,0.4029,-0.0347,-0.2778,-0.5925,-0.9781,-1.0226,-1.0567,-1.0853,-1.0843,0.0,0.0,0.0,0.0,0.0,-1.1956,-1.1976,-1.1887,-1.2191,-1.2117,-1.1882,-1.201,-1.1923,-1.1764,-1.1568,-1.1293,-1.1005,-1.0982,-1.0555,-0.9892,-0.8939,-0.954,-1.0527,-1.0353,-1.0087,-0.9976,-1.0632,-1.084,-1.1005,-1.1589,-1.1275,-1.0972,-1.1581,-1.1653,-1.1773,-1.2329,-1.2356,-1.2323,-1.2355,-1.1446,-1.0714,-1.0686,-1.031,-1.0366,-1.1322,-1.2306,-1.337,-1.4674,-1.5407,-1.6052,-1.6712,-1.7294,-1.7648,-1.767,-1.7984,-1.8166,-1.8166,-1.8166,-1.8547,-1.932,-1.9598,-2.004,-2.0735,-2.1223,-2.113,-2.0526,-2.0519,-2.0456,1.0374,0.0,0.7626,0.469,0.2617,0.0755,0.0,-0.1343,0.0,0.3502,0.0,1.0553,1.6384,1.8047,1.9178,0.0,0.0,0.0,0.0,0.0,0.0,0.0,0.0,0.0,0.0,0.0,0.0,0.0,0.0,0.0,0.0,0.0,1.0557,0.993,0.8265,0.5865,0.2695,-0.2258,-0.5383,-0.6666,-0.8145,-0.8633,-0.8273,-0.8316,0.0,0.0,0.0,0.0,-1.0424,-1.0703,-1.1073,-1.1439,-1.1541,-1.1519,-1.1439,-1.1483,-1.1142,-1.0674,-1.063,-1.0387,-1.0055,-0.9805,-0.9238,-0.8634,-0.8381,-0.8732,-0.9042,-0.846,-0.8705,-0.927,-0.984,-1.021,-1.0555,-1.1073,-1.0516,-1.0047,-1.0616,-1.0686,-1.0854,-1.1596,-1.1611,-1.1553,-1.1816,-1.1293,-1.0784,-1.0507,-1.0937,-1.1455,-1.1947,-1.3052,-1.4113,-1.4935,-1.5506,-1.5955,-1.6367,-1.6773,-1.7134,-1.7375,-1.771,-1.7883,-1.7883,-1.7883,-1.8512,-1.9821,-1.9887,-1.9941,-1.9959,-1.9923,-2.022,-2.0827,-2.0809,-2.109,1.0663,0.9266,0.7653,0.5674,0.4075,0.2943,0.2705,0.268,0.3801,0.0,0.0,1.267,1.7057,1.8704,0.0,0.0,0.0,0.0,0.0,0.0,0.0,0.0,0.0,0.0,0.0,0.0,0.0,0.0,0.0,0.0,0.0,0.0,0.9699,0.8905,0.7641,0.5795,0.3313,-0.088,-0.3522,-0.4604,-0.5981,-0.6664,-0.6672,-0.6835,0.0,0.0,0.0,0.0,-0.8825,-0.9136,-0.9559,-1.0027,-1.0074,-1.014,-1.0169,-1.0328,-1.0045,-0.9598,-0.9405,-0.9103,-0.8781,-0.8408,-0.8027,-0.7618,-0.7259,-0.7415,-0.7694,-0.7652,-0.7998,-0.847,-0.8964,-0.9397,-0.9761,-1.0005,-0.9823,-0.9737,-1.0295,-1.0587,-1.1053,-1.2033,-1.1898,-1.177,-1.2243,-1.1702,-1.1116,-1.0851,-1.1214,-1.1685,-1.2181,-1.3105,-1.4107,-1.5074,-1.5575,-1.5926,-1.6274,-1.649,-1.6773,-1.7272,-1.7479,-1.7658,-1.7789,-1.7811,-1.8312,-1.9461,-1.9816,-1.9839,-1.951,-1.9404,-1.9524,-1.9843,-2.0072,-2.0394,1.1294,0.9749,0.8067,0.7363,0.6212,0.5602,0.6955,0.0,0.0,0.0,0.0,0.0,0.0,1.947,0.0,0.0,0.0,0.0,0.0,0.0,0.0,0.0,0.0,0.0,0.0,0.0,0.0,0.0,0.0,0.0,0.0,0.0,0.0,0.7757,0.6655,0.5093,0.3049,0.0746,-0.1332,-0.3153,-0.4079,-0.4895,-0.5573,-0.5886,-0.613,0.0,0.0,0.0,-0.7316,-0.7597,-0.8015,-0.8463,-0.8573,-0.8692,-0.8844,-0.9123,-0.9,-0.8651,-0.8199,-0.7829,-0.753,-0.7148,-0.6969,-0.6811,-0.6183,-0.616,-0.6484,-0.7297,-0.7607,-0.7816,-0.8194,-0.8755,-0.9205,-0.9205,-0.9483,-0.9881,-1.0465,-1.0921,-1.1552,-1.2691,-1.2481,-1.2281,-1.2827,-1.2188,-1.1563,-1.1343,-1.1343,-1.1609,-1.2263,-1.2965,-1.3864,-1.5132,-1.5594,-1.5926,-1.6274,-1.6246,-1.6512,-1.7231,-1.7296,-1.7439,-1.7789,-1.7912,-1.8268,-1.8877,-1.9519,-1.9641,-1.9228,-1.9125,-1.8978,-1.8818,-1.9113,-1.9366,1.2068,1.1687,1.0831,0.9753,0.9773,1.0161,1.0624,0.0,0.0,0.0,0.0,0.0,0.0,0.0,0.0,0.0,0.0,0.0,0.0,0.0,0.0,0.0,0.0,0.0,0.0,0.0,0.0,0.0,0.0,0.0,0.0,0.0,0.0,0.7416,0.6756,0.5678,0.409,0.1635,-0.038,-0.1965,-0.3128,-0.398,-0.4547,-0.4982,-0.5351,0.0,0.0,-0.6383,-0.6805,-0.6865,-0.7428,-0.825,-0.8264,-0.8495,-0.8816,-0.886,-0.8651,-0.8269,-0.7521,-0.7227,-0.7118,-0.6721,-0.6366,-0.6129,-0.6336,-0.5975,-0.5655,-0.6462,-0.7221,-0.7803,-0.7866,-0.9018,-1.0207,-1.0207,-1.0209,-1.044,-1.13,-1.1174,-1.1101,-1.1858,-1.215,-1.2221,-1.2029,-1.1866,-1.1652,-1.1363,-1.1557,-1.1936,-1.2563,-1.3269,-1.4086,-1.5038,-1.5535,-1.5926,-1.6274,-1.6039,-1.6285,-1.7248,-1.7296,-1.7439,-1.7789,-1.8403,-1.8775,-1.8894,-1.9012,-1.9036,-1.8965,-1.8336,-1.8625,-1.9777,-1.9226,-1.9661,1.1887,1.2202,1.2377,1.2936,1.282,1.2685,1.3075,1.4575,0.0,0.0,0.0,0.0,0.0,0.0,0.0,0.0,0.0,0.0,0.0,0.0,0.0,0.0,0.0,0.0,0.0,0.0,0.0,0.0,0.0,0.0,0.0,0.0,0.0,0.0,0.6232,0.533,0.4095,0.2808,0.1287,-0.0475,-0.1861,-0.2797,-0.329,-0.4063,-0.4494,-0.467,0.0,-0.5604,-0.5843,-0.5983,-0.6466,-0.7131,-0.7202,-0.7493,-0.7917,-0.8129,-0.7984,-0.7627,-0.7491,-0.7127,-0.6781,-0.6811,-0.654,-0.6244,-0.6457,-0.6397,-0.6336,-0.6721,-0.695,-0.7191,-0.7633,-0.8509,-0.935,-0.971,-1.0189,-1.0756,-1.1437,-1.1728,-1.2058,-1.2804,-1.2774,-1.2682,-1.2893,-1.2736,-1.2502,-1.2199,-1.2287,-1.2453,-1.2568,-1.3193,-1.3856,-1.4471,-1.4888,-1.5344,-1.5983,-1.5653,-1.5866,-1.6977,-1.7368,-1.7658,-1.7789,-1.7937,-1.8033,-1.8033,-1.7864,-1.7782,-1.7765,-1.7622,-1.7876,-1.8551,-1.8788,-1.9266,1.1983,1.2693,1.3499,1.5491,0.0,1.4531,1.523,1.6242,0.0,0.0,0.0,0.0,0.0,0.0,0.0,0.0,0.0,0.0,0.0,0.0,0.0,0.0,0.0,0.0,0.0,0.0,0.0,0.0,0.0,0.0,0.0,0.0,0.0,0.0,0.59,0.5106,0.4098,0.3751,0.2688,0.0866,-0.0453,-0.1402,-0.2003,-0.2977,-0.355,-0.3832,-0.4532,-0.4894,-0.502,-0.5224,-0.5684,-0.6257,-0.635,-0.6748,-0.7285,-0.7579,-0.7432,-0.7118,-0.7353,-0.6957,-0.6397,-0.6609,-0.654,-0.6366,-0.648,-0.6721,-0.699,-0.7187,-0.694,-0.682,-0.7618,-0.8286,-0.8883,-0.9392,-1.0266,-1.115,-1.1725,-1.2327,-1.2973,-1.3677,-1.3388,-1.315,-1.3502,-1.3327,-1.3037,-1.2854,-1.2814,-1.2747,-1.2603,-1.3124,-1.3645,-1.3993,-1.4396,-1.4968,-1.5741,-1.5433,-1.5651,-1.6633,-1.724,-1.7566,-1.7566,-1.7337,-1.7175,-1.7175,-1.6926,-1.6789,-1.6789,-1.7052,-1.7281,-1.7445,-1.82,-1.8581,1.3184,1.3886,1.439,1.6401,1.6465,0.0,1.7414,1.7557,0.0,1.8174,0.0,0.0,0.0,0.0,0.0,0.0,0.0,0.0,0.0,0.0,0.0,0.0,0.0,0.0,0.0,0.0,0.0,0.0,0.0,0.0,0.0,0.0,0.0,0.0,0.0,0.5672,0.4646,0.4126,0.3141,0.17,0.1032,0.0197,-0.0757,-0.1586,-0.2523,-0.3556,-0.3853,-0.4268,-0.4726,-0.4745,-0.5402,-0.6391,-0.6396,-0.6907,-0.7656,-0.7686,-0.7432,-0.7059,-0.67,-0.6305,-0.5882,-0.5554,-0.5672,-0.6006,-0.6397,-0.6518,-0.67,-0.7442,-0.7373,-0.7237,-0.8042,-0.9164,-1.0066,-1.0123,-1.0866,-1.1784,-1.2694,-1.2922,-1.3084,-1.3465,-1.35,-1.3267,-1.269,-1.2595,-1.2554,-1.254,-1.254,-1.2603,-1.2835,-1.3246,-1.3598,-1.3866,-1.4599,-1.5255,-1.577,-1.5636,-1.5777,-1.6285,-1.6686,-1.6866,-1.6866,-1.6841,-1.6841,-1.6841,-1.6815,-1.6789,-1.6789,-1.6815,-1.7187,-1.7851,-1.7543,-1.7625,1.2988,1.3921,1.4869,1.5925,1.591,0.0,0.0,1.6838,1.7054,1.7517,1.7905,0.0,0.0,0.0,0.0,0.0,0.0,0.0,0.0,0.0,0.0,0.0,0.0,0.0,0.0,0.0,0.0,0.0,0.0,0.0,0.0,0.0,0.0,0.0,0.0,0.5624,0.4962,0.4409,0.3805,0.3093,0.1768,0.0791,0.011,-0.0944,-0.1688,-0.2181,-0.3216,-0.3757,-0.3991,-0.4507,-0.5114,-0.5857,-0.6571,-0.7197,-0.7666,-0.7403,-0.7246,-0.705,-0.6631,-0.6244,-0.5913,-0.6006,-0.616,-0.6336,-0.6751,-0.7038,-0.7324,-0.7608,-0.7773,-0.7927,-0.8223,-0.8663,-0.9181,-0.9809,-1.039,-1.1007,-1.1797,-1.2058,-1.2237,-1.2399,-1.2438,-1.2365,-1.2092,-1.23,-1.2509,-1.2509,-1.2749,-1.2981,-1.3081,-1.3238,-1.3467,-1.3875,-1.4406,-1.469,-1.4627,-1.4817,-1.5107,-1.5536,-1.6351,-1.6789,-1.6789,-1.6607,-1.6474,-1.6474,-1.6301,-1.6163,-1.6163,-1.6382,-1.6627,-1.6905,-1.6953,-1.7071,1.2658,1.3631,1.4735,0.0,0.0,0.0,1.5735,1.5788,1.5895,1.6222,1.683,0.0,0.0,0.0,0.0,0.0,0.0,0.0,0.0,0.0,0.0,0.0,0.0,0.0,0.0,0.0,0.0,0.0,0.0,0.0,0.0,0.0,0.0,0.0,0.0,0.5635,0.5242,0.4697,0.4305,0.4004,0.2725,0.1793,0.1132,0.0044,-0.0704,-0.1231,-0.2331,-0.3006,-0.3376,-0.4126,-0.4884,-0.5606,-0.6451,-0.6999,-0.7294,-0.6999,-0.6841,-0.6691,-0.6397,-0.6037,-0.5765,-0.6037,-0.6305,-0.654,-0.682,-0.7285,-0.7695,-0.7695,-0.7899,-0.8119,-0.8119,-0.828,-0.8667,-0.9497,-0.9996,-1.0463,-1.1061,-1.1477,-1.1757,-1.1805,-1.1811,-1.1811,-1.1811,-1.2066,-1.2318,-1.2473,-1.2756,-1.3012,-1.3198,-1.3198,-1.3391,-1.3835,-1.4032,-1.4084,-1.4084,-1.4214,-1.447,-1.4876,-1.5651,-1.62,-1.6474,-1.6274,-1.608,-1.5909,-1.5711,-1.5522,-1.5389,-1.5754,-1.5909,-1.5909,-1.6421,-1.6581,1.2382,1.3114,0.0,0.0,0.0,0.0,1.5363,1.4668,1.4076,1.4272,0.0,0.0,0.0,0.0,0.0,0.0,0.0,0.0,0.0,0.0,0.0,0.0,0.0,0.0,0.0,0.0,0.0,0.0,0.0,0.0,0.0,0.0,0.0,0.0,0.0,0.0,0.5511,0.4971,0.4567,0.4305,0.4025,0.3382,0.2376,0.1573,0.0441,-0.0905,-0.1187,-0.1901,-0.2937,-0.3619,-0.4641,-0.5818,-0.6019,-0.6252,-0.651,-0.6471,-0.6236,-0.5882,-0.5875,-0.5609,-0.5277,-0.5277,-0.5828,-0.6488,-0.6488,-0.7047,-0.7695,-0.7695,-0.7695,-0.7695,-0.7695,-0.8241,-0.8912,-0.9374,-0.9906,-1.0386,-1.0798,-1.1369,-1.1763,-1.1774,-1.1774,-1.1774,-1.1774,-1.1774,-1.1957,-1.2437,-1.2496,-1.2685,-1.3129,-1.3198,-1.3391,-1.3835,-1.3459,-1.3547,-1.4406,-1.4117,-1.4052,-1.447,-1.4501,-1.4876,-1.577,-1.5799,-1.558,-1.5104,-1.5104,-1.4907,-1.4501,-1.4907,-1.5104,-1.509,-1.5909,-1.6123,1.3532,0.0,0.0,1.5703,0.0,0.0,0.0,1.4877,0.0,0.0,0.0,0.0,0.0,0.0,0.0,0.0,0.0,0.0,0.0,0.0,0.0,0.0,0.0,0.0,0.0,0.0,0.0,0.0,0.0,0.0,0.0,0.0,0.0,0.0,0.0,0.0,0.5986,0.5318,0.4845,0.4573,0.4309,0.3598,0.2517,0.1894,0.1077,0.0111,-0.0684,-0.1433,-0.2215,-0.3516,-0.4525,-0.5281,-0.5609,-0.5787,-0.58,-0.5335,-0.5153,-0.5055,-0.4586,-0.4599,-0.4794,-0.4794,-0.5383,-0.6121,-0.6427,-0.685,-0.7393,-0.7966,-0.7918,-0.7754,-0.8033,-0.8091,-0.815,-0.8563,-0.8816,-0.9148,-0.9826,-0.9901,-1.0016,-1.0651,-1.047,-1.0348,-1.0674,-1.1029,-1.1282,-1.142,-1.2054,-1.2685,-1.3129,-1.3198,-1.3116,-1.2953,-1.2791,-1.2814,-1.3067,-1.2975,-1.3251,-1.4019,-1.4084,-1.4438,-1.5255,-1.5329,-1.5225,-1.5104,-1.5104,-1.4907,-1.4501,-1.4627,-1.469,-1.469,-1.4923,-1.515,1.419,0.0,0.0,1.6017,1.5663,0.0,0.0,0.0,0.0,0.0,0.0,0.0,0.0,0.0,0.0,0.0,0.0,0.0,0.0,0.0,0.0,0.0,0.0,0.0,0.0,0.0,0.0,0.0,0.0,0.0,0.0,0.0,0.0,0.0,0.0,0.0,0.5925,0.5366,0.5011,0.4856,0.4591,0.3984,0.3101,0.244,0.1764,0.1001,-0.0244,-0.1172,-0.1883,-0.2911,-0.3814,-0.4587,-0.4716,-0.4851,-0.4914,-0.4499,-0.4321,-0.4229,-0.3913,-0.4014,-0.4306,-0.4535,-0.5068,-0.5743,-0.6336,-0.6781,-0.7237,-0.7879,-0.7899,-0.7754,-0.8004,-0.7899,-0.7764,-0.8039,-0.8206,-0.8465,-0.8923,-0.9126,-0.9317,-0.9649,-0.9791,-0.9922,-1.001,-1.0223,-1.0552,-1.0943,-1.1689,-1.2318,-1.2615,-1.265,-1.2544,-1.2246,-1.221,-1.221,-1.221,-1.2401,-1.2743,-1.3319,-1.3535,-1.3934,-1.4596,-1.4783,-1.4783,-1.4627,-1.4627,-1.4406,-1.4,-1.4181,-1.4246,-1.4278,-1.4438,-1.4627,1.4598,0.0,0.0,1.6217,0.0,0.0,0.0,0.0,0.0,0.0,0.0,0.0,0.0,0.0,0.0,0.0,0.0,0.0,0.0,0.0,0.0,0.0,0.0,0.0,0.0,0.0,0.0,0.0,0.0,0.0,0.0,0.0,0.0,0.0,0.0,0.0,0.5463,0.5166,0.504,0.0,0.4769,0.4372,0.387,0.3126,0.2411,0.1711,0.0133,-0.1016,-0.1818,-0.2054,-0.2805,-0.3748,-0.3525,-0.3607,-0.3867,-0.3841,-0.3642,-0.3419,-0.3576,-0.3678,-0.381,-0.4303,-0.4757,-0.53,-0.6136,-0.6661,-0.7089,-0.7569,-0.7666,-0.7666,-0.7725,-0.7725,-0.7704,-0.7734,-0.7997,-0.8202,-0.818,-0.8797,-0.9235,-0.89,-0.9497,-0.9944,-0.9635,-0.9505,-0.9785,-1.0781,-1.1356,-1.1689,-1.1774,-1.1811,-1.1774,-1.1737,-1.1737,-1.1737,-1.1737,-1.2174,-1.2461,-1.2508,-1.2943,-1.3391,-1.3835,-1.4214,-1.4278,-1.3901,-1.3901,-1.3682,-1.3198,-1.3648,-1.3835,-1.3835,-1.4214,-1.4406,1.5735,1.5393,0.0,0.0,0.0,0.0,0.0,0.0,0.0,0.0,0.0,0.0,0.0,0.0,0.0,0.0,0.0,0.0,0.0,0.0,0.0,0.0,0.0,0.0,0.0,0.0,0.0,0.0,0.0,0.0,0.0,0.0,0.0,0.0,0.0,0.5251,0.5194,0.4717,0.4573,0.0,0.4307,0.4012,0.3888,0.3502,0.2767,0.1736,0.0422,-0.0754,-0.1796,-0.1865,-0.221,-0.2732,-0.2835,-0.2912,-0.2954,-0.2677,-0.2598,-0.2612,-0.245,-0.2756,-0.3276,-0.3377,-0.4024,-0.4814,-0.5331,-0.5805,-0.6366,-0.7423,-0.7481,-0.7364,-0.7994,-0.7947,-0.7627,-0.7326,-0.7832,-0.8266,-0.7954,-0.8045,-0.833,-0.8858,-0.852,-0.8464,-0.9378,-0.9147,-0.9222,-1.0215,-1.0484,-1.0836,-1.1689,-1.1811,-1.1627,-1.1207,-1.1169,-1.1169,-1.1169,-1.1664,-1.2102,-1.2473,-1.2943,-1.3267,-1.3357,-1.3802,-1.4,-1.3901,-1.3901,-1.3682,-1.3198,-1.3301,-1.3357,-1.3357,-1.3459,-1.3682,0.0,0.0,0.0,1.5937,0.0,0.0,0.0,0.0,0.0,0.0,0.0,0.0,0.0,0.0,0.0,0.0,0.0,0.0,0.0,0.0,0.0,0.0,0.0,0.0,0.0,0.0,0.0,0.0,0.0,0.0,0.0,0.0,0.0,0.0,0.5298,0.503,0.4904,0.4507,0.4372,0.4501,0.4107,0.3763,0.3515,0.3313,0.2703,0.1743,0.0824,-0.0089,-0.0955,-0.1247,-0.1667,-0.2124,-0.2237,-0.2446,-0.2657,-0.2386,-0.2224,-0.2106,-0.2033,-0.2244,-0.2613,-0.2896,-0.3407,-0.4039,-0.4849,-0.5314,-0.5774,-0.6841,-0.6961,-0.691,-0.7325,-0.7275,-0.7127,-0.7118,-0.7528,-0.7808,-0.7205,-0.7424,-0.774,-0.7929,-0.7931,-0.8085,-0.8695,-0.872,-0.8797,-0.9053,-0.9521,-0.9962,-1.0273,-1.0743,-1.0867,-1.0331,-1.0524,-1.0649,-1.0649,-1.1356,-1.1884,-1.2138,-1.2838,-1.3094,-1.2873,-1.3091,-1.3216,-1.3216,-1.3216,-1.3126,-1.2873,-1.265,-1.265,-1.2873,-1.2873,-1.2883,1.5984,0.0,1.5383,1.5229,0.0,0.0,0.0,0.0,0.0,0.0,0.0,0.0,0.0,0.0,0.0,0.0,0.0,0.0,0.0,0.0,0.0,0.0,0.0,0.0,0.0,0.0,0.0,0.0,0.0,0.0,0.0,0.0,0.6094,0.5387,0.5107,0.4826,0.4567,0.4293,0.4191,0.4232,0.4006,0.3605,0.3025,0.2907,0.2473,0.1772,0.1274,0.0647,-0.0045,-0.0535,-0.1046,-0.1491,-0.1604,-0.1946,-0.2359,-0.2196,-0.1997,-0.1814,-0.1933,-0.1966,-0.206,-0.2557,-0.2822,-0.3147,-0.4264,-0.4831,-0.5212,-0.5952,-0.6198,-0.6297,-0.6358,-0.6449,-0.6579,-0.6901,-0.7227,-0.7233,-0.6575,-0.7013,-0.741,-0.7026,-0.7597,-0.8067,-0.7873,-0.8159,-0.8308,-0.8077,-0.8716,-0.9119,-0.8878,-0.9597,-0.9961,-0.9399,-0.9922,-1.0244,-1.0166,-1.1067,-1.1664,-1.1664,-1.2461,-1.2791,-1.2389,-1.2401,-1.2354,-1.2246,-1.2318,-1.2401,-1.2401,-1.1993,-1.1993,-1.2401,-1.2401,-1.2174,0.0,0.0,1.7316,0.0,0.0,0.0,0.0,0.0,0.0,0.0,0.0,0.0,0.0,0.0,0.0,0.0,0.0,0.0,0.0,0.0,0.0,0.0,0.0,0.0,0.0,0.0,0.0,0.0,0.0,0.0,0.0,0.5731,0.5396,0.4834,0.4547,0.4285,0.4007,0.3751,0.3731,0.3952,0.3917,0.35,0.2745,0.2739,0.2386,0.1806,0.1724,0.1029,-0.0,-0.0089,-0.0178,-0.0289,-0.0824,-0.1072,-0.1139,-0.1116,-0.1388,-0.1801,-0.1821,-0.1815,-0.1842,-0.1922,-0.2102,-0.2408,-0.2879,-0.37,-0.4523,-0.4662,-0.5004,-0.5449,-0.5814,-0.619,-0.651,-0.6579,-0.6885,-0.714,-0.701,-0.7085,-0.723,-0.7435,-0.7725,-0.7755,-0.721,-0.7203,-0.7516,-0.8472,-0.8316,-0.8439,-0.9279,-0.9518,-0.9399,-0.8878,-0.9716,-1.0118,-0.9637,-1.0524,-1.1132,-1.1132,-1.1653,-1.1957,-1.1884,-1.1884,-1.1653,-1.1196,-1.1653,-1.1884,-1.1884,-1.1811,-1.1811,-1.1884,-1.1884,-1.1847,1.6275,1.68,1.7159,0.0,0.0,0.0,0.0,0.0,0.0,0.0,0.0,0.0,0.0,0.0,0.0,0.0,0.0,0.0,0.0,0.0,0.0,0.0,0.0,0.0,0.0,0.0,0.0,0.0,0.0,0.0,0.5675,0.5558,0.533,0.4932,0.4666,0.4386,0.413,0.3848,0.371,0.3668,0.3514,0.319,0.2702,0.2706,0.2192,0.1269,0.094,0.0493,0.0,0.0,0.0,-0.0022,-0.0291,-0.0403,-0.0403,-0.0401,-0.0557,-0.0847,-0.1185,-0.1306,-0.1292,-0.1291,-0.1382,-0.1501,-0.1649,-0.2133,-0.2845,-0.3658,-0.405,-0.4343,-0.47,-0.5118,-0.5494,-0.5705,-0.6114,-0.6488,-0.6721,-0.6751,-0.6765,-0.682,-0.6996,-0.712,-0.7036,-0.6979,-0.7189,-0.7682,-0.7821,-0.7953,-0.8088,-0.8667,-0.8837,-0.8316,-0.8958,-0.9319,-0.9079,-0.9679,-1.0215,-1.0532,-1.1014,-1.1324,-1.1356,-1.1356,-1.0981,-1.0167,-1.0933,-1.1196,-1.0912,-1.0943,-1.0943,-1.0912,-1.1196,-1.1207,0.0,0.0,1.7015,0.0,0.0,0.0,0.0,0.0,0.0,0.0,0.0,0.0,0.0,0.0,0.0,0.0,0.0,0.0,0.0,0.0,0.0,0.0,0.0,0.0,0.0,0.0,0.0,0.0,0.0,0.0,0.5425,0.5387,0.531,0.5108,0.4853,0.4567,0.4313,0.3973,0.3668,0.3393,0.3202,0.2918,0.2567,0.2667,0.2042,0.0892,0.0582,0.0292,0.0,0.0,0.0,0.0,0.0,0.0,0.0,0.0,0.0,-0.0067,-0.0513,-0.068,-0.0678,-0.0682,-0.0678,-0.0666,-0.0675,-0.0803,-0.1194,-0.2285,-0.2947,-0.3347,-0.3588,-0.3978,-0.4456,-0.4928,-0.5401,-0.5875,-0.6397,-0.6462,-0.6402,-0.6272,-0.6392,-0.6573,-0.686,-0.6914,-0.6982,-0.7182,-0.7489,-0.7572,-0.728,-0.7979,-0.8275,-0.7746,-0.8267,-0.8643,-0.8521,-0.8933,-0.9394,-0.9787,-1.0157,-1.0359,-1.0389,-1.0437,-1.005,-0.9319,-1.005,-1.0234,-0.9836,-1.0147,-1.0186,-1.0031,-1.0552,-1.0649,0.0,1.7193,0.0,0.0,0.0,0.0,0.0,0.0,0.0,0.0,0.0,0.0,0.0,0.0,0.0,0.0,0.0,0.0,0.0,0.0,0.0,0.0,0.0,0.0,0.0,0.0,0.0,0.0,0.0,0.0,0.5146,0.5127,0.5108,0.5108,0.4853,0.4567,0.4313,0.3786,0.3393,0.3111,0.3111,0.2783,0.2241,0.2558,0.2042,0.0936,0.148,0.1054,0.0,0.0,0.0,0.0,0.0,0.0,0.0,0.0,0.0,-0.0,-0.0045,-0.0047,-0.0051,-0.0055,-0.0058,-0.0062,-0.0033,-0.0067,-0.0067,-0.0168,-0.1434,-0.2761,-0.2761,-0.3151,-0.3737,-0.4462,-0.4935,-0.5456,-0.6328,-0.641,-0.632,-0.6289,-0.625,-0.631,-0.656,-0.6613,-0.6907,-0.7743,-0.7405,-0.7238,-0.7787,-0.7912,-0.7704,-0.7105,-0.8054,-0.848,-0.7995,-0.8439,-0.8756,-0.8797,-0.8797,-0.8837,-0.8837,-0.8837,-0.8797,-0.8756,-0.8797,-0.8797,-0.8797,-0.9804,-1.004,-0.9558,-1.0079,-1.0322,0.0,0.0,0.0,0.0,0.0,0.0,0.0,0.0,0.0,0.0,0.0,0.0,0.0,0.0,0.0,0.0,0.0,0.0,0.0,0.0,0.0,0.0,0.0,0.0,0.0,0.0,0.0,0.0,0.0,0.0,0.4864,0.501,0.5108,0.5108,0.501,0.4745,0.4313,0.3765,0.3464,0.3351,0.3004,0.2719,0.2502,0.2236,0.175,0.1094,0.1185,0.119,0.1104,0.0313,0.0,0.0,0.0,0.0,0.0,0.0,0.0,0.0,0.0,0.0,0.0,0.0,0.0,0.0,0.0,0.0,0.0,0.0,-0.0871,-0.1809,-0.1804,-0.2395,-0.3249,-0.4333,-0.4718,-0.4973,-0.5609,-0.5702,-0.5714,-0.5868,-0.5896,-0.5965,-0.6297,-0.6466,-0.6706,-0.7015,-0.7024,-0.7063,-0.728,-0.7321,-0.7238,-0.7021,-0.7349,-0.7523,-0.7356,-0.7482,-0.7773,-0.8152,-0.8201,-0.8357,-0.8683,-0.8716,-0.8561,-0.8193,-0.8521,-0.8513,-0.8201,-0.9279,-0.9319,-0.848,-0.9359,-0.9597,1.5824,0.0,0.0,0.0,0.0,0.0,0.0,0.0,0.0,0.0,0.0,0.0,0.0,0.0,0.0,0.0,0.0,0.0,0.0,0.0,0.0,0.0,0.0,0.0,0.0,0.0,0.0,0.0,0.0,0.0,0.4853,0.501,0.5108,0.5108,0.4932,0.4666,0.4313,0.3765,0.3464,0.3351,0.2918,0.2632,0.2524,0.2012,0.1569,0.1208,0.1208,0.1438,0.1718,0.0715,0.0179,0.0,0.0,0.0247,0.0606,0.0606,0.0471,0.0272,0.0074,0.0,0.0,0.0,0.0,0.0,0.0,0.0,0.0,0.0,-0.0403,-0.0874,-0.0871,-0.1769,-0.2925,-0.3746,-0.4172,-0.4538,-0.496,-0.5182,-0.5337,-0.5531,-0.5664,-0.582,-0.5994,-0.6196,-0.6319,-0.6465,-0.6399,-0.6495,-0.6833,-0.6793,-0.681,-0.6979,-0.6979,-0.6979,-0.6979,-0.6979,-0.7189,-0.7572,-0.7614,-0.778,-0.8095,-0.8136,-0.7979,-0.7621,-0.7938,-0.7938,-0.7614,-0.8707,-0.8756,-0.7912,-0.8797,-0.9039,0.0,0.0,0.0,0.0,0.0,0.0,0.0,0.0,0.0,0.0,0.0,0.0,0.0,0.0,0.0,0.0,0.0,0.0,0.0,0.0,0.0,0.0,0.0,0.0,0.0,0.0,0.0,0.0,0.0,0.5088,0.5088,0.5088,0.5108,0.5108,0.4587,0.4325,0.4325,0.3807,0.3415,0.3153,0.2848,0.2546,0.2193,0.1924,0.1594,0.123,0.1639,0.1798,0.1753,0.1141,0.0537,0.0,0.0045,0.0763,0.1798,0.1798,0.1433,0.0836,0.0269,0.0026,0.0,0.0,0.0,0.0,0.0067,0.0034,0.0,0.0,0.0,0.0,0.0,-0.1335,-0.2662,-0.2695,-0.336,-0.4091,-0.4505,-0.4953,-0.5277,-0.5277,-0.5609,-0.5829,-0.5719,-0.5691,-0.5826,-0.6112,-0.5576,-0.5453,-0.6435,-0.6311,-0.6392,-0.6894,-0.6979,-0.6979,-0.6979,-0.6979,-0.6979,-0.6979,-0.6979,-0.6979,-0.6979,-0.6979,-0.6979,-0.6979,-0.6979,-0.6979,-0.7021,-0.8144,-0.8398,-0.787,-0.8398,-0.8635,1.4815,0.0,0.0,0.0,0.0,0.0,0.0,0.0,0.0,0.0,0.0,0.0,0.0,0.0,0.0,0.0,0.0,0.0,0.0,0.0,0.0,0.0,0.0,0.0,0.0,0.0,0.0,0.0,0.503,0.501,0.4834,0.4991,0.5108,0.5108,0.4952,0.4943,0.5087,0.4807,0.4503,0.4171,0.3516,0.2975,0.2546,0.2034,0.1746,0.1648,0.175,0.1798,0.1753,0.1141,0.0535,0.0089,0.0962,0.1505,0.1798,0.1798,0.1683,0.1556,0.157,0.0881,0.0,0.0,0.0,0.0235,0.155,0.1043,0.0,0.0,0.0,0.0,0.0,-0.0837,-0.1869,-0.2531,-0.3093,-0.3626,-0.4086,-0.4285,-0.4538,-0.5182,-0.5404,-0.5463,-0.5416,-0.5571,-0.5666,-0.5553,-0.5543,-0.5566,-0.5655,-0.561,-0.561,-0.5733,-0.6167,-0.6435,-0.6435,-0.6768,-0.6979,-0.6979,-0.6979,-0.6816,-0.6435,-0.681,-0.681,-0.6435,-0.681,-0.6979,-0.7021,-0.7739,-0.7821,-0.7238,-0.7398,-0.7482,0.0,0.0,0.0,0.0,0.0,0.0,0.0,0.0,0.0,0.0,0.0,0.0,0.0,0.0,0.0,0.0,0.0,0.0,0.0,0.0,0.0,0.0,0.0,0.0,0.0,0.0,0.0,0.0,0.501,0.503,0.4873,0.501,0.5146,0.5272,0.5325,0.5475,0.5733,0.5563,0.5318,0.5,0.4191,0.3376,0.256,0.2038,0.1791,0.1803,0.1809,0.1794,0.1753,0.1141,0.0536,0.0067,0.0784,0.1368,0.1798,0.1798,0.1794,0.1828,0.197,0.1535,0.0825,0.0189,0.0528,0.1313,0.2371,0.1957,0.104,0.0637,0.0269,0.0,0.0,-0.0369,-0.1071,-0.2374,-0.2878,-0.3171,-0.3626,-0.3723,-0.3918,-0.4634,-0.5042,-0.524,-0.5209,-0.5491,-0.5596,-0.5331,-0.5157,-0.5112,-0.5298,-0.5139,-0.5053,-0.5043,-0.5653,-0.6087,-0.6179,-0.6689,-0.6979,-0.6979,-0.6979,-0.6852,-0.6562,-0.6598,-0.652,-0.6227,-0.6258,-0.6422,-0.6683,-0.7238,-0.7363,-0.6979,-0.6979,-0.6979,0.0,0.0,0.0,0.0,0.0,0.0,1.4848,1.4079,0.0,0.0,0.0,0.0,0.0,0.0,0.0,0.0,0.0,0.0,0.0,0.0,0.0,0.0,0.0,0.0,0.0,0.0,0.5234,0.5156,0.5146,0.5127,0.5108,0.5127,0.5281,0.5547,0.5726,0.5994,0.6362,0.6183,0.5896,0.5476,0.4636,0.3536,0.2263,0.1883,0.1746,0.1806,0.1803,0.1809,0.1753,0.1163,0.0648,0.018,0.0045,0.0694,0.1708,0.1775,0.1791,0.1804,0.1818,0.1982,0.1945,0.0693,0.1376,0.2693,0.2706,0.2706,0.2526,0.1678,0.0737,0.0,0.0,0.0,-0.0436,-0.2153,-0.263,-0.2793,-0.3167,-0.3229,-0.336,-0.3761,-0.452,-0.5042,-0.5002,-0.533,-0.5513,-0.5182,-0.469,-0.4514,-0.5055,-0.4663,-0.4364,-0.4382,-0.5115,-0.5776,-0.6142,-0.6605,-0.6937,-0.6979,-0.6979,-0.6979,-0.6894,-0.6435,-0.6184,-0.6093,-0.5567,-0.561,-0.6184,-0.6725,-0.6979,-0.6979,-0.6979,-0.6979,0.0,0.0,0.0,0.0,0.0,0.0,0.0,1.2855,0.0,0.0,0.0,0.0,0.0,0.0,0.0,0.0,0.0,0.0,0.0,0.0,0.0,0.0,0.0,0.0,0.0,0.0,0.6109,0.5475,0.5435,0.533,0.5108,0.531,0.5582,0.5971,0.6376,0.6847,0.7402,0.6897,0.6012,0.4781,0.3716,0.2584,0.1419,0.1174,0.1336,0.1794,0.1806,0.1809,0.1775,0.1321,0.1254,0.1346,0.0379,0.0446,0.1139,0.1629,0.1791,0.1818,0.1988,0.1963,0.1903,0.2121,0.241,0.2715,0.2699,0.2706,0.2676,0.2472,0.1246,0.0,0.0,0.0,-0.0269,-0.1306,-0.215,-0.2726,-0.2812,-0.2808,-0.2845,-0.2944,-0.3658,-0.4226,-0.4214,-0.4779,-0.4957,-0.4205,-0.4665,-0.479,-0.4046,-0.3017,-0.2361,-0.2359,-0.3369,-0.4561,-0.5837,-0.6202,-0.6562,-0.6979,-0.6979,-0.681,-0.6392,-0.6264,-0.5964,-0.548,-0.5351,-0.561,-0.6184,-0.6725,-0.6979,-0.6979,-0.6979,-0.6979,0.0,0.0,0.0,1.4982,0.0,0.0,0.0,0.0,0.0,0.0,0.0,0.0,0.0,0.0,0.0,0.0,0.0,0.0,0.0,0.0,0.0,0.0,0.0,0.0,0.0,0.0,0.739,0.6425,0.6345,0.6051,0.534,0.5558,0.5834,0.6136,0.6776,0.7341,0.7847,0.7181,0.5965,0.4184,0.281,0.1453,0.0176,0.0575,0.1136,0.1798,0.1809,0.1809,0.1775,0.1591,0.1616,0.1731,0.1134,0.109,0.1383,0.1692,0.1809,0.1718,0.1214,0.0996,0.0967,0.1399,0.1553,0.161,0.1912,0.2335,0.27,0.2703,0.1715,0.0536,0.0101,0.0,-0.0235,-0.1104,-0.2014,-0.2693,-0.2716,-0.2712,-0.2712,-0.2712,-0.3043,-0.3464,-0.3827,-0.4433,-0.4666,-0.4165,-0.4619,-0.4667,-0.3718,-0.3054,-0.2239,-0.1027,-0.1464,-0.2739,-0.5106,-0.6079,-0.6715,-0.6979,-0.6979,-0.6894,-0.6605,-0.6044,-0.5356,-0.4487,-0.47,-0.5,-0.5308,-0.6167,-0.6732,-0.6979,-0.6979,-0.6852,0.0,0.0,0.0,0.0,0.0,1.4363,0.0,0.0,0.0,0.0,0.0,0.0,0.0,0.0,0.0,0.0,0.0,0.0,0.0,0.0,0.0,0.0,0.0,0.0,0.0,0.0,0.8702,0.7663,0.7534,0.703,0.5931,0.6134,0.6332,0.6427,0.7131,0.765,0.7945,0.7242,0.5787,0.354,0.1904,0.0422,-0.0819,0.0089,0.0959,0.1798,0.1809,0.1832,0.1883,0.1816,0.1794,0.1791,0.1809,0.1806,0.1803,0.1803,0.1809,0.1639,0.0423,-0.0163,-0.032,-0.01,0.0165,0.0551,0.1336,0.2098,0.2686,0.2693,0.215,0.134,0.0269,-0.0134,-0.0436,-0.1138,-0.2014,-0.2693,-0.2716,-0.2712,-0.2712,-0.2712,-0.2712,-0.2885,-0.3491,-0.4099,-0.4394,-0.4181,-0.4091,-0.3741,-0.301,-0.2697,-0.1792,0.0134,0.0133,-0.1148,-0.4014,-0.5809,-0.6789,-0.6859,-0.6937,-0.6937,-0.6852,-0.5782,-0.4666,-0.3622,-0.4008,-0.4347,-0.4561,-0.5567,-0.6301,-0.6852,-0.6937,-0.6732,0.0,0.0,0.0,0.0,1.3079,0.0,0.0,0.0,0.0,0.0,0.0,0.0,0.0,0.0,0.0,0.0,0.0,0.0,0.0,0.0,0.0,0.0,0.0,0.0,0.0,0.0,0.0,0.9025,0.8748,0.8229,0.7324,0.7523,0.7559,0.7274,0.7695,0.7873,0.7749,0.7175,0.55,0.2715,0.0925,-0.0174,-0.0624,-0.0155,0.0708,0.1798,0.1809,0.1935,0.2132,0.1894,0.1799,0.1792,0.1791,0.1791,0.1803,0.1803,0.1809,0.1639,0.0423,-0.0696,-0.159,-0.1557,-0.0662,0.0679,0.2096,0.2616,0.2696,0.2696,0.263,0.2153,0.0436,-0.057,-0.1171,-0.1271,-0.2014,-0.2693,-0.2716,-0.2712,-0.2712,-0.2712,-0.2712,-0.2719,-0.28,-0.3513,-0.3859,-0.3232,-0.2268,-0.1322,-0.0489,0.0534,0.1293,0.1561,0.0623,-0.0709,-0.2424,-0.4696,-0.6096,-0.627,-0.6725,-0.6768,-0.6307,-0.5328,-0.4416,-0.3626,-0.3667,-0.4184,-0.5216,-0.5346,-0.5696,-0.6307,-0.6768,-0.6732,0.0,0.0,0.0,0.0,0.0,0.0,1.1868,0.0,1.2439,0.0,0.0,0.0,0.0,0.0,0.0,0.0,0.0,0.0,0.0,0.0,0.0,0.0,0.0,0.0,0.0,0.0,0.0,0.0,0.0,0.9503,0.7764,0.8256,0.8112,0.7081,0.7514,0.7525,0.7019,0.6317,0.4613,0.1942,0.0359,-0.0883,-0.1787,-0.0798,0.0444,0.1798,0.1794,0.1964,0.2193,0.2084,0.208,0.2137,0.2066,0.1938,0.1803,0.1803,0.1809,0.1661,0.069,-0.0601,-0.1815,-0.1941,-0.0888,0.0562,0.1401,0.2347,0.3092,0.2789,0.2716,0.251,0.1778,0.0134,-0.144,-0.1981,-0.2653,-0.3092,-0.2782,-0.2874,-0.3,-0.2829,-0.2812,-0.2839,-0.292,-0.3227,-0.3388,-0.3098,-0.2186,-0.0665,0.1787,0.2514,0.2831,0.2831,0.2377,0.0979,-0.1765,-0.4168,-0.5739,-0.6184,-0.6392,-0.6435,-0.6227,-0.514,-0.436,-0.4049,-0.3751,-0.3968,-0.4783,-0.513,-0.561,-0.6227,-0.6768,-0.6732,0.6167,0.0,0.0,0.0,0.0,0.0,0.0,0.0,0.0,0.0,0.0,0.0,0.0,0.0,0.0,0.0,0.0,0.0,0.0,0.0,0.0,0.0,0.0,0.0,0.0,0.0,0.0,0.0,0.0,0.0,0.8863,0.9374,0.9002,0.7431,0.767,0.742,0.654,0.5683,0.3972,0.1417,-0.0344,-0.1582,-0.228,-0.1265,-0.0022,0.1316,0.1474,0.1825,0.2259,0.2215,0.2367,0.2558,0.2302,0.2084,0.1891,0.1828,0.1791,0.1683,0.0936,-0.0401,-0.1819,-0.1966,-0.1239,-0.0114,0.0916,0.2341,0.3521,0.301,0.2867,0.2834,0.2726,0.0901,-0.1236,-0.2423,-0.3088,-0.3344,-0.294,-0.3141,-0.331,-0.3132,-0.301,-0.3012,-0.3118,-0.3145,-0.3149,-0.3108,-0.2264,-0.0623,0.2243,0.3197,0.3609,0.3609,0.3612,0.2281,-0.1017,-0.3456,-0.5154,-0.5922,-0.5959,-0.5959,-0.5959,-0.5236,-0.467,-0.4391,-0.4056,-0.4056,-0.4387,-0.5,-0.561,-0.6227,-0.6768,-0.6641,0.0,0.0,0.0,0.9245,0.0,0.0,0.0,0.0,1.2234,0.0,0.0,0.0,0.0,0.0,0.0,0.0,0.0,0.0,0.0,0.0,0.0,0.0,0.0,0.0,0.0,0.0,0.0,0.0,0.0,0.0,1.1229,1.1282,1.0573,0.8885,0.861,0.7876,0.6612,0.5599,0.3832,0.1275,-0.1378,-0.2188,-0.134,-0.1296,-0.0791,0.0088,0.0684,0.1476,0.238,0.2254,0.2541,0.3025,0.2433,0.2193,0.2154,0.1905,0.1798,0.1708,0.1094,-0.0289,-0.1802,-0.1806,-0.1945,-0.1588,0.1223,0.2967,0.3902,0.3401,0.329,0.32,0.2793,0.1335,-0.0498,-0.2284,-0.3014,-0.329,-0.3294,-0.3436,-0.357,-0.3575,-0.3313,-0.3122,-0.3276,-0.3299,-0.3265,-0.3124,-0.2041,-0.0889,0.0,0.2148,0.3598,0.3598,0.3609,0.26,0.0133,-0.226,-0.4132,-0.526,-0.5346,-0.5346,-0.5346,-0.5684,-0.5379,-0.4434,-0.4587,-0.4587,-0.4387,-0.5,-0.561,-0.6227,-0.6768,-0.6422,0.0,0.0,0.673,0.8066,0.0,0.0,0.0,0.0,0.0,0.0,0.0,0.0,0.0,0.0,0.0,0.0,0.0,0.0,0.0,0.0,0.0,0.0,0.0,0.0,0.0,0.0,0.0,0.0,0.0,0.0,0.0,1.1796,1.1228,1.0009,0.9298,0.8249,0.6749,0.4933,0.3118,0.1281,-0.074,-0.1938,-0.2368,-0.235,-0.1785,-0.0751,-0.0022,0.0942,0.2035,0.2564,0.3014,0.333,0.2944,0.2687,0.2481,0.199,0.1547,0.1072,0.0067,-0.0961,-0.1825,-0.1894,-0.1476,-0.0675,0.0861,0.2411,0.3625,0.3364,0.3368,0.3315,0.283,0.137,-0.0466,-0.2284,-0.3245,-0.3728,-0.3655,-0.4152,-0.4582,-0.4576,-0.4183,-0.3886,-0.4014,-0.3752,-0.3463,-0.3433,-0.2392,-0.1203,-0.0134,0.2107,0.3609,0.3609,0.3612,0.2286,-0.0934,-0.3017,-0.4478,-0.526,-0.4913,-0.487,-0.5303,-0.5067,-0.4757,-0.4391,-0.4482,-0.4482,-0.4387,-0.4604,-0.5216,-0.6227,-0.6392,-0.6471,0.6378,0.637,0.0,0.7312,0.7888,0.0,0.9544,0.0,0.0,0.0,0.0,0.0,0.0,0.0,0.0,0.0,0.0,0.0,0.0,0.0,0.0,0.0,0.0,0.0,0.0,0.0,1.0112,1.0754,0.0,0.0,0.0,0.0,1.2307,1.1145,1.0363,0.9141,0.7451,0.5227,0.3227,0.1496,-0.0256,-0.1708,-0.2826,-0.2929,-0.2536,-0.1745,-0.0721,0.0501,0.1876,0.2752,0.3269,0.3485,0.3305,0.3029,0.2637,0.2016,0.1277,0.0446,-0.0558,-0.1369,-0.1943,-0.1981,-0.1229,-0.0144,0.0657,0.2122,0.3484,0.3405,0.3442,0.3216,0.2045,0.0869,-0.0468,-0.2286,-0.3381,-0.4016,-0.4023,-0.4627,-0.5207,-0.5301,-0.4917,-0.4637,-0.4717,-0.4268,-0.3843,-0.364,-0.2595,-0.1383,-0.0134,0.1346,0.2339,0.2339,0.1932,0.0582,-0.2194,-0.3646,-0.4478,-0.4705,-0.4522,-0.4561,-0.4957,-0.4604,-0.4387,-0.4387,-0.4387,-0.4303,-0.4136,-0.4303,-0.4783,-0.5567,-0.6002,-0.6392]}]]